     2              OBSERVATION DATA    G (GPS)             RINEX VERSION / TYPE
ASRINEXO V2.4.4 UX USGS 20-AUG-96 15:58                     PGM / RUN BY / DATE
Crustal Strain Project                                      COMMENT
U.S. Geological Survey, Menlo Park, California 94025        COMMENT
345 Middlefield Road, MS/977                                COMMENT
Contact: kwendt@isdmnl.wr.usgs.gov (Ph: 415-329-4866)       COMMENT
HI's are vertical to base of antenna                        COMMENT
10bb                                                        MARKER NAME
JLS USGS                                                    OBSERVER / AGENCY
O4582 ASHTECH Z-XII3 1F00                                   REC # / TYPE / VERS
1068 ASH700228D NONE                                        ANT # / TYPE
 -2449778.0000 -4295451.0000  4018103.0000                  APPROX POSITION XYZ
        1.1749        0.0000        0.0000                  ANTENNA: DELTA H/E/N
     1     1                                                WAVELENGTH FACT L1/2
     5    C1    L1    L2    P1    P2                        # / TYPES OF OBSERV
    30                                                      INTERVAL
  1996     7    11    15    42    0.000000                  TIME OF FIRST OBS
                                                            END OF HEADER
 96  7 11 15 42  0.0000000  0  2  7  9
  20316633.004        6156.76519
  19636532.744      -15579.77519
 96  7 11 15 42 30.0000000  0  6 24  5  4  7  9  2
  20670417.543     -153346.39719    -94472.57059                  20670426.0064
  21276275.674     -105166.39019    -67874.67859                  21276282.6194
  19367435.811      -84853.95119
  20320155.031       24646.78759     15322.07759  20320154.5394   20320159.6364
  19624921.367      -76607.46859    -50504.09259  19624921.8874   19624926.2934
  21950749.217       33501.45219     20884.92459                  21950757.4994
 96  7 11 15 43  0.0000000  0  2  7  9
  21822461.818       42237.68349     29029.24849  21822464.5194   21822469.7144
  21112177.246     -138116.42749    -98433.16349  21112179.2134   21112183.7744
 96  7 11 15 43 30.0000000  0  6 24  5  4  7  9  2
  22116427.276     -431600.97359   -311294.29149  22116432.5764   22116437.7664
  22725806.085     -364931.91859   -270289.31949  22725807.2174   22725812.2614
  20836024.729     -244469.982 9                                  21825651.663
                     58990.25859     42083.19559  21825652.9134   21825657.2864
  21100387.481     -200074.24659   -146711.98959  21100388.8744   21100393.4924
  23460884.416       92206.72459     66629.23549  23460885.1304   23460890.5574
 96  7 11 15 44  0.0000000  0  6 24  5  4  7  9  2
  22089776.231     -571675.71159   -420443.42859  22089777.1254   22089783.3054
  22700849.988     -496073.72859   -372477.71359  22700851.9154   22700856.4134
  20820733.970     -324822.845 9                                  21828695.811
                     74989.63349     54550.22849  21828696.8814   21828702.8514
  21088526.877     -262395.34749   -195273.89949  21088529.1144   21088533.8464
  23466256.777      120456.67459     88642.16159  23466259.8234   23466266.2524
 96  7 11 15 44 30.0000000  0  6 24  5  4  7  9  2
  22063019.772     -712275.27449   -530001.50849  22063021.8304   22063027.9274
  22675754.453     -627960.65249   -475246.71549  22675754.1234   22675760.0874
  20805389.952     -405461.517 9                                  21831607.381
                     90289.39849     66472.10549  21831608.5914   21831613.9624
  21076615.134     -324998.91049   -244055.90249  21076616.7724   21076621.4304
  23471512.225      148059.30849    110150.67449  23471513.4284   23471519.1564
 96  7 11 15 45  0.0000000  0  6 24  5  4  7  9  2
  22036179.028     -853329.51749   -639913.88349  22036180.6184   22036186.0694
  22650522.490     -760550.73049   -578563.61449  22650523.8394   22650527.4244
  20789998.038     -486339.775 9                                  21834394.748
                    104938.78449     77887.20149  21834396.2944   21834401.6964
  21064663.404     -387807.75249   -292997.86049  21064664.5114   21064669.0794
  23476652.678      175069.11649    131197.25349  23476653.1034   23476660.0704
 96  7 11 15 45 30.0000000  0  6 24  5  4  7  9  2
  22009257.873     -994796.61849   -750147.97549  22009260.0334   22009265.3444
  22625164.460     -893809.38749   -682401.49749  22625165.3834   22625170.6914
  20774567.858     -567425.095 9    -34350.24559  20774574.4244   21837065.228
                    118966.35849     88817.75549  21837065.8494   21837071.3224
  21052680.113     -450781.13449   -342068.03249  21052681.4114   21052685.6044
  23481688.598      201538.98649    151823.09049  23481689.9114   23481697.0134
 96  7 11 15 45 59.9990000  0  6 24  5  4  7  9  2
  21982263.686    -1136653.51049   -860685.80249  21982265.4184   21982271.7014
  22599683.685    -1027712.52749   -786741.59349  22599685.3024   22599689.9834
  20759108.633     -648669.48759    -97657.55749  20759110.0234   20759114.1504
  21839620.612      132395.45349     99281.97149  21839621.6994   21839626.4464
  21040672.296     -513882.78649   -391238.15549  21040673.5334   21040678.0314
  23486631.015      227507.52249    172058.27149  23486631.0654   23486638.7584
 96  7 11 15 46 29.9990000  0  6 24  5  4  7  9  2
  21955198.762    -1278882.67849   -971513.70649  21955200.1784   21955206.0034
  22574081.179    -1162249.29849   -891575.40949  22574083.5734   22574088.3474
  20743627.621     -730018.32049   -161046.24549  20743629.7984   20743633.9054
  21842066.985      145250.03049    109298.51449  21842067.1884   21842072.6994
  21028644.442     -577088.46449   -440489.33449  21028645.8394   21028650.6034
  23491480.660      252997.26249    191920.37249  23491482.4954   23491489.6164
 96  7 11 15 46 59.9990000  0  6 24  5  4  7  9  2
  21928064.791    -1421470.81149  -1082621.32049  21928066.5104   21928072.4424
  22548368.029    -1297381.44849   -996873.16249  22548368.1234   22548373.0734
  20728135.590     -811431.79349   -224485.30449  20728137.3394   20728141.6784
  21844409.349      157563.00349    118893.02249  21844411.0104   21844416.4154
  21016598.293     -640395.16249   -489819.23649  21016599.0154   21016603.5754
  23496242.653      278019.80149    211418.41349  23496243.1564   23496250.3684
 96  7 11 15 47 29.9990000  0  6 24  5  4  7  9  2
  21900865.978    -1564408.09549  -1194001.00549  21900866.6264   21900872.1634
  22522546.363    -1433071.86349  -1102605.93049  22522547.1974   22522552.1294
  20712637.202     -892878.86849   -287950.54549  20712638.7164   20712642.8564
  21846652.669      169350.17549    128077.81749  21846653.6484   21846658.9444
  21004531.293     -703804.47449   -539229.09749  21004532.6674   21004537.2164
  23500922.273      302601.13649    230572.67549  23500921.5954   23500928.0794
 96  7 11 15 47 59.9990000  0  6 24  5  4  7  9  2
  21873606.162    -1707665.42849  -1305630.07249  21873606.1504   21873611.2754
  22496623.384    -1569300.24849  -1208757.88149  22496624.2454   22496628.5374
  20697137.044     -974332.01349   -351420.51249  20697138.5404   20697142.8724
  21848801.774      180641.93249    136876.57749  21848802.7174   21848807.8834
  20992448.194     -767303.11149   -588708.56349  20992449.3714   20992453.9824
  23505518.850      326759.59149    249397.40549  23505518.4124   23505525.6584
 96  7 11 15 48 29.9990000  0  6 24  5  4  7  9  2
  21846291.646    -1851192.32549  -1417469.19749  21846293.8204   21846298.5334
  22470602.341    -1706041.58949  -1315309.54149  22470603.1004   22470608.2494
  20681636.952    -1055782.81649   -414888.66049  20681638.6104   20681643.1434
  21850860.154      191464.77249    145309.93449  21850862.1164   21850867.8634
  20980353.141     -830865.19049   -638237.46149  20980353.7484   20980358.4924
  23510038.451      350518.16749    267910.55349  23510039.3764   23510046.7344
 96  7 11 15 48 59.9990000  0  6 24  5  4  7  9  2
  21818936.605    -1994947.26449  -1529486.01149  21818938.4304   21818943.7004
  22444491.565    -1843249.01249  -1422224.38249  22444493.1554   22444498.4294
  20666139.106    -1137223.12049   -478348.62349  20666141.1964   20666145.7024
  21852837.814      201849.82149    153402.16549  21852838.5874   21852843.4374
  20968250.611     -894464.51249   -687795.38549  20968251.4004   20968255.7934
  23514492.649      373917.38149    286143.67149  23514493.0404   23514500.2584
 96  7 11 15 49 29.9990000  0  6 24  5  4  7  9  2
  21791547.314    -2138877.86249  -1641639.71349  21791548.8764   21791554.3244
  22418299.646    -1980891.07749  -1529477.91749  22418300.3554   22418305.2334
  20650648.244    -1218633.55049   -541785.31249  20650649.1324   20650653.6884
  21854734.507      211818.80249    161170.16949  21854735.5554   21854740.7514
  20956148.450     -958058.33949   -737349.02749  20956149.8294   20956154.1064
  23518883.476      396995.19849    304126.34549  23518884.7574   23518890.4394
 96  7 11 15 49 59.9990000  0  6 24  5  4  7  9  2
  21764132.862    -2282944.17149  -1753899.15949  21764133.7104   21764139.0724
  22392030.014    -2118937.50449  -1637046.52649  22392031.3924   22392036.1954
  20635165.700    -1299991.99949   -605181.48549  20635167.5694   20635171.8654
  21856559.679      221408.52449    168642.66849  21856560.3754   21856565.1274
  20944056.750    -1021600.32949   -786862.26749  20944058.2284   20944062.4984
  23523220.454      419773.29949    321875.49049  23523218.6174   23523226.7704
 96  7 11 15 50 29.9990000  0  6 24  5  4  7  9  2
  21736694.527    -2427129.55149  -1866251.37949  21736695.9144   21736701.7574
  22365689.737    -2257363.09849  -1744910.60249  22365690.1214   22365694.9294
  20619694.873    -1381293.20149   -668533.06149  20619696.3934   20619700.6324
  21858314.601      230638.42849    175834.79949  21858316.2354   21858322.3684
  20931981.348    -1085063.50549   -836314.09849  20931981.6034   20931986.1144
  23527497.708      442263.54649    339400.28849  23527499.5274   23527505.1134
 96  7 11 15 50 59.9990000  0  6 24  5  4  7  9  2
  21709235.793    -2571435.24849  -1978697.36249  21709235.9184   21709241.3474
  22339279.736    -2396148.42449  -1853054.98049  22339279.7814   22339285.2604
  20604238.775    -1462516.55949   -731823.97849  20604240.2304   20604244.3914
  21860003.127      239506.97349    182745.33549  21860004.3284   21860009.9034
  20919920.550    -1148439.73449   -885698.18449  20919921.7064   20919925.9694
  23531724.993      464472.93849    356706.27049  23531724.5824   23531732.2594
 96  7 11 15 51 29.9990000  0  6 24  5  4  7  9  2
  21681753.273    -2715850.47549  -2091228.68349  21681754.5304   21681760.3884
  22312800.479    -2535290.41749  -1961477.27849  22312802.1564   22312806.6974
  20588799.924    -1543645.41649   -795041.25849  20588801.9164   20588805.9444
  21861621.702      248011.55449    189372.27649  21861622.9774   21861628.4974
  20907879.621    -1211713.66349   -935002.55149  20907880.8174   20907885.1804
  23535897.624      486406.48549    373797.30449  23535900.2314   23535904.9064
 96  7 11 15 51 59.9990000  0  6 24  5  4  7  9  2
  21654255.017    -2860362.81449  -2203835.68649  21654255.2424   21654260.5824
  22286257.730    -2674779.65749  -2070170.17149  22286258.6024   22286262.9264
  20573383.960    -1624659.23049   -858168.89749  20573385.5994   20573389.7454
  21863175.839      256176.27949    195734.38049  21863176.5814   21863181.8634
  20895863.291    -1274865.12649   -984211.49349  20895863.4054   20895867.9554
  23540022.990      508083.64249    390688.56749  23540023.4214   23540030.6354
 96  7 11 15 52 29.9990000  0  6 24  5  4  7  9  2
  21626738.712    -3004952.46149  -2316502.94749  21626740.0914   21626745.6554
  22259651.767    -2814594.63849  -2179116.88049  22259651.9514   22259657.0234
  20557996.429    -1705520.69449   -921177.82149  20557997.9004   20558002.2104
  21864667.958      264017.14749    201844.13049  21864668.7524   21864673.6534
  20883871.795    -1337877.99749  -1033312.44349  20883872.7414   20883877.2434
  23544105.648      529535.10849    407403.95949  23544105.9124   23544113.1914
 96  7 11 15 52 59.9990000  0  6 24  5  4  7  9  2
  21599216.275    -3149582.12749  -2429201.37749  21599218.2044   21599223.3834
  22232989.594    -2954705.08249  -2288293.82549  22232990.3864   22232995.5164
  20542646.290    -1786180.49149   -984029.59849  20542648.6024   20542653.2914
  21866103.300      271557.82949    207719.98449  21866103.2684   21866108.7064
  20871911.486    -1400728.77549  -1082287.08549  20871912.3774   20871917.4264
  23548151.981      550803.68149    423976.81849  23548153.4594   23548159.3514
 96  7 11 15 53 29.9990000  0  6 24  5  4  7  9  2
  21571693.704    -3294213.85049  -2541901.39949  21571695.6654   21571701.1244
  22206273.786    -3095097.76449  -2397690.68949  22206274.5264   22206278.7434
  20527343.402    -1866604.68849  -1046697.79749  20527344.6114   20527349.1374
  21867490.782      278849.45149    213401.74249  21867491.2424   21867496.6134
  20859985.899    -1463397.52249  -1131119.88249  20859986.9984   20859991.8834
  23552169.023      571912.28249    440425.04149  23552170.0704   23552175.8964
 96  7 11 15 53 59.9990000  0  6 24  5  4  7  9  2
  21544176.771    -3438819.10449  -2654580.80049  21544178.0824   21544183.6824
  22179509.002    -3235742.54549  -2507284.00249  22179510.7574   22179515.3374
  20512089.303    -1946762.86849  -1109158.71149  20512091.2764   20512095.3204
  21868836.347      285923.05349    218913.61649  21868837.7104   21868842.6014
  20848099.056    -1525863.46249  -1179794.65249  20848100.2424   20848104.6894
  23556161.618      592881.92649    456764.98149  23556160.3434   23556166.9974
 96  7 11 15 54 29.9990000  0  6 24  5  4  7  9  2
  21516667.173    -3583383.38349  -2767228.26549  21516668.7754   21516674.1664
  22152703.886    -3376612.72749  -2617052.94449  22152704.0894   22152708.7584
  20496889.842    -2026636.96149  -1171398.25549  20496891.2794   20496896.0274
  21870140.233      292775.67549    224253.30549  21870141.5374   21870146.6854
  20836253.925    -1588110.56949  -1228298.90049  20836255.0804   20836259.3704
  23560128.313      613725.88049    473006.97749  23560126.7344   23560134.6664
 96  7 11 15 54 59.9990000  0  6 24  5  4  7  9  2
  21489169.073    -3727892.14149  -2879832.46449  21489169.5084   21489175.1114
  22125855.936    -3517697.58349  -2726989.16249  22125856.4144   22125861.0484
  20481744.536    -2106226.04149  -1233415.71049  20481746.3784   20481750.5074
  21871404.714      299423.43049    229433.35249  21871406.9944   21871411.5794
  20824452.572    -1650127.68149  -1276623.92949  20824453.7674   20824458.3114
  23564070.176      634452.16749    489157.29449  23564070.4874   23564078.5154
 96  7 11 15 55 29.9990000  0  6 24  5  4  7  9  2
  21461681.710    -3872336.64349  -2992386.59449  21461682.9654   21461688.0784
  22098970.170    -3658980.82249  -2837079.97949  22098971.0814   22098975.4524
  20466653.255    -2185533.00649  -1295213.33849  20466654.8874   20466658.9674
  21872634.239      305875.52949    234460.93949  21872634.5424   21872639.2614
  20812698.289    -1711902.46549  -1324760.13749  20812698.6594   20812703.0414
  23567994.792      655065.68849    505219.74149  23567994.3634   23567999.5744
 96  7 11 15 55 59.9990000  0  6 24  5  4  7  9  2
  21434208.823    -4016707.37849  -3104883.25149  21434210.0444   21434215.7664
  22072051.411    -3800434.21649  -2947303.36249  22072052.9174   22072057.8484
  20451617.065    -2264550.36449  -1356785.29549  20451618.3854   20451622.3344
  21873822.318      312123.92849    239329.79949  21873823.6174   21873828.2984
  20800994.625    -1773400.84549  -1372680.95949  20800995.7764   20801000.2074
  23571897.762      675586.90049    521210.23349  23571898.7894   23571905.3584
 96  7 11 15 56 29.9990000  0  6 24  5  4  7  9  2
  21406751.328    -4160997.51649  -3217317.12149  21406752.9234   21406757.9324
  22045103.906    -3942050.46549  -3057653.66349  22045104.4074   22045108.9664
  20436638.055    -2343263.57249  -1418120.25449  20436639.7624   20436643.3844
  21874976.412      318186.09949    244053.54849  21874976.9114   21874982.4264
  20789347.443    -1834607.41249  -1420374.40349  20789348.3314   20789352.6994
  23575789.442      696034.47249    537143.37749  23575790.0424   23575796.5634
 96  7 11 15 56 59.9990000  0  6 24  5  4  7  9  2
  21379313.393    -4305183.74649  -3329670.01849  21379315.0414   21379320.3954
  22018127.187    -4083812.44649  -3168117.51649  22018127.9434   22018133.0924
  20421721.450    -2421651.39149  -1479201.66449  20421722.9564   20421726.9074
  21876102.322      324100.59649    248662.23749  21876102.8574   21876107.7024
  20777757.564    -1895512.01649  -1467832.54349  20777758.8454   20777763.3074
  23579670.482      716424.65349    553031.78849  23579670.3964   23579676.8814
 96  7 11 15 57 29.9990000  0  6 24  5  4  7  9  2
  21351898.945    -4449243.80049  -3441924.59549  21351900.7874   21351906.3634
  21991128.424    -4225693.40149  -3278674.08149  21991129.0264   21991134.0304
  20406869.860    -2499700.47949  -1540019.12549  20406871.0074   20406875.1314
  21877199.513      329875.01549    253161.76949  21877201.4564   21877207.0794
  20766230.337    -1956088.23749  -1515034.79949  20766231.4824   20766235.8914
  23583539.584      736762.06149    568879.07149  23583540.3124   23583546.9404
 96  7 11 15 57 59.9990000  0  6 24  5  4  7  9  2
  21324511.393    -4593174.97449  -3554078.74349  21324511.7834   21324517.2464
  21964108.063    -4367687.50349  -3389318.80049  21964108.0814   21964113.2894
  20392082.491    -2577407.55349  -1600570.08049  20392083.6224   20392087.8254
  21878273.725      335515.57249    257556.98949  21878275.2164   21878280.0274
  20754767.601    -2016326.00749  -1561973.33049  20754768.4854   20754772.9704
  23587401.034      757049.41449    584687.35849  23587400.5084   23587408.5364
 96  7 11 15 58 29.9990000  0  6 24  5  4  7  9  2
  21297147.707    -4736959.56549  -3666118.68649  21297150.4534   21297155.7834
  21937068.238    -4509779.61649  -3500039.91049  21937069.0834   21937073.7074
  20377361.421    -2654763.82249  -1660847.69049  20377363.1964   20377367.4874
  21879324.842      341037.26949    261859.58149  21879325.3424   21879330.1844
  20743368.396    -2076231.69449  -1608653.09749  20743368.7924   20743373.3564
  23591251.668      777299.32349    600466.46849  23591253.3704   23591260.5144
 96  7 11 15 58 59.9980000  0  6 24  5  4  7  9  2
  21269819.566    -4880568.70149  -3778021.90549  21269822.3514   21269827.9194
  21910016.907    -4651937.25249  -3610812.07049  21910017.6204   21910022.1314
  20362708.796    -2731764.61949  -1720848.29849  20362710.2894   20362714.8034
  21880354.819      346454.60649    266080.86049  21880356.8884   21880361.4304
  20732035.827    -2135784.65949  -1655058.01249  20732036.7664   20732041.1934
  23595101.803      797522.30649    616224.58849  23595103.1994   23595110.0344
 96  7 11 15 59 29.9980000  0  6 24  5  4  7  9  2
  21242530.645    -5023985.27349  -3889775.07049  21242531.8094   21242536.7924
  21882953.211    -4794158.26049  -3721633.61249  21882954.2074   21882958.7704
  20348124.579    -2808401.56449  -1780565.38849  20348126.7434   20348131.0884
  21881368.731      351772.04149    270224.30749  21881368.5624   21881373.4644
  20720773.902    -2194968.18249  -1701175.05249  20720774.4554   20720778.7534
  23598950.406      817745.33849    631982.74549  23598950.3294   23598957.8584
 96  7 11 15 59 59.9980000  0  6 24  5  4  7  9  2
  21215275.663    -5167208.30449  -4001377.42149  21215276.8664   21215282.2204
  21855875.007    -4936462.89049  -3832520.31049  21855874.2924   21855878.9294
  20333612.176    -2884670.08349  -1839995.39749  20333613.2514   20333617.5034
  21882359.314      356983.17549    274284.89949  21882360.4874   21882365.3554
  20709577.882    -2253798.01349  -1747016.49149  20709579.4754   20709583.6834
  23602802.193      837975.81249    647746.70149  23602802.5924   23602808.0304
 96  7 11 16  0 29.9980000  0  6 24  5  4  7  9  2
  21188061.322    -5310218.46849  -4112813.91549  21188063.0224   21188068.3114
  21828777.434    -5078852.53149  -3943473.27049  21828778.6474   21828782.7334
  20319172.082    -2960550.39049  -1899122.90249  20319174.0964   20319178.1024
  21883332.156      362098.20949    278270.61649  21883333.9314   21883338.6964
  20698452.332    -2312264.50749  -1792574.81249  20698453.7444   20698457.8534
  23606652.301      858215.33249    663517.72649  23606652.4624   23606659.8334
 96  7 11 16  0 59.9980000  0  6 24  5  4  7  9  2
  21160888.659    -5453011.13349  -4224080.91849  21160890.3344   21160895.5364
  21801665.556    -5221326.16749  -4054491.67849  21801666.2574   21801671.1994
  20304807.854    -3036036.55049  -1957943.28249  20304809.3414   20304813.4754
  21884288.096      367117.48849    282181.71449  21884288.9284   21884293.8154
  20687398.283    -2370361.31849  -1837845.07349  20687398.4704   20687402.6234
  23610502.810      878456.87149    679290.29749  23610503.8144   23610511.4204
 96  7 11 16  1 29.9980000  0  6 24  5  4  7  9  2
  21133757.154    -5595588.23149  -4335179.94749  21133758.9124   21133764.3874
  21774533.811    -5363901.74749  -4165589.51549  21774535.0284   21774539.8714
  20290520.497    -3111119.06649  -2016449.13349  20290522.0634   20290526.0144
  21885222.069      372025.71749    286006.28149  21885222.7444   21885227.6764
  20676409.645    -2428099.28449  -1882835.70249  20676411.2304   20676415.8294
  23614355.332      898693.15949    695058.79749  23614355.2214   23614361.5024
 96  7 11 16  1 59.9980000  0  6 24  5  4  7  9  2
  21106667.774    -5737942.68249  -4446105.48349  21106669.6154   21106675.0924
  21747390.386    -5506546.72549  -4276741.42749  21747390.5884   21747395.4144
  20276311.599    -3185784.97949  -2074630.35549  20276313.2994   20276317.3394
  21886137.464      376837.56349    289755.75149  21886138.3664   21886144.0424
  20665495.172    -2485458.29649  -1927531.05249  20665496.0914   20665500.5934
  23618201.899      918916.77249    710817.40049  23618203.5904   23618210.5524
 96  7 11 16  2 29.9980000  0  6 24  5  4  7  9  2
  21079623.861    -5880061.49549  -4556847.41749  21079625.5424   21079630.7094
  21720239.885    -5649224.90349  -4387919.21049  21720239.8454   21720245.0454
  20262184.468    -3260023.85949  -2132478.82649  20262186.0844   20262190.0064
  21887039.603      381576.39049    293448.29849  21887040.2074   21887045.7554
  20654654.483    -2542426.62049  -1971921.96749  20654655.3704   20654659.6994
  23622050.439      939125.77449    726564.62349  23622049.7884   23622056.6294
 96  7 11 16  2 59.9980000  0  6 24  5  4  7  9  2
  21052624.133    -6021947.01449  -4667407.55149  21052625.2034   21052630.6834
  21693084.509    -5791921.45949  -4499111.31549  21693085.6304   21693090.8034
  20248140.114    -3333828.11149  -2189988.62349  20248141.4804   20248145.4284
  21887929.071      386254.57249    297093.61149  21887930.6694   21887935.7414
  20643888.274    -2599002.48349  -2016007.06449  20643889.3454   20643893.7304
  23625895.559      959337.49249    742313.94949  23625895.6924   23625901.2744
 96  7 11 16  3 29.9980000  0  6 24  5  4  7  9  2
  21025667.979    -6163600.53549  -4777786.91249  21025669.7704   21025674.7974
  21665925.745    -5934642.14549  -4610322.22949  21665926.7264   21665931.8624
  20234178.310    -3407196.20949  -2247158.56749  20234180.2294   20234184.2544
  21888807.892      390876.63049    300695.18449  21888809.9594   21888815.1824
  20633197.603    -2655183.07049  -2059784.16149  20633198.3774   20633202.7704
  23629742.891      979554.41449    758067.33749  23629742.3314   23629748.7424
 96  7 11 16  3 59.9980000  0  6 24  5  4  7  9  2
  20998756.071    -6305024.60949  -4887987.48049  20998757.3304   20998762.6804
  21638768.070    -6077361.57049  -4721532.15149  21638768.2464   21638772.7084
  20220300.893    -3480122.86249  -2303984.52949  20220302.3654   20220306.7744
  21889679.695      395460.54149    304267.03449  21889682.6644   21889687.6274
  20622581.243    -2710968.06349  -2103252.99949  20622582.9494   20622587.3494
  23633590.361      999780.44849    773827.82949  23633592.1054   23633598.8494
 96  7 11 16  4 29.9980000  0  6 24  5  4  7  9  2
  20971890.179    -6446206.14549  -4997999.06549  20971891.7734   20971896.9724
  21611606.422    -6220091.95449  -4832750.61549  21611607.4394   21611612.1404
  20206510.243    -3552597.33849  -2360458.14049  20206511.2494   20206515.6194
  21890547.812      400010.60149    307812.50149  21890548.9954   21890553.6904
  20612041.768    -2766362.98949  -2146417.89049  20612041.6404   20612046.1214
  23637448.233     1020044.05349    789617.61349  23637448.0364   23637454.5044
 96  7 11 16  4 59.9980000  0  6 24  5  4  7  9  2
  20945072.632    -6587136.05849  -5107814.58749  20945073.4194   20945079.0684
  21584443.787    -6362836.07249  -4943979.77649  21584444.4124   21584448.9974
  20192805.734    -3624613.34549  -2416574.50849  20192807.0664   20192811.1234
  21891400.629      404500.24449    311310.90049  21891402.9394   21891408.1614
  20601575.908    -2821357.75849  -2189270.96549  20601576.4464   20601580.8794
  23641313.448     1040365.63149    805452.56249  23641315.5984   23641321.6054
 96  7 11 16  5 29.9980000  0  6 24  5  4  7  9  2
  20918306.864    -6727789.21749  -5217414.44749  20918307.9924   20918313.6264
  21557281.167    -6505577.31449  -5055206.70349  21557281.7054   21557285.5064
  20179186.897    -3696179.79849  -2472340.56849  20179188.3044   20179192.8274
  21892241.453      408914.42749    314750.49249  21892242.7084   21892247.8604
  20591187.893    -2875947.12549  -2231808.14849  20591188.7534   20591192.9124
  23645191.202     1060744.86549    821332.40749  23645193.4054   23645199.8944
 96  7 11 16  5 59.9980000  0  6 24  5  4  7  9  2
  20891596.398    -6868151.92849  -5326787.96449  20891598.1384   20891603.8414
  21530121.867    -6648298.48049  -5166417.97549  21530122.1574   21530126.9834
  20165653.309    -3767297.55549  -2527756.99649  20165655.2884   20165659.3574
  21893066.133      413250.98649    318129.61249  21893068.1394   21893072.7814
  20580878.962    -2930117.60749  -2274018.92549  20580880.3294   20580884.8944
  23649082.194     1081195.47549    837267.90349  23649085.1704   23649092.6454
 96  7 11 16  6 29.9980000  0  6 24  5  4  7  9  2
  20864946.132    -7008200.96149  -5435917.07349  20864947.5694   20864953.2694
  21502964.559    -6791006.95549  -5277619.37449  21502965.8894   21502970.2144
  20152204.605    -3837972.60149  -2582828.45649  20152206.2564   20152210.5684
  21893876.401      417501.06449    321441.35149  21893876.4354   21893881.6714
  20570657.290    -2983837.39349  -2315878.51449  20570657.8974   20570662.1864
  23652993.765     1101734.70749    853272.47449  23652994.2084   23652999.1914
 96  7 11 16  6 59.9980000  0  6 24  5  4  7  9  2
  20838355.310    -7147937.35649  -5544802.55849  20838356.7714   20838361.7734
  21475815.299    -6933681.18849  -5388794.08149  21475816.1014   21475820.0514
  20138838.234    -3908209.22149  -2637558.28149  20138840.6954   20138844.7374
  21894671.104      421678.70149    324696.63549  21894671.3844   21894676.6224
  20560523.190    -3037089.50149  -2357373.67749  20560524.2354   20560528.7094
  23656916.162     1122351.02449    869337.11049  23656916.8134   23656923.4844
 96  7 11 16  7 29.9980000  0  6 24  5  4  7  9  2
  20811825.183    -7287350.68249  -5653436.29649  20811827.0084   20811832.5244
  21448676.656    -7076299.16649  -5499924.95449  21448677.4274   21448681.0164
  20125559.262    -3977995.17849  -2691936.95149  20125560.9804   20125565.0024
  21895460.944      425830.82249    327932.03849  21895461.2734   21895466.9364
  20550482.759    -3089853.70949  -2398488.65949  20550483.6854   20550488.2954
  23660849.612     1143049.24549    885465.53649  23660856.2694   23660861.9964
 96  7 11 16  7 59.9980000  0  6 24  5  4  7  9  2
  20785355.918    -7426455.34249  -5761829.51349  20785356.4314   20785361.8584
  21421545.033    -7218876.27949  -5611023.99349  21421545.1624   21421549.6924
  20112367.753    -4047314.82449  -2745952.25149  20112369.7944   20112373.9564
  21896248.582      429971.65949    331158.64449  21896249.7564   21896255.2254
  20540533.237    -3142134.68849  -2439227.09649  20540534.8264   20540539.3124
  23664807.791     1163826.17749    901655.28449  23664808.5134   23664815.7074
 96  7 11 16  8 29.9980000  0  6 24  5  4  7  9  2
  20758942.366    -7565247.25649  -5869979.04149  20758945.0284   20758950.8904
  21394421.626    -7361407.86649  -5722087.55349  21394422.3364   21394426.8204
  20099269.648    -4116147.43649  -2799588.04949  20099271.1844   20099275.2624
  21897035.924      434111.10349    334384.16649  21897037.2914   21897042.9104
  20530675.740    -3193937.95949  -2479593.29249  20530676.9874   20530681.5514
  23668769.874     1184667.52449    917895.24049  23668775.3104   23668783.0934
 96  7 11 16  8 59.9980000  0  6 24  5  4  7  9  2
  20732593.557    -7703719.96649  -5977879.83349  20732594.7554   20732600.4614
  21367309.242    -7503881.46249  -5833105.92149  21367310.3214   21367315.4464
  20086267.636    -4184470.40649  -2852826.72049  20086270.0514   20086273.7224
  21897825.435      438256.59049    337614.40549  21897826.2494   21897831.8424
  20520905.479    -3245279.78749  -2519599.92849  20520906.9854   20520911.4484
  23672752.801     1205571.56049    934184.06949  23672752.1714   23672759.7324
 96  7 11 16  9 29.9980000  0  6 24  5  4  7  9  2
  20706306.417    -7841858.91349  -6085520.55349  20706307.7444   20706313.3304
  21340206.609    -7646308.52549  -5944088.03049  21340207.6564   21340212.2724
  20073366.595    -4252269.17449  -2905656.92749  20073368.3724   20073372.3234
  21898613.114      442397.84349    340841.34149  21898614.6864   21898619.2604
  20511223.062    -3296168.31449  -2559253.34049  20511223.3374   20511227.6614
  23676744.620     1226546.57449    950528.19349  23676744.1454   23676752.6704
 96  7 11 16  9 59.9980000  0  6 24  5  4  7  9  2
  20680084.213    -7979652.45449  -6192892.13049  20680086.6174   20680092.0674
  21313111.161    -7788702.07149  -6055044.01949  21313111.0414   21313115.3774
  20060565.108    -4319542.35349  -2958077.57249  20060566.8244   20060570.6414
  21899397.235      446524.15849    344056.62649  21899399.7304   21899405.3264
  20501621.944    -3346616.45549  -2598563.58649  20501623.3534   20501627.8954
  23680748.889     1247598.85649    966932.50849  23680749.6634   23680756.7544
 96  7 11 16 10 29.9970000  0  6 24  5  4  7  9  2
  20653931.113    -8117091.95049  -6299987.82549  20653932.9754   20653937.8264
  21286024.377    -7931038.42249  -6165955.43649  21286025.6184   21286029.8074
  20047863.035    -4386292.18649  -3010090.42549  20047864.5504   20047868.6654
  21900179.706      450633.24449    347258.49449  21900182.0424   21900187.3574
  20492105.319    -3396627.97049  -2637533.60849  20492106.4434   20492111.1474
  23684775.317     1268740.29949    983406.30149  23684774.5014   23684780.7344
 96  7 11 16 10 59.9970000  0  6 24  5  4  7  9  2
  20627843.003    -8254189.86249  -6406817.34849  20627844.2384   20627849.0274
  21258948.316    -8073324.72449  -6276827.85449  21258949.2464   21258953.6584
  20035258.208    -4452532.37149  -3061706.14749  20035259.4434   20035263.4614
  21900959.005      454730.46249    350451.09149  21900960.9264   21900966.3954
  20482670.738    -3446208.08649  -2676167.47549  20482671.9814   20482676.2124
  23688819.199     1289996.42549    999969.44649  23688817.7564   23688827.3004
 96  7 11 16 11 29.9970000  0  6 24  5  4  7  9  2
  20601817.358    -8390946.15849  -6513380.67449  20601819.6714   20601824.9464
  21231883.383    -8215548.67749  -6387651.68949  21231884.6754   21231889.3754
  20022748.106    -4518273.57249  -3112933.05549  20022749.4034   20022753.5874
  21901739.010      458821.91149    353639.20449  21901739.7374   21901744.7294
  20473318.938    -3495355.46349  -2714464.14749  20473319.5694   20473323.8304
  23692884.197     1311362.62749   1016618.38649  23692884.4334   23692891.2064
 96  7 11 16 11 59.9970000  0  6 24  5  4  7  9  2
  20575858.129    -8527364.17349  -6619680.41049  20575860.4924   20575865.7254
  21204835.466    -8357687.85449  -6498409.46349  21204836.5364   21204841.2404
  20010328.766    -4583531.97049  -3163783.75149  20010330.8554   20010334.9594
  21902513.909      462899.10949    356816.21549  21902515.5544   21902521.2064
  20464047.970    -3544069.69249  -2752423.29649  20464049.2384   20464053.8464
  23696968.825     1332830.67149   1033346.68449  23696970.6714   23696977.9614
 96  7 11 16 12 29.9970000  0  6 24  5  4  7  9  2
  20549964.096    -8663445.20049  -6725717.56049  20549965.4994   20549970.7204
  21177806.807    -8499726.49649  -6609088.90649  21177807.5014   21177811.9824
  19998002.209    -4648308.91449  -3214259.28649  19998004.4674   19998008.6494
  21903284.883      466952.78249    359974.88249  21903286.7774   21903292.1584
  20454861.910    -3592340.38449  -2790036.83149  20454863.8644   20454868.2724
  23701071.058     1354383.49849   1050141.03249  23701070.9504   23701076.8024
 96  7 11 16 12 59.9970000  0  6 24  5  4  7  9  2
  20524136.076    -8799171.23249  -6831478.08249  20524137.4644   20524142.3074
  21150794.292    -8641676.02949  -6719698.90549  21150795.7434   21150799.5714
  19985764.105    -4712621.35749  -3264372.87349  19985765.9084   19985770.1394
  21904052.339      470982.28849    363114.74549  21904053.9884   21904059.8414
  20445765.364    -3640146.66349  -2827288.48749  20445766.9054   20445770.9014
  23705185.020     1376004.80649   1066988.79249  23705184.2254   23705191.7454
 96  7 11 16 13 29.9970000  0  6 24  5  4  7  9  2
  20498380.934    -8934513.76049  -6936939.77349  20498382.6444   20498388.0124
  21123801.600    -8783520.41449  -6830226.97449  21123803.4054   21123807.3764
  19973616.823    -4776457.13249  -3314115.03049  19973618.2364   19973622.6024
  21904819.269      475003.73249    366248.29849  21904819.3614   21904825.4714
  20436759.513    -3687472.87149  -2864166.06149  20436761.0034   20436765.2594
  23709310.190     1397688.53749   1083885.19949  23709310.9604   23709317.8794
 96  7 11 16 13 59.9970000  0  6 24  5  4  7  9  2
  20472699.734    -9069470.54749  -7042100.88349  20472701.2934   20472706.1104
  21096831.074    -8925260.01049  -6940673.38949  21096831.5274   21096835.6754
  19961562.932    -4839799.89749  -3363473.02349  19961564.7834   19961569.0824
  21905581.731      479022.05349    369379.42749  21905584.4314   21905589.6544
  20427847.263    -3734307.02749  -2900660.21949  20427848.6954   20427852.9104
  23713450.989     1419442.45949   1100836.31349  23713451.9674   23713458.9274
 96  7 11 16 14 29.9970000  0  5 24  5  4  7  9
  20447093.331    -9204033.49449  -7146955.10649  20447094.9324   20447100.0954
  21069875.121    -9066906.69149  -7051047.40449  21069876.7364   21069880.7414
  19949607.190    -4902629.26149  -3412430.96449  19949608.8884   19949613.0674
  21906351.461      483062.31249    372527.63949  21906352.7544   21906358.2664
  20419032.215    -3780626.95649  -2936753.68049  20419034.0594   20419038.5244
 96  7 11 16 14 59.9970000  0  5 24  5  4  7  9
  20421561.139    -9338204.11849  -7251503.62249  20421562.9404   20421568.0854
  21042940.230    -9208454.71949  -7161344.55249  21042941.3674   21042945.0384
  19937748.972    -4964941.35849  -3460985.84049  19937751.3814   19937755.1424
  21907124.837      487130.93649    375697.96449  21907127.0764   21907133.6154
  20410314.951    -3826439.34549  -2972451.65249  20410316.4604   20410320.6604
 96  7 11 16 15 29.9970000  0  5 24  5  4  7  9
  20396101.965    -9471995.18749  -7355756.38749  20396103.0854   20396108.5014
  21016024.833    -9349893.69449  -7271556.71949  21016026.5384   21016030.3354
  19925995.104    -5026711.62849  -3509118.51349  19925996.7674   19926000.6754
  21907903.148      491220.43349    378884.55249  21907904.9634   21907911.4664
  20401691.779    -3871757.69749  -3007764.66649  20401692.7724   20401697.1184
 96  7 11 16 15 59.9970000  0  5 24  5  4  7  9
  20370707.659    -9605435.21349  -7459735.60649  20370710.5994   20370715.6674
  20989126.958    -9491245.08649  -7381700.63849  20989128.1444   20989132.5404
  19914340.552    -5087957.60049  -3556842.64049  19914342.1114   19914346.1374
  21908678.667      495298.29549    382062.06949  21908681.6424   21908686.6894
  20393159.643    -3916594.69649  -3042702.60049  20393160.9364   20393164.9984
 96  7 11 16 16 29.9970000  0  5 24  5  4  7  9
  20345383.917    -9738512.08649  -7563431.85549  20345386.4564   20345391.9614
  20962246.366    -9632500.38349  -7491769.68049  20962247.9044   20962252.0454
  19902783.581    -5148685.20449  -3604162.84649  19902785.7644   19902789.9564
  21909454.328      499360.44849    385227.34349  21909453.9664   21909460.3044
  20384716.968    -3960956.62049  -3077270.33849  20384718.7364   20384723.1264
 96  7 11 16 16 59.9970000  0  5 24  5  4  7  9
  20320131.660    -9871216.14249  -7666837.59749  20320133.9064   20320139.0934
  20935387.970    -9773641.55849  -7601749.80049  20935389.3714   20935394.0334
  19891325.802    -5208898.40349  -3651082.21449  19891327.7954   19891331.6834
  21910221.801      503400.71749    388375.56749  21910224.8974   21910228.6464
  20376361.641    -4004863.20049  -3111483.26349  20376363.2874   20376367.6604
 96  7 11 16 17 29.9970000  0  5 24  5  4  7  9
  20294949.355   -10003552.67549  -7769956.94849  20294951.2414   20294956.3394
  20908548.526    -9914685.53549  -7711654.17749  20908549.9494   20908554.1544
  19879962.989    -5268610.78149  -3697611.32849  19879965.0074   19879969.0594
  21910985.711      507411.97249    391501.18849  21910986.9784   21910992.3854
  20368091.715    -4048325.07749  -3145349.66849  20368093.0784   20368097.2874
 96  7 11 16 17 59.9970000  0  6 20 24  5  4  7  9
  23733907.382    -3654291.18119  -2818585.53519  23733907.743    23733913.740
  20269820.715   -10135607.43749  -7872856.74349  20269822.1624   20269827.2424
  20881709.831   -10055727.87949  -7821557.29549  20881710.3194   20881714.6854
  19868674.994    -5327931.18649  -3743835.01049  19868676.9124   19868680.1584
  21911725.480      511303.08749    394533.18949  21911726.5064   21911733.2624
  20359886.041    -4091446.25049  -3178950.59249  20359887.2034   20359891.7534
 96  7 11 16 18 29.9970000  0  6 20 24  5  4  7  9
  23701633.799    -3823900.022 9  -2950750.917 9  23701635.243    23701640.456
  20244776.876   -10267209.31049  -7975403.64549  20244779.1014   20244784.2654
  20854901.393   -10196603.26549  -7931330.29849  20854902.6644   20854906.8664
  19857489.231    -5386714.90449  -3789640.50249  19857490.7514   19857494.7284
  21912477.106      515244.41849    397604.32249  21912477.0434   21912482.6774
  20351774.155    -4134077.03149  -3212169.40049  20351775.1594   20351779.5374
 96  7 11 16 18 59.9970000  0  6 20 24  5  4  7  9
  23669370.555    -3993468.018 9  -3082884.501 9  23669369.167    23669375.238
  20219836.697   -10398272.90749  -8077531.10949  20219838.4464   20219843.3104
  20828140.906   -10337230.05449  -8040909.60449  20828142.5334   20828146.7604
  19846420.423    -5444878.18949  -3834962.53849  19846422.3674   19846426.2824
  21913252.634      519326.31949    400784.99649  21913255.2934   21913259.3944
  20343771.893    -4176127.15749  -3244935.74549  20343773.1374   20343777.4664
 96  7 11 16 19 29.9970000  0  6 20 24  5  4  7  9
  23637086.901    -4163116.968 9  -3215081.138 9  23637088.189    23637093.850
  20194974.232   -10528928.20449  -8179340.41849  20194975.4934   20194980.9314
  20801401.743   -10477741.03749  -8150398.67549  20801403.7644   20801407.7814
  19835448.612    -5502533.86449  -3879889.03649  19835450.9544   19835454.8454
  21914031.940      523421.91949    403976.32749  21914033.9224   21914039.2344
  20335859.494    -4217705.60749  -3277334.55149  20335861.3214   20335865.4834
 96  7 11 16 19 59.9970000  0  6 20 24  5  4  7  9
  23604804.279    -4332786.458 9  -3347293.803 9  23604803.646    23604809.789
  20170198.086   -10659122.97649  -8280790.87749  20170200.4954   20170205.4584
  20774700.298   -10618066.20949  -8259742.95749  20774700.2824   20774705.0204
  19824585.586    -5559623.33549  -3924374.33949  19824587.0614   19824591.2674
  21914824.040      527580.95949    407217.11149  21914824.9064   21914830.2084
  20328049.842    -4258747.34749  -3309315.13849  20328050.9344   20328055.5714
 96  7 11 16 20 29.9970000  0  6 20 24  5  4  7  9
  23572520.469    -4502440.481 9  -3479494.416 9  23572522.000    23572528.149
  20145514.766   -10788835.99349  -8381865.94249  20145516.7474   20145521.9344
  20748037.925   -10758174.93649  -8368918.57649  20748038.9684   20748043.5834
  19813834.147    -5616119.59849  -3968397.39849  19813836.1694   19813840.2944
  21915630.860      531825.52649    410524.54349  21915632.8654   21915637.9714
  20320350.248    -4299213.49749  -3340847.21249  20320350.9214   20320355.1314
 96  7 11 16 20 59.9970000  0  6 20 24  5  4  7  9
  23540238.060    -4672099.714 9  -3611699.095 9  23540239.006    23540245.105
  20120918.460   -10918089.58649  -8482583.01449  20120920.4924   20120925.8224
  20721413.553   -10898084.91449  -8477939.33449  20721415.2094   20721419.9394
  19803195.883    -5672021.74949  -4011957.51849  19803197.9984   19803202.4554
  21916449.582      536129.43449    413878.18849  21916452.0404   21916457.2104
  20312755.859    -4339118.75249  -3371942.22949  20312757.0284   20312761.2264
 96  7 11 16 21 29.9970000  0  6 20 24  5  4  7  9
  23507952.801    -4841778.269 9  -3743918.829 9  23507952.845    23507958.729
  20096407.375   -11046890.24849  -8582947.15249  20096410.5064   20096415.9884
  20694826.845   -11037801.08149  -8586809.05949  20694828.1244   20694832.6614
  19792667.820    -5727350.80349  -4055071.07149  19792669.7844   19792673.6404
  21917277.916      540478.91549    417267.35149  21917279.5154   21917285.3694
  20305266.702    -4378475.09849  -3402609.52549  20305267.8884   20305272.4774
 96  7 11 16 21 59.9960000  0  6 20 24  5  4  7  9
  23475661.288    -5011477.457 9  -3876154.638 9  23475662.687    23475668.875
  20071987.586   -11175222.60349  -8682946.37849  20071989.5564   20071995.1044
  20668277.713   -11177317.87949  -8695523.43449  20668278.9104   20668283.2694
  19782241.996    -5782138.33649  -4097762.65449  19782244.2334   19782247.9814
  21918114.582      544878.35849    420695.46549  21918116.3914   21918121.2374
  20297879.485    -4417293.72749  -3432857.82049  20297880.7254   20297885.4384
 96  7 11 16 22 29.9960000  0  6 20 24  5  4  7  9
  23443362.497    -5181212.560 9  -4008418.433 9  23443365.136    23443371.400
  20047656.369   -11303082.57149  -8782577.51149  20047658.5784   20047663.8484
  20641762.367   -11316659.68749  -8804101.45849  20641763.1584   20641767.2444
  19771918.540    -5836389.57649  -4140036.35149  19771920.4544   19771924.0564
  21918962.168      549329.05049    424163.52549  21918963.7194   21918969.5834
  20290593.384    -4455587.31449  -3462696.99649  20290593.9874   20290598.0484
 96  7 11 16 22 59.9960000  0  6 20 24  5  4  7  9
  23411046.447    -5351046.502 9  -4140759.237 9  23411049.671    23411055.727
  20023402.628   -11430538.48849  -8881893.80549  20023404.4694   20023409.8924
  20615265.413   -11455895.83049  -8912597.14649  20615267.0934   20615271.5534
  19761683.221    -5890173.73149  -4181946.08749  19761685.6104   19761689.3124
  21919805.628      553759.60549    427615.87349  21919806.2464   21919810.8964
  20283391.885    -4493429.68049  -3492184.57249  20283392.7224   20283396.8764
 96  7 11 16 23 29.9960000  0  6 20 24  5  4  7  9
  23378716.811    -5520963.499 9  -4273164.750 9  23378717.341    23378723.776
  19999224.053   -11557597.76949  -8980901.02649  19999226.1394   19999231.3904
  20588791.669   -11595018.85549  -9021004.68549  20588792.8754   20588797.2934
  19751536.487    -5943500.44149  -4223499.37349  19751537.9164   19751541.6554
  21920645.938      558169.00749    431051.72749  21920645.5234   21920651.0164
  20276275.610    -4530822.30649  -3521321.69549  20276277.3434   20276281.3014
 96  7 11 16 23 59.9960000  0  6 20 24  5  4  7  9
  23346372.782    -5690951.279 9  -4405625.412 9  23346372.337    23346378.465
  19975121.836   -11684259.67149  -9079598.60849  19975123.3224   19975128.1164
  20562341.315   -11734017.29949  -9129315.16449  20562342.4234   20562346.7454
  19741480.354    -5996339.31549  -4264672.53049  19741482.8354   19741486.7214
  21921480.756      562558.58049    434472.14249  21921482.0944   21921487.6334
  20269247.469    -4567756.88949  -3550101.90849  20269248.8274   20269253.1574
 96  7 11 16 24 29.9960000  0  6 20 24  5  4  7  9
  23314020.564    -5860968.88519  -4538109.33819  23314021.971    23314027.874
  19951097.949   -11810503.63049  -9177970.51249  19951099.9714   19951104.8514
  20535921.326   -11872851.33349  -9237497.52049  20535923.1054   20535927.6514
  19731529.279    -6048636.03549  -4305423.22549  19731531.1354   19731535.3764
  21922312.966      566941.54249    437887.40549  21922315.6424   21922319.8714
  20262311.458    -4604204.93049  -3578502.99649  20262313.0124   20262317.3934
 96  7 11 16 24 59.9960000  0  6 20 24  5  4  7  9
  23281661.823    -6031030.34919  -4670627.42419  23281661.727    23281667.894
  19927152.321   -11936341.74349  -9276026.17249  19927153.8884   19927158.4834
  20509531.503   -12011532.45449  -9345560.72349  20509533.2234   20509537.5064
  19721677.597    -6100409.56649  -4345766.24249  19721679.1284   19721682.8754
  21923143.680      571307.30449    441289.27949  21923146.4584   21923152.6284
  20255463.679    -4640189.53049  -3606542.95349  20255465.2634   20255469.6594
 96  7 11 16 25 29.9960000  0  6 20 24  5  4  7  9
  23249291.243    -6201128.55019  -4803174.12819  23249295.296    23249301.380
  19903289.071   -12061745.39449  -9373743.28549  19903290.4574   19903295.1214
  20483175.459   -12150037.10349  -9453486.41349  20483176.6774   20483180.7554
  19711926.319    -6151647.74349  -4385692.09549  19711929.1204   19711932.6464
  21923973.210      575668.58449    444687.67449  21923976.1564   21923981.5434
  20248704.838    -4675706.18949  -3634218.28849  20248706.8054   20248710.7004
 96  7 11 16 25 59.9960000  0  6 20 24  5  4  7  9
  23216917.153    -6371280.32819  -4935762.37119  23216920.138    23216925.892
  19879507.227   -12186710.55349  -9471118.71849  19879510.1024   19879515.0084
  20456848.649   -12288383.13849  -9561288.51149  20456850.3354   20456854.5564
  19702276.628    -6202365.41149  -4425212.36449  19702277.6694   19702281.1734
  21924801.463      580012.50649    448072.49949  21924802.9024   21924808.4974
  20242032.145    -4710770.74649  -3661541.34049  20242034.3074   20242038.3084
 96  7 11 16 26 29.9960000  0  5 24  5  4  7  9
  19855812.400   -12311233.32149  -9568149.42849  19855813.7624   19855818.9684
  20430551.962   -12426571.77749  -9668967.95949  20430553.7394   20430558.1664
  19692718.814    -6252586.14449  -4464345.40549  19692720.9964   19692724.5714
  21925624.596      584343.55649    451447.31849  21925627.2774   21925632.4814
  20235444.302    -4745396.91049  -3688522.78549  20235445.1204   20235449.0804
 96  7 11 16 26 59.9960000  0  5 24  5  4  7  9
  19832210.199   -12435259.59649  -9664793.26449  19832212.7064   19832217.9664
  20404295.320   -12564550.73949  -9776484.02149  20404297.1424   20404301.3714
  19683263.779    -6302269.74349  -4503059.90649  19683266.3124   19683270.1834
  21926461.554      588722.93549    454859.81049  21926461.6764   21926465.2154
  20228947.959    -4779527.13849  -3715117.78849  20228950.1554   20228954.4894
 96  7 11 16 27 29.9960000  0  5 24  5  4  7  9
  19808690.050   -12558860.01849  -9761105.27449  19808692.5624   19808697.4574
  20378070.259   -12702368.15049  -9883874.20149  20378071.5004   20378075.6804
  19673900.770    -6351478.69649  -4541404.54349  19673902.2834   19673906.1824
  21927287.198      593085.11549    458258.86549  21927289.9704   21927297.1784
  20222540.571    -4813205.09349  -3741360.37449  20222541.7874   20222545.9754
 96  7 11 16 27 59.9960000  0  5 24  5  4  7  9
  19785252.483   -12682030.33449  -9857082.14049  19785253.8344   19785258.9314
  20351874.283   -12840027.50549  -9991141.22249  20351875.8494   20351879.8384
  19664626.947    -6400206.97949  -4579374.64149  19664629.6694   19664633.3374
  21928117.811      597443.03749    461654.61549  21928119.5884   21928125.5424
  20216218.682    -4846424.83849  -3767245.91149  20216219.8254   20216224.3704
 96  7 11 16 28 29.9960000  0  5 24  5  4  7  9
  19761903.389   -12804728.36349  -9952690.97949  19761905.1564   19761910.2974
  20325716.896   -12977486.22749 -10098251.89549  20325717.9914   20325722.4734
  19655455.144    -6448409.18549  -4616934.80449  19655456.9284   19655460.8884
  21928954.450      601844.10349    465083.94449  21928957.6284   21928963.4924
  20209992.364    -4879142.38749  -3792740.12449  20209994.4604   20209998.6744
 96  7 11 16 28 59.9960000  0  5 24  5  4  7  9
  19738631.258   -12927023.49149 -10047985.86749  19738632.8504   19738638.0434
  20299582.841   -13114823.67749 -10205268.06749  20299584.0734   20299588.1324
  19646370.377    -6496150.83649  -4654136.09049  19646371.7854   19646375.9164
  21929786.093      606211.44449    468487.03949  21929786.0914   21929793.8044
  20203849.427    -4911423.08749  -3817893.93049  20203851.4154   20203855.5584
 96  7 11 16 29 29.9960000  0  5 24  5  4  7  9
  19715450.473   -13048836.33949 -10142904.95749  19715452.7754   19715457.8814
  20273482.535   -13251973.89149 -10312138.35049  20273485.0504   20273489.1804
  19637389.620    -6543350.47949  -4690915.03749  19637390.1414   19637394.2714
  21930623.881      610615.43449    471918.69349  21930627.0044   21930630.8774
  20197803.154    -4943204.96149  -3842659.03649  20197803.7244   20197808.1664
 96  7 11 16 29 59.9960000  0  5 24  5  4  7  9
  19692359.132   -13170180.76049 -10237459.03849  19692361.8614   19692366.5294
  20247417.565   -13388953.93649 -10418876.03549  20247418.3254   20247422.7964
  19628509.285    -6590011.32949  -4727274.14449  19628511.0954   19628514.8224
  21931466.115      615038.86049    475365.47449  21931468.7164   21931474.9324
  20191843.097    -4974516.03349  -3867057.28849  20191845.5144   20191849.6314
 96  7 11 16 30 29.9960000  0  5 24  5  4  7  9
  19669359.260   -13291054.59049 -10331646.42349  19669360.4734   19669365.2184
  20221386.570   -13525745.44649 -10525466.81249  20221387.9384   20221391.9954
  19619733.411    -6636127.48849  -4763208.81749  19619735.4414   19619738.9804
  21932311.632      619481.85649    478827.47649  21932313.6194   21932319.9274
  20185976.464    -5005349.49749  -3891083.37949  20185978.0534   20185982.2834
 96  7 11 16 30 59.9960000  0  5 24  5  4  7  9
  19646450.176   -13411433.64349 -10425448.26849  19646452.8494   19646458.0864
  20195398.148   -13662315.02349 -10631884.65749  20195399.4484   20195403.9014
  19611064.245    -6681682.93849  -4798706.57149  19611066.3764   19611070.3274
  21933165.622      623963.43749    482319.58049  21933167.0194   21933171.4374
  20180202.877    -5035688.03649  -3914723.81949  20180204.8244   20180209.3554
 96  7 11 16 31 29.9960000  0  5 24  5  4  7  9
  19623634.072   -13531335.75549 -10518878.47049  19623636.3844   19623641.3114
  20169453.602   -13798655.14349 -10738123.70949  20169454.5964   20169459.1194
  19602500.100    -6726687.36049  -4833774.96449  19602502.1834   19602506.2344
  21934024.263      628484.30049    485842.32549  21934027.4734   21934032.4954
  20174522.215    -5065541.18049  -3937986.03349  20174523.7104   20174528.0534
 96  7 11 16 31 59.9960000  0  5 24  5  4  7  9
  19600891.444   -13650849.48749 -10612006.03849  19600893.5344   19600898.6334
  20143539.558   -13934830.92149 -10844234.69349  20143541.3204   20143545.9614
  19594022.001    -6771237.54449  -4868489.39649  19594024.8884   19594028.7954
  21934877.511      632965.03249    489333.73349  21934879.5064   21934886.1044
  20168918.424    -5094988.35149  -3960931.89749  20168920.2424   20168924.9344
 96  7 11 16 32 29.9960000  0  5 24  5  4  7  9
  19578233.035   -13769921.00049 -10704789.02149  19578235.0284   19578240.2734
  20117668.666   -14070786.90949 -10950174.40849  20117669.7374   20117674.1824
  19585637.876    -6815299.29349  -4902823.23349  19585640.1344   19585643.9684
  21935734.223      637459.16749    492835.61349  21935735.3254   21935740.6764
  20163404.527    -5123967.76449  -3983513.27949  20163405.4014   20163409.9344
 96  7 11 16 32 59.9950000  0  5 24  5  4  7  9
  19555667.419   -13888504.10549 -10797191.42849  19555669.3644   19555674.4404
  20091847.799   -14206470.88849 -11055902.17049  20091849.8684   20091854.3904
  19577355.994    -6858822.28349  -4936737.25349  19577357.9764   19577361.8804
  21936599.625      642012.10049    496383.31049  21936600.5554   21936606.2164
  20157986.735    -5152433.23849  -4005694.18149  20157988.9744   20157992.9554
 96  7 11 16 33 29.9950000  0  5 24  5  4  7  9
  19533187.800   -14006634.10049 -10889240.75949  19533189.9714   19533194.9294
  20066075.581   -14341911.66449 -11161440.42849  20066076.5074   20066080.7994
  19569173.682    -6901821.63849  -4970243.24949  19569175.7764   19569179.4524
  21937470.768      646592.81949    499952.67149  21937472.7134   21937478.2244
  20152664.698    -5180406.27149  -4027491.37049  20152665.7844   20152670.2564
 96  7 11 16 33 59.9950000  0  5 24  5  4  7  9
  19510800.801   -14124278.94149 -10980912.04649  19510803.0684   19510807.5994
  20040350.677   -14477096.94249 -11266779.59249  20040351.6914   20040355.9314
  19561094.161    -6944276.94049  -5003325.30449  19561096.6874   19561100.3584
  21938350.442      651205.41249    503546.83449  21938351.4314   21938355.5024
  20147437.753    -5207867.44349  -4048889.69249  20147440.0824   20147444.5034
 96  7 11 16 34 29.9950000  0  5 24  5  4  7  9
  19488505.874   -14241441.33949 -11072207.40149  19488507.7554   19488512.6074
  20014668.593   -14612051.74249 -11371939.16549  20014670.4234   20014674.8764
  19553116.779    -6986198.44349  -5035991.41049  19553119.1644   19553122.9804
  21939230.439      655829.63549    507150.10549  21939230.9144   21939236.5304
  20142307.772    -5234836.38749  -4069904.46449  20142308.3544   20142312.4694
 96  7 11 16 34 59.9950000  0  5 24  5  4  7  9
  19466306.536   -14358099.23849 -11163109.65149  19466308.8064   19466313.5244
  19989031.965   -14746772.95049 -11476916.72449  19989033.8554   19989038.4754
  19545243.406    -7027575.16649  -5068233.01749  19545245.4724   19545249.3584
  21940114.717      660480.92449    510774.44749  21940115.7734   21940121.9874
  20137266.027    -5261324.90449  -4090544.88449  20137267.6624   20137271.8914
 96  7 11 16 35 29.9950000  0  5 24  5  4  7  9
  19444207.242   -14474231.53249 -11253602.33049  19444209.2204   19444214.1844
  19963440.999   -14881261.38849 -11581712.89949  19963441.7394   19963446.0274
  19537471.821    -7068414.92049  -5100056.20449  19537473.8974   19537477.7854
  21941005.718      665174.81249    514431.99249  21941010.7154   21941015.0234
  20132320.100    -5287319.73449  -4110800.60949  20132320.8184   20132325.0694
 96  7 11 16 35 59.9950000  0  5 24  5  4  7  9
  19422199.202   -14589878.90749 -11343717.14749  19422202.0124   19422206.8104
  19937881.134   -15015572.20649 -11686370.67049  19937883.1474   19937887.5684
  19529789.628    -7108786.61749  -5131514.66949  19529791.5974   19529795.1114
  21941904.070      669879.22649    518097.73049  21941905.4874   21941910.6754
  20127456.487    -5312876.19649  -4130714.74949  20127457.8994   20127461.7124
 96  7 11 16 36 29.9950000  0  5 24  5  4  7  9
  19400292.506   -14705000.75949 -11433422.47949  19400295.1004   19400300.0224
  19912363.671   -15149667.54749 -11790860.54249  19912365.4924   19912370.0264
  19522201.516    -7148662.57049  -5162586.83949  19522203.2614   19522207.1074
  21942810.803      674639.25049    521806.78949  21942810.7174   21942816.2124
  20122682.657    -5337962.65549  -4150262.64649  20122684.1504   20122688.0974
 96  7 11 16 36 59.9950000  0  5 24  5  4  7  9
  19378484.098   -14819615.00949 -11522732.26849  19378484.7914   19378489.9494
  19886885.048   -15283564.31149 -11895195.67349  19886885.7584   19886890.0484
  19514705.137    -7188054.05249  -5193281.50249  19514707.3614   19514711.1844
  21943722.425      679441.55949    525548.82649  21943725.0164   21943729.7114
  20117997.642    -5362579.01249  -4169444.23649  20118000.0094   20118003.9774
 96  7 11 16 37 29.9950000  0  5 24  5  4  7  9
  19356765.376   -14933737.88649 -11611659.16349  19356767.8254   19356772.7754
  19861444.251   -15417250.08849 -11999366.39949  19861446.2784   19861450.6434
  19507302.452    -7226954.55349  -5223593.57649  19507304.7284   19507308.4904
  21944642.700      684276.26749    529316.12149  21944643.3664   21944649.5134
  20113406.758    -5386710.21249  -4188247.78049  20113407.6424   20113411.8854
 96  7 11 16 37 59.9950000  0  5 24  5  4  7  9
  19335141.248   -15047371.65949 -11700204.95049  19335144.0584   19335149.0384
  19836049.302   -15550707.93449 -12103359.52349  19836050.0094   19836054.5834
  19499997.525    -7265344.75449  -5253508.01849  19499999.2494   19500002.9894
  21945567.432      689137.00849    533103.63249  21945567.8474   21945573.7414
  20108905.868    -5410360.95449  -4206676.94849  20108907.0234   20108911.3364
 96  7 11 16 38 29.9950000  0  5 24  5  4  7  9
  19313613.550   -15160505.47249 -11788361.14849  19313615.0984   19313620.3784
  19810698.804   -15683919.34649 -12207160.61249  19810700.9494   19810705.6264
  19492792.854    -7303200.28149  -5283005.83049  19492795.4384   19492799.6644
  21946497.145      694015.54149    536905.03049  21946498.8034   21946503.7164
  20104497.975    -5433521.01349  -4224723.75749  20104499.9894   20104504.0514
 96  7 11 16 38 59.9950000  0  5 24  5  4  7  9
  19292177.231   -15273151.53349 -11876137.29449  19292179.6884   19292184.3154
  19785397.114   -15816885.12949 -12310770.30849  19785398.4724   19785402.8184
  19485688.876    -7340533.41749  -5312096.59049  19485691.5064   19485695.3674
  21947423.171      698890.28749    540703.49749  21947424.9844   21947431.4354
  20100180.358    -5456210.73749  -4242404.07949  20100181.7414   20100186.4874
 96  7 11 16 39 29.9950000  0  5 24  5  4  7  9
  19270836.251   -15385302.72149 -11963527.80849  19270838.2534   19270842.6614
  19760145.021   -15949580.67549 -12414169.42049  19760147.1874   19760151.5184
  19478685.757    -7377337.35049  -5340774.97749  19478688.0044   19478692.1264
  21948353.000      703769.27249    544505.29149  21948354.9544   21948359.0824
  20095950.484    -5478441.72249  -4259726.93749  20095951.9574   20095955.9214
 96  7 11 16 39 59.9950000  0  5 24  5  4  7  9
  19249594.837   -15496928.99549 -12050509.30349  19249596.3394   19249601.0954
  19734948.099   -16081997.22349 -12517351.13749  19734949.1934   19734953.4884
  19471784.941    -7413604.83349  -5369035.35049  19471786.6244   19471790.4974
  21949284.395      708669.48049    548323.62749  21949286.9374   21949292.1964
  20091807.984    -5500211.78549  -4276690.62949  20091809.0104   20091813.1754
 96  7 11 16 40 29.9950000  0  5 24  5  4  7  9
  19228445.070   -15608068.56049 -12137111.55049  19228446.9304   19228451.6594
  19709795.393   -16214172.33649 -12620344.72149  19709797.0084   19709801.4274
  19464974.741    -7449389.72849  -5396919.68849  19464976.8764   19464980.6884
  21950212.815      713552.33749    552128.40249  21950214.9464   21950220.9264
  20087745.288    -5521555.39349  -4293322.02249  20087747.3704   20087751.7244
 96  7 11 16 40 59.9950000  0  5 24  5  4  7  9
  19207387.349   -15718723.14649 -12223335.88249  19207390.0934   19207394.9274
  19684690.153   -16346098.76849 -12723144.52549  19684692.4114   19684696.6474
  19458258.280    -7484684.97549  -5424422.47149  19458260.5114   19458264.2884
  21951147.619      718447.00849    555942.37649  21951147.9874   21951152.4744
  20083768.177    -5542457.66749  -4309609.51849  20083770.0254   20083774.2294
 96  7 11 16 41 29.9950000  0  5 24  5  4  7  9
  19186422.796   -15828897.59949 -12309186.09449  19186424.6874   19186429.3184
  19659635.197   -16477768.23749 -12825744.11149  19659636.6874   19659640.5704
  19451636.294    -7519482.81849  -5451537.67549  19451638.4664   19451642.8534
  21952082.936      723366.88349    559776.01749  21952082.8244   21952090.2424
  20079876.187    -5562910.52749  -4325546.82149  20079878.0964   20079882.2224
 96  7 11 16 41 59.9950000  0  5 24  5  4  7  9
  19165548.667   -15938588.07849 -12394659.17149  19165551.1884   19165556.2004
  19634628.785   -16609176.58249 -12928140.21549  19634629.9414   19634634.3824
  19445108.276    -7553787.69149  -5478268.74249  19445110.6004   19445114.5934
  21953021.465      728316.59049    563632.89149  21953023.6654   21953031.9784
  20076070.526    -5582908.25549  -4341129.47449  20076072.4644   20076077.0524
 96  7 11 16 42 29.9950000  0  5 24  5  4  7  9
  19144767.380   -16047795.59549 -12479755.93049  19144769.6124   19144774.5974
  19609673.085   -16740323.23049 -13030332.40549  19609674.2084   19609678.0854
  19438672.986    -7587604.01949  -5504619.13649  19438675.6244   19438679.4494
  21953972.268      733295.15749    567512.25849  21953972.4814   21953977.2694
  20072351.796    -5602450.85049  -4356357.48049  20072353.4344   20072357.9544
 96  7 11 16 42 59.9950000  0  5 24  5  4  7  9
  19124081.484   -16156501.15949 -12564461.55249  19124083.7584   19124088.6924
  19584766.834   -16871203.88649 -13132317.32649  19584768.0614   19584772.2744
  19432334.565    -7620911.30249  -5530572.86649  19432337.3104   19432341.1924
  21954927.939      738323.18449    571430.14049  21954928.5844   21954935.8394
  20068718.282    -5621545.26849  -4371236.26449  20068720.1094   20068724.2804
 96  7 11 16 43 29.9950000  0  5 24  5  4  7  9
  19103519.591   -16264553.77249 -12648658.38149  19103521.9794   19103527.0004
  19559938.122   -17001680.49249 -13233987.40649  19559939.0794   19559943.0364
  19426121.089    -7653570.97149  -5556021.96549  19426122.8504   19426126.3154
  21955918.356      743530.63649    575487.86249  21955921.1304   21955924.9764
  20065194.720    -5640060.59249  -4385663.82749  20065196.7644   20065201.2234
 96  7 11 16 43 59.9940000  0  5 24  5  4  7  9
  19083120.582   -16371752.63949 -12732189.95549  19083122.7284   19083127.4574
  19535221.364   -17131566.79349 -13335197.51249  19535222.9964   19535226.6354
  19420064.297    -7685398.58449  -5580822.71149  19420065.9874   19420069.4474
  21956981.246      749106.95649    579833.01049  21956982.4884   21956986.7634
  20061819.782    -5657799.48449  -4399486.33149  20061821.6174   20061825.5384
 96  7 11 16 44 29.9940000  0  5 24  5  4  7  9
  19062822.890   -16478418.51849 -12815306.21249  19062824.7694   19062830.0544
  19510553.921   -17261192.62949 -13436204.65649  19510555.6744   19510559.8324
  19414103.650    -7716714.58449  -5605224.79349  19414106.6514   19414110.3564
  21958050.623      754728.92649    584213.73849  21958051.5634   21958057.3524
  20058531.669    -5675078.44049  -4412950.48049  20058533.3164   20058537.6704
 96  7 11 16 44 59.9940000  0  5 24  5  4  7  9
  19042634.204   -16584509.54949 -12897974.53949  19042636.2344   19042641.2074
  19485949.525   -17390489.27949 -13536955.28549  19485951.3404   19485955.4244
  19408252.457    -7747467.23349  -5629187.89749  19408254.7964   19408258.4274
  21959139.684      760444.56949    588667.43349  21959140.0554   21959145.3414
  20055342.112    -5691837.43949  -4426009.44549  20055343.9994   20055348.4414
 96  7 11 16 45 29.9940000  0  5 24  5  4  7  9
  19022556.259   -16690021.66049 -12980191.74449  19022557.7374   19022562.7834
  19461412.690   -17519432.70249 -13637430.66949  19461414.4174   19461418.3704
  19402508.879    -7777653.54149  -5652709.69649  19402510.2964   19402514.0844
  21960243.092      766248.70449    593190.08149  21960245.2354   21960249.4384
  20052257.988    -5708046.85749  -4438640.15749  20052259.4374   20052263.9874
 96  7 11 16 45 59.9940000  0  5 24  5  4  7  9
  19002574.937   -16795021.79949 -13062010.01349  19002577.2084   19002581.8304
  19436930.480   -17648084.78349 -13737679.03549  19436932.7204   19436936.9604
  19396856.683    -7807353.21749  -5675852.29949  19396858.9344   19396862.4934
  21961350.114      772056.37949    597715.48149  21961350.0494   21961353.2394
  20049262.051    -5723790.40249  -4450907.86049  20049263.6704   20049268.2844
 96  7 11 16 46 29.9940000  0  5 24  5  4  7  9
  18982680.734   -16899566.09549 -13143473.08849  18982683.1284   18982687.8564
  19412492.883   -17776510.27949 -13837750.84549  19412494.2084   19412497.7684
  19391284.090    -7836635.09249  -5698669.34049  19391286.6694   19391290.4654
  21962438.908      777787.10059    602180.94349  21962439.9314   21962444.6894
  20046339.189    -5739148.95649  -4462875.58149  20046340.8804   20046345.5224
 96  7 11 16 46 59.9940000  0  5 24  5  4  7  9
  18962872.999   -17003655.50049 -13224581.69149  18962875.5054   18962880.3964
  19388098.520   -17904702.65449 -13937640.99049  19388099.8144   19388103.9744
  19385792.781    -7865489.35249  -5721153.18149  19385795.7274   19385799.6034
  21963517.661      783459.18259    606600.76349  21963518.8524   21963524.9364
  20043490.642    -5754121.98049  -4474542.87849  20043492.2454   20043496.3194
 96  7 11 16 47 29.9940000  0  5 24  5  4  7  9
  18943158.749   -17107256.49949 -13305309.72249  18943160.9974   18943165.5444
  19363751.154   -18032650.41649 -14037340.53849  19363752.3234   19363756.6024
  19380388.220    -7893895.54549  -5743287.87649  19380390.1814   19380394.2634
  21964588.954      789095.21549    610992.49649  21964591.8844   21964597.2194
  20040713.985    -5768707.83149  -4485908.48449  20040716.4524   20040720.6044
 96  7 11 16 47 59.9940000  0  5 24  5  4  7  9
  18923535.277   -17210372.98349 -13385660.20849  18923538.5154   18923543.0704
  19339448.058   -18160361.19449 -14136855.40849  19339449.8104   19339453.7584
  19375063.849    -7921875.35049  -5765090.32249  19375066.0934   19375069.5824
  21965655.673      794702.19749    615361.49849  21965657.6574   21965662.5274
  20038007.506    -5782929.02949  -4496989.94349  20038009.8034   20038014.5094
 96  7 11 16 48 29.9940000  0  5 24  5  4  7  9
  18904002.714   -17313021.49849 -13465646.04149  18904005.1904   18904009.7904
  19315188.905   -18287845.37649 -14236193.71349  19315190.4714   19315194.4594
  19369818.907    -7949439.25649  -5786568.69149  19369820.6774   19369824.4904
  21966718.540      800290.25249    619715.80149  21966721.5454   21966727.6414
  20035373.221    -5796775.11949  -4507779.10149  20035375.2594   20035379.7974
 96  7 11 16 48 59.9940000  0  5 24  5  4  7  9
  18884554.082   -17415224.92949 -13545285.05549  18884556.1074   18884560.9634
  19290971.935   -18415101.86949 -14335354.59949  19290974.1514   19290978.2434
  19364650.665    -7976594.82849  -5807728.87849  19364653.0544   19364657.0244
  21967779.768      805867.63549    624061.79049  21967783.3344   21967788.3164
  20032808.533    -5810252.51149  -4518280.96449  20032810.1344   20032815.1834
 96  7 11 16 49 29.9940000  0  5 24  5  4  7  9
  18865194.027   -17516963.04149 -13624561.48849  18865196.3074   18865200.7574
  19266804.591   -18542111.86349 -14434323.40549  19266805.0514   19266809.0834
  19359560.590    -8003342.06749  -5828570.87749  19359563.3544   19359567.1304
  21968839.363      811424.82649    628392.03749  21968840.7894   21968845.2324
  20030314.005    -5823358.20949  -4528493.20249  20030316.1574   20030320.8684
 96  7 11 16 49 59.9940000  0  5 24  5  4  7  9
  18845920.038   -17618251.03349 -13703487.17249  18845921.7624   18845926.2884
  19242680.598   -18668876.79549 -14533101.25249  19242682.6854   19242686.5004
  19354548.775    -8029684.47449  -5849097.42249  19354550.3974   19354554.3244
  21969890.489      816948.81459    632696.40549  21969891.2944   21969895.7124
  20027892.495    -5836087.03949  -4538411.77649  20027894.2724   20027898.8214
 96  7 11 16 50 29.9940000  0  5 24  5  4  7  9
  18826730.209   -17719090.18849 -13782063.11849  18826732.6364   18826737.3474
  19218604.884   -18795399.43349 -14631690.30349  19218606.3054   19218610.1734
  19349616.713    -8055600.64649  -5869291.84149  19349618.8174   19349622.6314
  21970931.767      822427.21149    636965.30149  21970933.7644   21970939.6394
  20025541.458    -5848442.23449  -4548039.20649  20025543.4164   20025548.1574
 96  7 11 16 50 59.9940000  0  5 24  5  4  7  9
  18807628.695   -17819474.40849 -13860284.56949  18807630.3904   18807634.8694
  19194575.098   -18921672.88449 -14730085.18049  19194576.9484   19194581.0904
  19344767.783    -8081080.23449  -5889146.05949  19344770.6994   19344774.1084
  21971966.702      827863.69449    641201.52549  21971968.8774   21971975.0124
  20023259.232    -5860433.48649  -4557383.04349  20023261.2434   20023265.5844
 96  7 11 16 51 29.9940000  0  5 24  5  4  7  9
  18788613.680   -17919395.71949 -13938145.31049  18788616.0174   18788620.5504
  19170593.870   -19047694.68949 -14828283.97449  19170595.9554   19170599.8004
  19340004.608    -8106111.36649  -5908650.83249  19340007.1354   19340010.6304
  21972992.562      833259.73449    645406.17949  21972995.5164   21973001.3654
  20021049.319    -5872051.38849  -4566435.97649  20021050.8714   20021054.8254
 96  7 11 16 51 59.9940000  0  5 24  5  4  7  9
  18769685.319   -18018862.84349 -14015652.14149  18769687.7944   18769692.6434
  19146659.505   -19173473.66049 -14926293.54549  19146660.8724   19146665.0344
  19335324.517    -8130704.47649  -5927814.28849  19335327.0754   19335330.9384
  21974016.531      838630.31849    649591.01849  21974017.2184   21974024.6164
  20018908.589    -5883299.67849  -4575200.89349  20018910.0674   20018914.6784
 96  7 11 16 52 29.9940000  0  5 24  5  4  7  9
  18750844.082   -18117875.28649 -14092804.66949  18750846.3664   18750850.9014
  19122769.921   -19299012.28249 -15024115.82849  19122771.8154   19122775.5544
  19330723.924    -8154877.38049  -5946650.31049  19330727.3894   19330730.8024
  21975036.652      843983.53449    653762.33049  21975036.8614   21975042.3744
  20016837.461    -5894189.31349  -4583686.33049  20016837.9984   20016842.6274
 96  7 11 16 52 59.9940000  0  5 24  5  4  7  9
  18732089.035   -18216436.25349 -14169605.40249  18732091.0724   18732095.4934
  19098925.356   -19424314.73149 -15121754.08249  19098927.5564   19098931.4094
  19326201.321    -8178649.65949  -5965174.16149  19326203.6044   19326207.3974
  21976047.691      849310.72749    657913.35949  21976051.1084   21976056.2494
  20014833.838    -5904714.10349  -4591887.46949  20014835.3594   20014839.5984
 96  7 11 16 53 29.9940000  0  5 24  5  4  7  9
  18713421.177   -18314536.01949 -14246046.75449  18713423.1254   18713427.9204
  19075128.131   -19549374.05949 -15219202.89249  19075129.3454   19075133.5494
  19321751.312    -8202031.49449  -5983393.76649  19321754.3314   19321757.9144
  21977056.015      854604.35949    662038.23449  21977057.7104   21977063.8164
  20012899.918    -5914874.07949  -4599804.34649  20012901.3204   20012906.2804
 96  7 11 16 53 59.9940000  0  5 24  5  4  7  9
  18694842.846   -18412160.65649 -14322117.88249  18694845.4444   18694850.4114
  19051378.497   -19674179.79349 -15316454.09949  19051379.8664   19051383.7684
  19317375.411    -8225026.90849  -6001312.27149  19317377.9434   19317381.8884
  21978056.684      859864.68849    666137.16349  21978058.4944   21978064.9184
  20011035.212    -5924675.23849  -4607441.63249  20011036.7464   20011040.8994
 96  7 11 16 54 29.9940000  0  5 24  5  4  7  9
  18676353.638   -18509321.47249 -14397827.58949  18676356.5554   18676361.2894
  19027674.258   -19798740.13349 -15413514.08649  19027676.7204   19027680.6724
  19313074.736    -8247631.71249  -6018926.40449  19313076.8084   19313080.3824
  21979048.256      865071.57849    670194.43749  21979050.0234   21979056.0694
  20009235.752    -5934129.03949  -4614808.24049  20009238.0534   20009242.2924
 96  7 11 16 54 59.9930000  0  5 24  5  4  7  9
  18657956.233   -18606003.28149 -14473164.04649  18657958.4394   18657963.3164
  19004022.493   -19923035.13349 -15510367.31849  19004024.1734   19004028.0474
  19308851.402    -8269825.74949  -6036220.46349  19308853.2134   19308856.9324
  21980031.295      870234.67749    674217.62349  21980031.9404   21980038.8664
  20007504.316    -5943231.59649  -4621901.15049  20007505.8804   20007509.6184
 96  7 11 16 55 29.9930000  0  5 24  5  4  7  9
  18639648.632   -18702212.01249 -14548131.87249  18639650.7284   18639655.4674
  18980422.133   -20047056.47249 -15607007.31249  18980423.3974   18980427.5594
  19304706.275    -8291607.66249  -6053193.38349  19304708.5784   19304712.2524
  21981007.441      875369.93249    678219.09649  21981008.8164   21981015.9914
  20005836.584    -5951992.83349  -4628728.08849  20005839.0024   20005843.0504
 96  7 11 16 55 59.9930000  0  5 24  5  4  7  9
  18621430.070   -18797950.40449 -14622733.19949  18621432.5194   18621436.9794
  18956875.287   -20170795.77049 -15703427.52749  18956876.9314   18956881.0034
  19300640.193    -8312971.68949  -6069840.67949  19300642.9034   19300646.7934
  21981979.383      880477.38849    682198.92649  21981980.7664   21981987.1644
  20004237.436    -5960400.48649  -4635279.51949  20004238.6554   20004243.0914
 96  7 11 16 56 29.9930000  0  5 24  5  4  7  9
  18603299.407   -18893224.62449 -14696972.83649  18603302.1684   18603307.0674
  18933381.019   -20294259.15949 -15799632.75949  18933382.4574   18933386.2664
  19296652.014    -8333932.30649  -6086173.62949  19296654.3364   19296657.8474
  21982943.238      885548.90249    686150.69649  21982945.4584   21982951.8184
  20002704.295    -5968446.42249  -4641549.09149  20002707.4114   20002712.0334
 96  7 11 16 56 59.9930000  0  5 24  5  4  7  9
  18585231.837   -18988171.72649 -14770957.57449  18585234.4634   18585239.5574
  18909912.159   -20417587.22249 -15895732.53349  18909913.9314   18909917.8194
  19292708.454    -8354653.67849  -6102320.14949  19292711.4524   19292714.7944
  21983873.909      890437.47249    689959.95149  21983876.1874   21983881.8624
  20001216.066    -5976274.38649  -4647648.82549  20001217.9764   20001222.8164
 96  7 11 16 57 29.9930000  0  5 24  5  4  7  9
  18567249.425   -19082670.99449 -14844593.35249  18567251.7734   18567256.4064
  18886490.980   -20540662.79349 -15991635.56649  18886493.4004   18886497.3284
  19288832.193    -8375028.02549  -6118196.26949  19288834.0634   19288837.6834
  21984794.870      895259.56149    693717.42449  21984793.8084   21984800.2054
  19999791.364    -5983758.16449  -4653480.36249  19999793.6774   19999798.2254
 96  7 11 16 57 59.9930000  0  5 24  5  4  7  9
  18549351.491   -19176723.88649 -14917881.30649  18549354.2334   18549358.6004
  18863114.912   -20663510.79949 -16087361.27149  18863116.1004   18863120.2024
  19285018.339    -8395066.35749  -6133810.54849  19285021.1054   19285024.9094
  21985694.803      899999.13749    697410.58749  21985697.2954   21985702.2824
  19998429.643    -5990918.75149  -4659060.05449  19998431.5964   19998435.1334
 96  7 11 16 58 29.9930000  0  5 24  5  4  7  9
  18531527.408   -19270390.63649 -14990868.36849  18531529.8784   18531534.4914
  18839767.631   -20786197.51249 -16182961.29949  18839769.5254   18839773.7004
  19281257.096    -8414831.81749  -6149212.21549  19281259.7424   19281263.5234
  21986566.840      904592.82149    700990.04949  21986569.8024   21986575.7534
  19997112.135    -5997842.39149  -4664455.11649  19997113.6514   19997118.2004
 96  7 11 16 58 59.9930000  0  5 24  5  4  7  9
  18513787.740   -19363612.84649 -15063509.03849  18513790.3624   18513795.0514
  18816465.363   -20908650.60949 -16278379.29149  18816467.3604   18816471.5364
  19277563.548    -8434243.15249  -6164337.93549  19277565.7804   19277569.2864
  21987432.311      909121.82749    704519.04949  21987431.3164   21987439.0744
  19995849.571    -6004477.79749  -4669625.59649  19995850.7744   19995856.1014
 96  7 11 16 59 29.9930000  0  5 24  5  4  7  9
  18496138.278   -19456361.20149 -15135780.46849  18496140.9904   18496145.3914
  18793216.906   -21030827.07949 -16373581.72549  18793218.3094   18793222.1464
  19273945.172    -8453256.93149  -6179153.86549  19273947.7824   19273951.4844
  21988283.539      913620.76449    708024.66449  21988288.0134   21988294.1184
  19994646.353    -6010792.41049  -4674546.07849  19994649.3824   19994653.8244
 96  7 11 16 59 59.9930000  0  5 24  5  4  7  9
  18478581.154   -19548626.44449 -15207675.44849  18478583.5614   18478587.9884
  18770023.646   -21152705.51049 -16468551.92449  18770025.6464   18770029.4454
  19270405.210    -8471860.63449  -6193650.27449  19270407.4724   19270411.0384
  21989135.805      918090.81849    711507.77549  21989139.1644   21989145.1844
  19993506.789    -6016783.87049  -4679214.75949  19993509.1404   19993514.1244
 96  7 11 17  0 29.9930000  0  5 24  5  4  7  9
  18461113.218   -19640419.91449 -15279202.80749  18461115.8304   18461120.2954
  18746890.777   -21274272.78149 -16563279.65549  18746892.1694   18746895.9054
  19266941.793    -8490059.90449  -6207831.52849  19266944.3764   19266948.2074
  21989982.858      922537.86349    714972.97849  21989984.7544   21989991.4664
  19992429.846    -6022445.25249  -4683626.24049  19992432.3034   19992436.5304
 96  7 11 17  0 59.9930000  0  5 24  5  4  7  9
  18443728.774   -19731771.76049 -15350386.04549  18443732.0514   18443736.7824
  18723810.674   -21395554.78249 -16657785.09749  18723812.8594   18723816.7044
  19263548.558    -8507890.40349  -6221725.42649  19263551.3664   19263554.8714
  21990822.844      926933.53349    718398.13949  21990821.4934   21990826.6954
  19991410.063    -6027804.11549  -4687801.97849  19991412.2964   19991416.7774
 96  7 11 17  1 29.9930000  0  5 24  5  4  7  9
  18426450.072   -19822576.02749 -15421142.60149  18426452.5534   18426457.1284
  18700805.050   -21516453.02749 -16751991.51249  18700806.7004   18700810.5904
  19260242.427    -8525263.74649  -6235263.09949  19260245.1054   19260249.1334
  21991660.989      931366.02549    721852.05549  21991665.6534   21991670.7904
  19990465.859    -6032767.26649  -4691669.38149  19990467.8514   19990472.2694
 96  7 11 17  1 59.9930000  0  5 24  5  4  7  9
  18409269.505   -19912860.85249 -15491494.39649  18409272.0904   18409276.6774
  18677863.363   -21637011.46849 -16845933.14249  18677864.8054   18677869.0664
  19257019.121    -8542203.49349  -6248462.90149  19257021.6584   19257025.4254
  21992512.667      935808.70849    725313.80549  21992510.4524   21992517.2754
  19989590.452    -6037367.74749  -4695254.17449  19989592.1644   19989597.5934
 96  7 11 17  2 29.9930000  0  5 24  5  4  7  9
  18392176.739   -20002684.75249 -15561487.03449  18392179.0914   18392183.5414
  18654973.591   -21757295.45349 -16939660.91449  18654975.8164   18654980.0764
  19253868.060    -8558765.70349  -6261368.52649  19253870.4544   19253873.9214
  21993344.361      940212.36649    728745.16649  21993348.5714   21993355.0194
  19988771.610    -6041668.03149  -4698605.06549  19988774.3964   19988778.6604
 96  7 11 17  2 59.9930000  0  5 24  5  4  7  9
  18375169.051   -20092056.28249 -15631127.17449  18375172.1774   18375176.8244
  18632134.230   -21877320.18149 -17033186.67049  18632136.1374   18632140.1014
  19250783.527    -8574973.46649  -6273997.95249  19250785.8994   19250789.8064
  21994174.655      944562.67549    732135.00549  21994176.3264   21994182.5824
  19988007.127    -6045682.65049  -4701733.35149  19988009.9254   19988014.8504
 96  7 11 17  3 29.9930000  0  5 24  5  4  7  9
  18358253.096   -20180954.22449 -15700398.28949  18358255.7274   18358260.0504
  18609348.466   -21997057.44649 -17126488.43149  18609350.8444   18609355.0024
  19247769.346    -8590809.90949  -6286338.04749  19247772.1604   19247776.0154
  21994996.493      948888.23149    735505.60249  21994999.7954   21995005.5214
  19987304.821    -6049379.15149  -4704613.77149  19987306.7544   19987310.9844
 96  7 11 17  3 59.9930000  0  5 24  5  4  7  9
  18341441.813   -20269294.80449 -15769235.09049  18341444.7614   18341449.5334
  18586634.838   -22116418.29149 -17219496.87449  18586636.9894   18586641.1474
  19244841.199    -8606196.93849  -6298327.94749  19244844.2194   19244847.9554
  21995831.354      953270.72149    738920.49749  21995833.8834   21995839.6384
  19986678.020    -6052669.94149  -4707178.03949  19986680.1884   19986684.3764
 96  7 11 17  4 29.9930000  0  5 24  5  4  7  9
  18324734.858   -20357091.81649 -15837648.33649  18324737.3764   18324742.0104
  18563994.235   -22235397.83449 -17312208.20349  18563996.0464   18564000.3154
  19241992.925    -8621167.25349  -6309993.13849  19241995.6954   19241999.3314
  21996676.296      957702.18649    742373.53949  21996676.6354   21996683.3054
  19986126.423    -6055569.97349  -4709437.84149  19986129.0104   19986133.0244
 96  7 11 17  4 59.9930000  0  5 24  5  4  7  9
  18308132.622   -20444338.29049 -15905632.59049  18308135.3154   18308139.5944
  18541429.183   -22353977.87249 -17404608.22349  18541430.9644   18541434.9344
  19239225.389    -8635706.94849  -6321322.77649  19239228.4464   19239232.4544
  21997529.013      962195.43249    745874.72049  21997531.4214   21997538.5984
  19985652.684    -6058059.75849  -4711377.94649  19985655.2954   19985659.2924
 96  7 11 17  5 29.9920000  0  5 24  5  4  7  9
  18291625.906   -20531079.10349 -15973222.82849  18291629.0934   18291633.7294
  18518932.358   -22472200.90349 -17496730.05949  18518933.8894   18518938.0324
  19236534.201    -8649848.91349  -6332342.50149  19236537.4294   19236541.3674
  21998387.438      966689.41149    749376.46849  21998387.2224   21998393.1114
  19985247.747    -6060184.60149  -4713033.68649  19985250.1394   19985255.1854
 96  7 11 17  5 59.9920000  0  6  6 24  5  4  7  9
  22736489.173    -3149588.52459  -2424943.92059  22736491.8004   22736498.2344
  18275218.336   -20617303.50949 -16040410.66549  18275221.0074   18275225.6384
  18496502.694   -22590069.49549 -17588575.70749  18496504.5444   18496508.6224
  19233922.464    -8663576.51249  -6343039.34549  19233924.9514   19233929.0734
  21999240.162      971189.80949    752883.20549  21999244.0114   21999250.0774
  19984913.572    -6061946.40649  -4714406.54049  19984915.3644   19984920.1634
 96  7 11 17  6 29.9920000  0  6  6 24  5  4  7  9
  22707035.507    -3304373.50849  -2545555.52649  22707036.7694   22707043.2474
  18258916.208   -20702969.96249 -16107163.73949  18258919.1464   18258923.4844
  18474151.148   -22707530.63549 -17680103.86549  18474152.3464   18474156.2284
  19231398.113    -8676843.04049  -6353376.90649  19231400.6774   19231404.5774
  22000106.586      975735.19949    756424.99749  22000108.8584   22000114.4944
  19984655.890    -6063301.84649  -4715462.75549  19984657.4104   19984662.0664
 96  7 11 17  6 59.9920000  0  6  6 24  5  4  7  9
  22677558.681    -3459265.38749  -2666250.42649  22677560.8614   22677567.8294
  18242688.119   -20788251.58049 -16173616.93349  18242690.6684   18242695.1594
  18451843.131   -22824752.29349 -17771445.41249  18451845.8224   18451849.7924
  19228930.091    -8689813.20749  -6363483.54249  19228932.5294   19228936.3704
  22000945.760      980144.65049    759860.94249  22000949.3004   22000955.5704
  19984441.706    -6064425.92549  -4716338.68249  19984443.9584   19984448.3854
 96  7 11 17  7 29.9920000  0  6  6 24  5  4  7  9
  22648112.699    -3614008.00849  -2786829.03049  22648114.3454   22648120.5084
  18226577.120   -20872913.14449 -16239586.97249  18226580.2114   18226584.6604
  18429627.394   -22941501.21549 -17862418.59049  18429629.1344   18429633.3664
  19226559.568    -8702266.99549  -6373187.80149  19226562.4544   19226566.6274
  22001800.339      984640.16959    763364.00259  22001803.5094   22001810.1264
  19984312.483    -6065104.00949  -4716867.07849  19984314.6164   19984318.8734
 96  7 11 17  7 59.9920000  0  6  6 24  5  4  7  9
  22618672.287    -3768722.34049  -2907385.62149  22618673.5074   22618679.1484
  18210561.357   -20957077.55849 -16305169.62249  18210564.3134   18210568.5984
  18407479.877   -23057887.38249 -17953109.10249  18407481.5154   18407485.6724
  19224264.462    -8714332.38349  -6382589.40649  19224267.0044   19224270.3644
  22002651.032      989110.750 9
  19984242.568    -6065473.55949  -4717155.05849  19984244.2324   19984248.3394
 96  7 11 17  8 29.9920000  0  6  6 24  5  4  7  9
  22589237.658    -3923410.92249  -3027922.15849  22589237.2774   22589242.6114
  18194638.538   -21040753.31749 -16370371.50249  18194641.2014   18194645.8194
  18385403.377   -23173901.24849 -18043509.51749  18385404.7824   18385408.7194
  19222040.458    -8726018.77449  -6391695.69149  19222043.2504   19222046.5484
  22003499.827      993560.872 9    770315.24259                  22003506.4854
  19984229.971    -6065535.08949  -4717203.02649  19984233.3224   19984236.9254
 96  7 11 17  8 59.9920000  0  6  6 24  5  4  7  9
  22559805.953    -4078051.71549  -3148421.43049  22559810.3124   22559816.8824
  18178811.315   -21123919.83749 -16435176.57549  18178814.7704   18178819.5344
  18363396.623   -23289547.65649 -18133623.59849  18363398.1634   18363401.9454
  19219890.855    -8737315.04149  -6400497.98249  19219893.5894   19219897.0584
  22004348.248      998023.90259    773792.90049  22004350.1354   22004356.5454
  19984279.067    -6065288.61549  -4717010.98749  19984280.0124   19984284.0694
 96  7 11 17  9 29.9920000  0  6  6 24  5  4  7  9
  22530387.367    -4232655.74849  -3268892.07449  22530389.0044   22530394.3614
  18163085.862   -21206562.43149 -16499573.39849  18163088.4994   18163093.2594
  18341457.586   -23404836.72149 -18223459.23149  18341459.4274   18341463.4604
  19217816.192    -8748218.52749  -6408994.21749  19217818.8954   19217822.2204
  22005203.200     1002516.12049    777293.28449  22005204.6694   22005211.6834
  19984383.202    -6064728.07749  -4716574.22449  19984386.3694   19984390.7374
 96  7 11 17  9 59.9920000  0  6  6 24  5  4  7  9
  22500965.500    -4387273.66449  -3389373.47049  22500964.7504   22500970.4844
  18147452.615   -21288717.30249 -16563590.17049  18147454.9654   18147459.5434
  18319577.484   -23519812.58949 -18313050.81149  18319580.0384   18319584.1634
  19215807.937    -8758770.39349  -6417216.45749  19215810.5104   19215814.4154
  22006054.883     1007002.18249    780788.89449  22006058.3284   22006065.8124
  19984546.743    -6063878.44549  -4715912.19449  19984548.5094   19984552.6864
 96  7 11 17 10 29.9920000  0  6  6 24  5  4  7  9
  22471536.894    -4541902.00449  -3509862.95649  22471543.5184   22471549.6844
  18131908.228   -21370400.66249 -16627239.53549  18131911.4324   18131915.9874
  18297752.901   -23634506.81949 -18402422.93149  18297754.2484   18297758.2854
  19213863.277    -8768994.39649  -6425183.22649  19213864.9694   19213868.7004
  22006905.757     1011463.94149    784265.51049  22006907.0264   22006915.4844
  19984762.698    -6062736.08949  -4715022.06549  19984765.6864   19984769.5294
 96  7 11 17 10 59.9920000  0  6  6 24  5  4  7  9
  22442119.316    -4696521.63249  -3630345.78349  22442119.8304   22442120.8644
  18116459.854   -21451586.12349 -16690500.92749  18116462.5154   18116466.6684
  18275984.992   -23748895.19149 -18491556.71549  18275987.1484   18275991.0984
  19211983.280    -8778871.12049  -6432879.38249  19211985.7494   19211989.0354
  22007756.870     1015917.09149    787735.45349  22007754.0764   22007762.3184
  19985041.044    -6061277.61149  -4713885.61149  19985042.6234   19985047.2674
 96  7 11 17 11 29.9920000  0  6  6 24  5  4  7  9
  22412695.964    -4851139.48249  -3750827.30249  22412696.8104   22412700.4994
  18101102.300   -21532287.22249 -16753384.89249  18101105.2724   18101109.6994
  18254278.927   -23862958.03549 -18580436.84749  18254281.4994   18254285.4804
  19210169.621    -8788407.02049  -6440309.95949  19210171.0354   19210174.4794
  22008592.360     1020341.00449    791182.57149  22008597.1704   22008603.4514
  19985380.309    -6059496.41349  -4712497.70049  19985381.5794   19985386.5774
 96  7 11 17 11 59.9920000  0  6  6 24  5  4  7  9
  22383270.132    -5005750.72949  -3871303.45249  22383273.3654   22383279.1234
  18085833.342   -21612528.20849 -16815910.32749  18085836.1784   18085840.4084
  18232636.447   -23976693.37949 -18669061.78049  18232638.4804   18232642.2834
  19208413.001    -8797628.12049  -6447495.23949  19208416.2984   19208419.7374
  22009422.742     1024717.53949    794592.78449  22009429.6714   22009437.3474
  19985774.942    -6057421.94849  -4710881.25349  19985776.3434   19985780.5574
 96  7 11 17 12 29.9920000  0  6  6 24  5  4  7  9
  22353853.525    -5160351.82449  -3991771.70349  22353855.2354   22353860.5064
  18070650.777   -21692312.16949 -16878079.63749  18070653.4834   18070658.1864
  18211058.133   -24090088.27249 -18757421.42549  18211060.2524   18211064.1124
  19206715.460    -8806548.99549  -6454446.57349  19206718.2134   19206722.2234
  22010255.871     1029050.75249    797969.23549  22010253.7984   22010261.3654
  19986217.320    -6055092.58049  -4709066.18949  19986219.9934   19986224.1804
 96  7 11 17 12 59.9920000  0  6  6 24  5  4  7  9
  22324436.975    -5314928.76849  -4112221.13949  22324440.3904   22324446.1304
  18055562.982   -21771601.61449 -16939863.61749  18055565.2024   18055569.7544
  18189554.121   -24203093.24849 -18845477.24949  18189556.1374   18189560.0284
  19205080.536    -8815143.62149  -6461143.69349  19205082.9604   19205086.6944
  22011076.655     1033374.25949    801338.06649  22011078.4244   22011083.4404
  19986709.927    -6052502.09349  -4707047.65549  19986712.8754   19986717.2724
 96  7 11 17 13 29.9920000  0  6  6 24  5  4  7  9
  22295036.410    -5469447.36049  -4232625.18449  22295036.5774   22295041.0694
  18040572.797   -21850374.56749 -17001245.12849  18040575.2704   18040579.8494
  18168129.564   -24315682.39449 -18933209.04849  18168131.3344   18168134.9964
  19203513.272    -8823383.92749  -6467564.71649  19203515.3594   19203518.7474
  22011903.081     1037717.05149    804721.99949  22011904.6084   22011910.5694
  19987257.339    -6049627.63349  -4704807.83949  19987260.0124   19987264.0874
 96  7 11 17 13 59.9920000  0  6  6 24  5  4  7  9
  22265645.212    -5623889.46149  -4352969.63749  22265645.6014   22265652.0324
  18025686.515   -21928600.70749 -17062200.55249  18025689.4604   18025693.9824
  18146787.385   -24427834.45249 -19020600.26249  18146789.5344   18146793.2574
  19202015.352    -8831251.51549  -6473695.32149  19202017.7474   19202021.6324
  22012739.322     1042114.27049    808148.28749  22012741.3264   22012746.5554
  19987861.322    -6046453.61849  -4702334.60449  19987863.7564   19987868.7674
 96  7 11 17 14 29.9920000  0  6  6 24  5  4  7  9
  22236281.262    -5778194.06049  -4473206.88449  22236282.0524   22236289.3634
  18010919.869   -22006201.20949 -17122668.46849  18010922.5664   18010927.1984
  18125543.245   -24539473.16649 -19107591.46349  18125545.3014   18125549.0944
  19200607.802    -8838648.12749  -6479458.92249  19200610.3574   19200613.8294
  22013602.120     1046641.69849    811676.10049  22013603.1134   22013608.6614
  19988542.277    -6042880.29949  -4699550.22849  19988543.8154   19988548.8394
 96  7 11 17 14 59.9920000  0  6  6 24  5  4  7  9
  22206932.491    -5932420.06849  -4593382.90249  22206934.5754   22206940.6094
  17996260.178   -22083238.91549 -17182697.84149  17996262.4864   17996267.2584
  18104383.207   -24650668.62849 -19194237.27749  18104385.2874   18104389.2044
  19199283.825    -8845600.71049  -6484876.53849  19199287.2954   19199291.1764
  22014473.385     1051241.15549    815260.04249  22014477.7854   22014483.7774
  19989295.021    -6038925.88749  -4696468.90149  19989296.7534   19989300.8914
 96  7 11 17 15 29.9920000  0  5  6 24  5  4  9
  22177579.871    -6086677.38749  -4713583.33349  22177581.1414   22177587.3344
  17981683.832   -22159835.60249 -17242383.56749  17981686.8004   17981691.4114
  18083286.187   -24761534.92649 -19280626.60049  18083287.8654   18083292.0374
  19198027.437    -8852211.71149  -6490027.97949  19198029.3044   19198033.0984
  19990100.227    -6034692.36149  -4693170.08749  19990102.0634   19990106.7694
 96  7 11 17 15 59.9910000  0  5  6 24  5  4  9
  22148236.959    -6240876.13649  -4833738.15149  22148237.3924   22148244.4084
  17967211.047   -22235891.25849 -17301647.70149  17967213.9804   17967218.5234
  18062269.597   -24871976.28549 -19366684.79449  18062271.8244   18062275.9864
  19196851.663    -8858383.80649  -6494837.40649  19196854.7264   19196858.5234
  19990974.707    -6030101.84849  -4689593.08449  19990975.9444   19990979.9564
 96  7 11 17 16 29.9910000  0  5  6 24  5  4  9
  22118884.243    -6395121.02249  -4953928.89749  22118885.5994   22118892.7634
  17952817.833   -22311526.94249 -17360584.59349  17952820.7414   17952825.3204
  18041310.413   -24982118.98249 -19452510.27549  18041312.5144   18041316.3544
  19195741.062    -8864222.89049  -6499387.36349  19195743.9064   19195747.8634
  19991891.993    -6025269.49049  -4685827.64349  19991895.5224   19991899.6264
 96  7 11 17 16 59.9910000  0  5  6 24  5  4  9
  22089528.142    -6549396.74549  -5074143.68949  22089527.2234   22089533.7444
  17938504.363   -22386747.50949 -17419198.01649  17938507.0664   17938511.4214
  18020407.414   -25091961.82849 -19538102.10549  18020409.9534   18020414.0734
  19194688.678    -8869756.08849  -6503698.95949  19194690.9834   19194694.6244
  19992853.223    -6020219.98649  -4681892.99249  19992855.8834   19992861.0124
 96  7 11 17 17 29.9910000  0  5  6 24  5  4  9
  22060177.060    -6703606.86349  -5194307.36349  22060181.5264   22060187.9974
  17924288.203   -22461455.71249 -17477412.18949  17924290.4794   17924294.8664
  17999582.702   -25201400.42949 -19623378.93249  17999584.6704   17999588.3824
  19193705.738    -8874920.64749  -6507723.30549  19193708.1204   19193711.8854
  19993868.673    -6014889.97349  -4677739.74949  19993870.4444   19993875.1164
 96  7 11 17 17 59.9910000  0  5  6 24  5  4  9
  22030846.027    -6857771.50849  -5314435.64949  22030845.4074   22030851.6484
  17910165.248   -22535666.61149 -17535238.85849  17910168.2104   17910173.0064
  17978830.248   -25310454.84449 -19708356.39849  17978832.1524   17978836.1454
  19192784.552    -8879758.58749  -6511493.13349  19192787.7584   19192791.0814
  19994930.645    -6009305.64449  -4673388.33749  19994932.7434   19994938.0524
 96  7 11 17 18 29.9910000  0  5  6 24  5  4  9
  22001521.396    -7011860.03049  -5434504.51849  22001524.6634   22001530.7964
  17896143.468   -22609351.93549 -17592655.98849  17896146.2654   17896151.2844
  17958157.603   -25419092.42949 -19793009.06249  17958159.3154   17958163.0324
  19191927.910    -8884261.39449  -6515001.82649  19191930.4904   19191933.9854
  19996049.192    -6003425.08649  -4668806.10449  19996052.2414   19996056.5964
 96  7 11 17 18 59.9910000  0  5  6 24  5  4  9
  21972207.074    -7165898.57649  -5554534.49349  21972210.0274   21972217.1274
  17882220.094   -22682519.63949 -17649669.77849  17882223.1374   17882227.7704
  17937565.091   -25527305.32649 -19877330.80149  17937566.9704   17937570.6854
  19191131.304    -8888448.20149  -6518264.28049  19191134.1354   19191137.6064
  19997223.204    -5997258.19049  -4664000.74949  19997226.1924   19997230.7554
 96  7 11 17 19 29.9910000  0  5  6 24  5  4  9
  21942910.749    -7319854.40949  -5674500.13449  21942915.3894   21942918.8854
  17868407.071   -22755111.76049 -17706235.06649  17868409.4034   17868414.2214
  17917064.540   -25635036.26649 -19961276.99549  17917066.3074   17917070.1174
  19190404.539    -8892263.66849  -6521237.38349  19190407.9884   19190411.6864
  19998462.081    -5990760.33649  -4658937.51849  19998462.6944   19998467.2764
 96  7 11 17 19 59.9910000  0  5  6 24  5  4  9
  21913614.905    -7473815.14349  -5794469.52649  21913616.6734   21913622.6704
  17854686.129   -22827215.18849 -17762419.54349  17854688.6024   17854693.4044
  17896638.356   -25742373.06749 -20044916.05849  17896641.0894   17896644.8544
  19189735.843    -8895784.37649  -6523980.80049  19189737.8374   19189742.0254
  19999745.364    -5984005.95149  -4653674.39549  19999747.4394   19999752.1514
 96  7 11 17 20 29.9910000  0  5  6 24  5  4  9
  21884313.768    -7627791.29649  -5914450.89849  21884316.3264   21884320.2044
  17841052.967   -22898856.92049 -17818244.26649  17841055.6934   17841060.3074
  17876283.657   -25849337.45549 -20128264.93049  17876286.3434   17876290.0284
  19189120.853    -8899013.53849  -6526497.04949  19189123.4764   19189127.3874
  20001075.246    -5977019.46149  -4648230.41649  20001077.2984   20001081.0664
 96  7 11 17 20 59.9910000  0  5  6 24  5  4  9
  21855018.047    -7781736.92349  -6034408.44449  21855021.3344   21855027.8184
  17827514.790   -22970000.42249 -17873680.76249  17827517.5234   17827521.9314
  17856009.220   -25955885.87849 -20211289.67349  17856010.7174   17856014.5234
  19188571.450    -8901902.00949  -6528747.81749  19188573.9054   19188577.3174
  20002455.674    -5969764.90549  -4642577.53849  20002457.5984   20002461.6464
 96  7 11 17 21 29.9910000  0  5  6 24  5  4  9
  21825736.963    -7935609.80449  -6154309.40849  21825739.1444   21825744.9224
  17814077.133   -23040614.90449 -17928705.03049  17814079.9824   17814084.4554
  17835816.053   -26062000.92449 -20293976.72549  17835817.7774   17835821.5144
  19188092.693    -8904421.04649  -6530710.71949  19188094.4104   19188098.2864
  20003894.230    -5962208.51849  -4636689.47849  20003895.4994   20003900.2274
 96  7 11 17 21 59.9910000  0  5  6 24  5  4  9
  21796457.762    -8089476.90949  -6274205.82349  21796460.3444   21796466.0814
  17800721.858   -23110797.56049 -17983392.81049  17800724.4804   17800729.6094
  17815688.665   -26167770.43049 -20376394.52149  17815690.6124   17815694.4284
  19187665.090    -8906662.19349  -6532457.08549  19187668.3084   19187671.7074
  20005374.485    -5954426.70049  -4630625.75749  20005376.5834   20005380.9054
 96  7 11 17 22 29.9910000  0  6  6 16 24  5  4  9
  21767190.661    -8243282.58049  -6394054.37049  21767192.2604   21767198.2164
  22027024.008    -9904025.97959  -7696035.95259  22027026.4834   22027032.8534
  17787459.609   -23180489.64649 -18037698.32849  17787462.8204   17787467.3754
  17795639.918   -26273127.39449 -20458490.85249  17795641.6314   17795645.8574
  19187302.411    -8908572.47549  -6533945.63049  19187304.7024   19187308.3134
  20006909.022    -5946364.44149  -4624343.49949  20006910.5244   20006915.0374
 96  7 11 17 22 59.9910000  0  6  6 16 24  5  4  9
  21737935.819    -8397008.50349  -6513840.74249  21737938.1314   21737944.2384
  21993701.975   -10079146.60249  -7832493.58049  21993701.9644   21993708.5694
  17774298.170   -23249656.94849 -18091594.92749  17774300.6304   17774305.2794
  17775676.249   -26378036.07649 -20540237.88249  17775678.1984   17775682.1704
  19187006.210    -8910128.87449  -6535158.42949  19187008.4534   19187012.2414
  20008498.886    -5937999.74049  -4617825.58449  20008502.0304   20008507.0904
 96  7 11 17 23 29.9910000  0  6  6 16 24  5  4  9
  21708701.442    -8550649.15949  -6633560.69449  21708702.7834   21708708.2274
  21960374.033   -10254264.88749  -7968949.35949  21960377.8794   21960384.2984
  17761236.784   -23318290.67949 -18145075.74949  17761239.8114   17761244.7224
  17755799.329   -26482488.82449 -20621629.62849  17755801.4234   17755805.3804
  19186779.286    -8911320.32849  -6536086.84449  19186781.5434   19186785.3604
  20010150.216    -5929333.28049  -4611072.53549  20010151.5704   20010155.9554
 96  7 11 17 23 59.9910000  0  6  6 16 24  5  4  9
  21679468.419    -8704264.10949  -6753260.57249  21679470.0614   21679476.3044
  21927046.327   -10429429.71749  -8105441.42949  21927045.1044   21927050.9064
  17748268.075   -23386441.18849 -18198180.04049  17748271.4244   17748275.9964
  17736000.144   -26586535.43149 -20702704.91149  17736001.9854   17736006.0704
  19186613.320    -8912197.85449  -6536770.65249  19186615.0004   19186618.3684
  20011845.700    -5920424.53649  -4604130.69049  20011846.8134   20011851.2754
 96  7 11 17 24 29.9910000  0  6  6 16 24  5  4  9
  21650233.138    -8857893.18249  -6872971.51049  21650234.7564   21650240.3614
  21893692.607   -10604688.42749  -8242006.64049  21893694.8844   21893701.3284
  17735388.760   -23454125.78149 -18250921.27849  17735391.4424   17735395.7854
  17716272.161   -26690208.29749 -20783488.96249  17716273.8454   17716278.0444
  19186500.020    -8912786.24449  -6537229.15949  19186502.9324   19186506.8564
  20013580.958    -5911306.56349  -4597025.81149  20013582.0834   20013586.7624
 96  7 11 17 24 59.9910000  0  6  6 16 24  5  4  9
  21620998.084    -9011522.12549  -6992682.30549  21621001.0704   21621006.8114
  21860326.583   -10780030.51949  -8378636.82649  21860327.7514   21860335.0534
  17722600.373   -23521328.87649 -18303287.32449  17722602.8924   17722607.7864
  17696617.442   -26793492.84849 -20863970.43849  17696619.3814   17696623.2764
  19186445.725    -8913071.14049  -6537451.17449  19186448.4414   19186452.4534
  20015355.673    -5901966.55249  -4589747.92849  20015359.6024   20015364.5754
 96  7 11 17 25 29.9910000  0  6  6 16 24  5  4  9
  21591768.219    -9165125.72449  -7112373.39049  21591771.4104   21591776.8824
  21826950.166   -10955428.85349  -8515310.81149  21826951.4294   21826956.7324
  17709907.919   -23588030.26049 -18355262.42749  17709910.3154   17709914.8084
  17677041.268   -26896363.25249 -20944129.19249  17677043.9704   17677047.7424
  19186451.022    -8913040.53349  -6537427.33949  19186454.3224   19186458.4134
  20017182.158    -5892372.83149  -4582272.31949  20017185.0144   20017190.1404
 96  7 11 17 25 59.9910000  0  6  6 16 24  5  4  9
  21562543.333    -9318705.34349  -7232045.81849  21562545.0654   21562551.0714
  21793558.875   -11130891.22849  -8652034.70049  21793562.5144   21793567.5704
  17697310.352   -23654229.17349 -18406845.98849  17697313.0654   17697317.4954
  17657546.070   -26998812.86449 -21023960.05149  17657548.3144   17657552.2174
  19186516.931    -8912700.04449  -6537162.03949  19186519.4094   19186522.9714
  20019057.234    -5882523.96549  -4574597.91449  20019059.5004   20019064.1414
 96  7 11 17 26 29.9900000  0  6  6 16 24  5  4  9
  21533320.052    -9472268.56949  -7351705.34649  21533323.2854   21533328.8184
  21760158.697   -11306424.43549  -8788813.74149  21760159.8564   21760164.7464
  17684803.762   -23719951.32449 -18458058.04949  17684806.5044   17684810.7754
  17638130.291   -27100844.23249 -21103465.00849  17638132.1284   17638136.1974
  19186635.972    -8912075.53849  -6536675.42249  19186637.9284   19186641.6784
  20020972.111    -5872456.77049  -4566753.36049  20020975.5874   20020979.4174
 96  7 11 17 26 59.9900000  0  6  6 16 24  5  4  9
  21504103.306    -9625804.94549  -7471344.04149  21504104.8394   21504111.1984
  21726745.882   -11482017.67749  -8925639.55449  21726745.1764   21726749.8884
  17672385.571   -23785208.19149 -18508907.55149  17672388.6424   17672393.1934
  17618795.131   -27202450.51949 -21182638.73749  17618797.2984   17618801.4004
  19186807.665    -8911163.84549  -6535965.03649  19186811.4904   19186815.2014
  20022926.941    -5862181.30349  -4558746.53749  20022930.2934   20022935.6144
 96  7 11 17 27 29.9900000  0  6  6 16 24  5  4  9
  21474895.791    -9779298.57249  -7590949.44049  21474896.6194   21474902.4194
  21693318.769   -11657669.99349  -9062511.41549  21693319.0954   21693325.2194
  17660056.435   -23850000.62849 -18559395.15849  17660059.0674   17660063.4404
  17599542.487   -27303626.06149 -21261476.81749  17599544.2354   17599548.3594
  19187037.165    -8909965.45949  -6535031.25049  19187039.5884   19187043.4324
  20024918.698    -5851715.65349  -4550591.51849  20024921.3264   20024927.2544
 96  7 11 17 27 59.9900000  0  6  6 16 24  5  4  9
  21445691.753    -9932764.92149  -7710533.58849  21445693.5554   21445698.5584
  21659874.564   -11833404.30049  -9199447.15049  21659876.6034   21659883.4574
  17647809.207   -23914359.56949 -18609544.98149  17647812.0874   17647816.3864
  17580368.003   -27404383.59149 -21339989.18149  17580370.6104   17580374.8204
  19187314.614    -8908503.33949  -6533891.94849  19187317.7434   19187321.4564
  20026940.587    -5841092.97949  -4542314.14649  20026943.0814   20026948.2574
 96  7 11 17 28 29.9900000  0  6  6 16 24  5  4  9
  21416502.327   -10086160.22149  -7830062.33949  21416503.8604   21416509.6514
  21626426.012   -12009177.63749  -9336413.31849  21626428.2264   21626435.7104
  17635651.343   -23978249.39649 -18659329.25849  17635654.2674   17635658.6754
  17561280.921   -27504690.25449 -21418150.22249  17561283.1504   17561287.0454
  19187650.095    -8906745.41249  -6532522.14349  19187652.3864   19187656.0004
  20028997.400    -5830278.41549  -4533887.23349  20029001.8834   20029006.7614
 96  7 11 17 28 59.9900000  0  6  6 16 24  5  4  9
  21387308.348   -10239558.62649  -7949593.51349  21387312.5314   21387317.7684
  21592957.115   -12185060.62049  -9473464.92949  21592958.9104   21592964.9274
  17623571.511   -24041729.63849 -18708794.37549  17623574.4054   17623578.8474
  17542267.078   -27604608.20749 -21496008.37049  17542269.1014   17542273.3904
  19188030.412    -8904744.18249  -6530962.76449  19188033.3354   19188036.7644
  20031086.859    -5819309.94949  -4525340.41549  20031088.5674   20031093.0094
 96  7 11 17 29 29.9900000  0  6  6 16 24  5  4  9
  21358127.631   -10392913.17549  -8069090.57449  21358130.8724   21358135.3484
  21559479.301   -12360992.73049  -9610554.82949  21559479.9094   21559486.5124
  17611581.870   -24104735.39449 -18757889.77049  17611584.7494   17611588.9434
  17523340.548   -27704072.40049 -21573512.94649  17523341.7304   17523345.8754
  19188468.886    -8902439.67249  -6529167.05649  19188471.6224   19188475.6854
  20033218.150    -5808110.22349  -4516613.39749  20033220.2324   20033225.2324
 96  7 11 17 29 59.9900000  0  6  6 16 24  5  4  9
  21328956.426   -10546214.96149  -8188546.46949  21328958.1574   21328963.4824
  21525995.574   -12536945.99049  -9747661.21349  21525997.1244   21526004.1214
  17599685.244   -24167252.15549 -18806604.12749  17599687.9624   17599692.7084
  17504499.097   -27803080.37449 -21650662.02349  17504501.2704   17504505.4454
  19188967.847    -8899818.94349  -6527124.95049  19188970.9254   19188974.1444
  20035397.096    -5796651.17249  -4507684.29349  20035400.5074   20035406.0224
 96  7 11 17 30 29.9900000  0  6  6 16 24  5  4  9
  21299793.127   -10699468.14049  -8307964.46149  21299794.3344   21299800.4474
  21492512.607   -12712903.09449  -9884770.59449  21492515.2254   21492520.6534
  17587883.833   -24229270.20849 -18854929.87849  17587886.3914   17587890.8464
  17485744.438   -27901640.32149 -21727461.98649  17485745.7754   17485749.7264
  19189529.380    -8896870.18449  -6524827.22949  19189531.4654   19189535.2254
  20037629.117    -5784929.28849  -4498550.39949  20037630.7974   20037635.9344
 96  7 11 17 30 59.9900000  0  6  6 16 24  5  4  9
  21270627.353   -10852715.93549  -8427378.30249  21270631.9544   21270638.0714
  21459022.231   -12888896.40249 -10021908.17849  21459024.0624   21459029.4244
  17576168.393   -24290833.51249 -18902901.27849  17576171.4094   17576175.8134
  17467065.522   -27999796.01449 -21803946.94849  17467067.8214   17467071.6274
  19190142.822    -8893640.25849  -6522310.42749  19190146.1164   19190149.9294
  20039898.694    -5772997.18949  -4489252.69749  20039902.3024   20039906.2834
 96  7 11 17 31 29.9900000  0  6  6 16 24  5  4  9
  21241479.618   -11005903.85349  -8546745.44749  21241480.2924   21241487.0404
  21425533.275   -13064882.38549 -10159040.03749  21425534.4964   21425540.5884
  17564547.617   -24351901.61549 -18950486.80949  17564550.4274   17564555.0624
  17448470.578   -28097514.63049 -21880091.32749  17448472.3684   17448476.2554
  19190812.971    -8890117.11149  -6519565.12349  19190816.8144   19190820.1704
  20042214.073    -5760834.26349  -4479775.13349  20042217.0334   20042220.9514
 96  7 11 17 31 59.9900000  0  6  6 16 24  5  4  9
  21212343.692   -11159011.31649  -8666049.92449  21212346.5014   21212352.2834
  21392047.540   -13240853.98149 -10296160.67649  21392048.4174   21392053.6294
  17553022.409   -24412466.87649 -18997680.51949  17553025.1854   17553029.8024
  17429958.472   -28194792.99349 -21955892.65749  17429960.7684   17429964.9034
  19191538.096    -8886311.08549  -6516599.41349  19191541.2704   19191544.5804
  20044574.112    -5748440.76849  -4470117.90349  20044574.6704   20044579.5964
 96  7 11 17 32 29.9900000  0  6  6 16 24  5  4  9
  21183265.709   -11311815.42749  -8785118.02249  21183268.6364   21183275.3274
  21358602.564   -13416597.59549 -10433103.66649  21358605.4544   21358610.9634
  17541635.532   -24472302.75349 -19044305.88349  17541638.7714   17541643.3444
  17411575.733   -28291395.78949 -22031167.56749  17411578.0414   17411582.1444
  19192357.362    -8882004.46649  -6513243.62849  19192361.0964   19192364.5634
  20047017.955    -5735594.75249  -4460108.07049  20047019.5634   20047025.0034
 96  7 11 17 32 59.9900000  0  6  6 16 24  5  4  9
  21154180.188   -11464660.26949  -8904217.84649  21154183.4234   21154187.5894
  21325135.616   -13592472.95449 -10570149.30849  21325137.6274   21325142.6534
  17530322.172   -24531758.42649 -19090634.97449  17530324.9284   17530329.6634
  17393255.583   -28387670.95249 -22106187.17049  17393257.6494   17393261.5164
  19193201.414    -8877567.64349  -6509786.38549  19193204.7024   19193208.5834
  20049479.186    -5722647.48949  -4450019.32249  20049483.5714   20049489.0784
 96  7 11 17 33 29.9900000  0  6  6 16 24  5  4  9
  21125101.442   -11617475.39049  -9023294.56849  21125103.8804   21125109.2414
  21291654.137   -13768418.50749 -10707249.66149  21291655.8354   21291661.9804
  17519092.074   -24590771.76049 -19136619.38549  17519095.1534   17519099.4844
  17375009.853   -28483549.79549 -22180897.95949  17375012.3264   17375016.5634
  19194084.688    -8872930.56049  -6506173.08449  19194087.0954   19194091.0074
  20051977.863    -5709526.15549  -4439794.93649  20051980.2014   20051984.7504
 96  7 11 17 33 59.9900000  0  6  6 16 24  5  4  9
  21096027.220   -11770253.78249  -9142342.59149  21096030.2604   21096036.5924
  21258164.205   -13944402.34049 -10844379.85449  21258167.3244   21258172.8834
  17507949.673   -24649328.48549 -19182248.00349  17507952.2614   17507956.6404
  17356845.577   -28579006.47949 -22255279.79849  17356847.5334   17356851.6904
  19195014.054    -8868043.52949  -6502365.02749  19195017.2874   19195020.9144
  20054510.894    -5696215.03349  -4429422.66849  20054512.8844   20054518.0994
 96  7 11 17 34 29.9900000  0  6  6 16 24  5  4  9
  21066958.312   -11923019.96149  -9261381.13949  21066960.9104   21066965.6304
  21224668.398   -14120438.63249 -10981550.93649  21224668.8974   21224673.7444
  17496889.405   -24707448.79549 -19227536.55449  17496891.9774   17496896.7844
  17338760.062   -28674043.83049 -22329334.88149  17338762.5634   17338766.7644
  19195992.588    -8862907.44749  -6498362.90749  19195994.7244   19195998.5824
  20057073.146    -5682750.36749  -4418930.74549  20057075.9244   20057080.6804
 96  7 11 17 34 59.9900000  0  6  6 16 24  5  4  9
  21037889.310   -12075784.89049  -9380418.76149  21037889.9374   21037894.3084
  21191156.990   -14296526.11549 -11118761.90849  21191160.2104   21191166.4684
  17485908.542   -24765152.42749 -19272500.42449  17485911.5304   17485915.8794
  17320754.162   -28768669.06049 -22403068.83049  17320755.9624   17320760.1694
  19197015.280    -8857526.14749  -6494169.69749  19197018.8344   19197022.3354
  20059658.347    -5669164.41749  -4408344.32449  20059660.9844   20059666.1994
 96  7 11 17 35 29.9900000  0  6  6 16 24  5  4  9
  21008814.453   -12228551.57049  -9499457.62549  21008819.4854   21008823.4394
  21157644.861   -14472644.54549 -11255996.98749  21157645.1784   21157651.3624
  17475006.897   -24822438.40249 -19317138.84549  17475010.3174   17475014.7774
  17302831.372   -28862855.46949 -22476460.84149  17302832.7154   17302837.0264
  19198092.321    -8851871.44249  -6489763.44849  19198094.8614   19198098.9344
  20062267.358    -5655455.92149  -4397662.43749  20062269.5774   20062274.6874
 96  7 11 17 35 59.9900000  0  6  6 16 24  5  4  9
  20979751.173   -12381303.43449  -9618485.04449  20979751.8614   20979756.4344
  21124129.812   -14648761.02049 -11393230.54749  21124130.8984   21124137.0224
  17464191.783   -24879273.49249 -19361425.92949  17464194.9724   17464199.5184
  17284998.875   -28956562.22249 -22549479.08949  17285001.2324   17285005.0904
  19199223.550    -8845927.80249  -6485132.06649  19199225.8834   19199230.1944
  20064901.278    -5641611.20949  -4386874.39849  20064904.0424   20064908.9904
 96  7 11 17 36 29.9900000  0  6  6 16 24  5  4  9
  20950688.215   -12534028.13449  -9737491.27149  20950689.1574   20950694.0114
  21090616.210   -14824875.06949 -11530462.22449  21090619.0984   21090625.4174
  17453463.692   -24935651.15049 -19405356.57149  17453466.7054   17453471.1404
  17267258.704   -29049788.81549 -22622123.19849  17267260.9214   17267264.7174
  19200404.310    -8839721.58349  -6480296.06649  19200406.9154   19200410.7634
  20067562.909    -5627619.24849  -4375971.62549  20067566.3604   20067573.1124
 96  7 11 17 36 59.9890000  0  6  6 16 24  5  4  9
  20921628.282   -12686741.75649  -9856488.85149  20921629.3814   20921633.2454
  21057104.239   -15000991.29949 -11667695.61249  21057104.6774   21057110.8354
  17442820.727   -24991583.40949 -19448940.14749  17442823.3154   17442827.4354
  17249604.341   -29142560.63649 -22694412.93649  17249606.9384   17249610.5074
  19201625.709    -8833296.99549  -6475289.91449  19201629.5834   19201633.3654
  20070256.090    -5613475.35749  -4364950.48049  20070257.5214   20070262.5414
 96  7 11 17 37 29.9890000  0  6  6 16 24  5  4  9
  20892567.541   -12839436.06849  -9975471.40149  20892570.8554   20892577.9724
  21023589.694   -15177092.52449 -11804917.28649  21023593.7004   21023599.2454
  17432266.229   -25047042.82149 -19492155.27149  17432269.4854   17432274.1374
  17232039.625   -29234867.25349 -22766340.17749  17232041.4704   17232045.5314
  19202891.178    -8826656.27149  -6470115.34549  19202893.2724   19202897.3274
  20072983.423    -5599141.87649  -4353781.58849  20072986.5994   20072991.1454
 96  7 11 17 37 59.9890000  0  6  6 16 24  5  4  9
  20863522.179   -12992080.62949 -10094415.18049  20863524.9724   20863529.7534
  20990089.768   -15353149.45149 -11942104.45549  20990091.8264   20990096.5814
  17421808.393   -25102003.95749 -19534982.13549  17421810.8294   17421815.2624
  17214562.573   -29326706.70549 -22837903.39149  17214564.9274   17214568.9234
  19204195.554    -8819796.77949  -6464770.29949  19204198.5564   19204202.6164
  20075752.062    -5584591.09249  -4342443.35849  20075755.1264   20075759.9184
 96  7 11 17 38 29.9890000  0  6  6 16 24  5  4  9
  20834483.965   -13144677.30749 -10213321.66749  20834485.0544   20834491.8984
  20956595.783   -15529166.96549 -12079260.93049  20956596.6984   20956602.3824
  17411440.985   -25156483.94649 -19577434.07949  17411443.5864   17411448.1454
  17197172.091   -29418096.93449 -22909116.56649  17197174.0254   17197178.2224
  19205540.817    -8812727.54149  -6459261.82249  19205543.7844   19205547.6354
  20078561.782    -5569827.92249  -4330939.62849  20078564.6054   20078569.3244
 96  7 11 17 38 59.9890000  0  6  6 16 24  5  4  9
  20805449.174   -13297256.23849 -10332214.28649  20805450.7414   20805458.4564
  20923103.212   -15705161.54349 -12216399.50849  20923106.3224   20923111.3474
  17401160.485   -25210506.55849 -19619529.61549  17401163.4084   17401167.8794
  17179863.336   -29509055.36649 -22979993.26949  17179865.2714   17179869.3224
  19206925.287    -8805452.68149  -6453593.11149  19206928.2194   19206932.1754
  20081405.852    -5554889.47249  -4319299.30649  20081407.0384   20081411.7494
 96  7 11 17 39 29.9890000  0  6  6 16 24  5  4  9
  20776423.626   -13449788.92549 -10451070.89349  20776425.8284   20776430.7854
  20889620.316   -15881112.77849 -12353504.32649  20889621.9034   20889629.4324
  17390970.054   -25264057.73449 -19661257.80249  17390973.2304   17390977.4294
  17162644.386   -29599542.82849 -23050502.98049  17162645.9874   17162649.9924
  19208359.147    -8797920.21349  -6447723.67449  19208361.2514   19208365.6644
  20084281.429    -5539768.91349  -4307517.08649  20084284.5984   20084290.5744
 96  7 11 17 39 59.9890000  0  6  6 16 24  5  4  9
  20747420.725   -13602198.47649 -10569831.53849  20747422.7104   20747427.5994
  20856156.522   -16056966.75749 -12490533.37549  20856158.9044   20856165.4284
  17380879.456   -25317085.56249 -19702578.19249  17380882.2384   17380886.5404
  17145529.065   -29689479.74249 -23120583.69649  17145531.5524   17145535.5264
  19209856.635    -8790049.39749  -6441590.59549  19209859.3524   19209862.8974
  20087204.497    -5524407.46649  -4295547.15949  20087208.1064   20087212.7124
 96  7 11 17 40 29.9890000  0  6  6 16 24  5  4  9
  20718429.134   -13754541.46649 -10688540.34849  20718432.6564   20718439.3204
  20822702.458   -16232783.20249 -12627533.16749  20822702.0114   20822707.6634
  17370876.786   -25369648.42949 -19743536.27549  17370879.8074   17370883.9594
  17128512.358   -29778908.56649 -23190268.50249  17128513.8394   17128517.7524
  19211407.538    -8781896.82449  -6435237.96149  19211410.6784   19211414.4114
  20090160.218    -5508878.82849  -4283446.95949  20090162.4264   20090167.7674
 96  7 11 17 40 59.9890000  0  6  6 16 24  5  4  9
  20689453.354   -13906822.61149 -10807200.92749  20689455.1774   20689461.3264
  20789250.269   -16408565.11449 -12764506.04849  20789252.0604   20789257.9834
  17360962.239   -25421749.37449 -19784134.41349  17360965.3284   17360969.7764
  17111589.278   -29867835.81249 -23259562.46449  17111591.8034   17111595.5384
  19213014.186    -8773457.61649  -6428661.97549  19213016.7514   19213020.7004
  20093144.762    -5493186.23249  -4271219.01949  20093148.4934   20093154.0034
 96  7 11 17 41 29.9890000  0  6  6 16 24  5  4  9
  20660493.181   -14059009.23749 -10925787.86649  20660494.5444   20660498.7914
  20755812.525   -16584282.54149 -12901428.69149  20755814.7354   20755820.8034
  17351139.337   -25473368.86349 -19824357.39649  17351142.3134   17351146.7924
  17094768.419   -29956234.22949 -23328444.35149  17094770.1764   17094774.0024
  19214674.506    -8764727.51649  -6421859.32749  19214678.2154   19214682.1354
  20096167.631    -5477308.24349  -4258846.62849  20096170.6854   20096176.3594
 96  7 11 17 41 59.9890000  0  6  6 16 24  5  4  9
  20631545.921   -14211115.09249 -11044311.89649  20631548.7814   20631554.9484
  20722383.504   -16759936.30749 -13038301.72849  20722388.4524   20722394.9694
  17341406.984   -25524512.60549 -19864209.66649  17341410.2044   17341414.5404
  17078042.063   -30044130.32749 -23396934.82449  17078043.8334   17078047.9024
  19216386.194    -8755737.19449  -6414853.89649  19216388.5244   19216392.4094
  20099223.003    -5461264.39049  -4246345.00949  20099223.5344   20099229.1614
 96  7 11 17 42 29.9890000  0  6  6 16 24  5  4  9
  20602617.734   -14363147.39949 -11162778.58849  20602619.1894   20602623.9434
  20688973.183   -16935519.45149 -13175119.71049  20688975.9094   20688982.2964
  17331766.170   -25575177.78449 -19903689.02549  17331769.1704   17331773.2174
  17061407.641   -30131544.18549 -23465049.51949  17061409.6224   17061413.6004
  19218143.202    -8746497.08349  -6407653.84949  19218146.5164   19218150.8194
  20102302.383    -5445061.86549  -4233719.72049  20102306.3194   20102310.5554
 96  7 11 17 42 59.9890000  0  6  6 16 24  5  4  9
  20573702.418   -14515084.27549 -11281170.90949  20573704.7374   20573712.0384
  20655581.288   -17111004.08949 -13311860.96749  20655581.8384   20655588.0144
  17322217.932   -25625352.83849 -19942786.47349  17322220.8914   17322225.2094
  17044866.397   -30218467.46449 -23532781.94849  17044868.6014   17044872.5314
  19219952.445    -8736993.98649  -6400248.86149  19219955.8234   19219959.1894
  20105421.298    -5428682.96749  -4220956.99849  20105423.6604   20105427.6164
 96  7 11 17 43 29.9890000  0  6  6 16 24  5  4  9
  20544806.846   -14666938.90949 -11399499.18249  20544808.9744   20544814.3444
  20622204.736   -17286394.81049 -13448529.03949  20622205.6374   20622211.9504
  17312760.036   -25675053.66349 -19981514.39449  17312763.2104   17312767.4734
  17028417.253   -30304906.64149 -23600137.15549  17028419.7064   17028423.8034
  19221807.259    -8727248.38449  -6392654.91649  19221809.6954   19221814.2344
  20108566.901    -5412149.07149  -4208073.46549  20108569.9564   20108573.1054
 96  7 11 17 43 59.9890000  0  6  6 16 24  5  4  9
  20515925.950   -14818703.76949 -11517757.47149  20515928.6914   20515935.8324
  20588847.420   -17461685.66049 -13585119.29049  20588849.6044   20588855.0934
  17303394.815   -25724268.61349 -20019863.70949  17303397.9614   17303402.0974
  17012060.808   -30390862.50849 -23667115.76049  17012062.8954   17012066.9884
  19223710.243    -8717244.71049  -6384859.86949  19223714.0354   19223717.5764
  20111746.912    -5395445.28549  -4195057.58049  20111749.5104   20111753.8334
 96  7 11 17 44 29.9890000  0  6  6 16 24  5  4  9
  20487062.923   -14970392.27249 -11635956.24649  20487063.9474   20487069.4914
  20555505.856   -17636892.37249 -13721643.97049  20555508.8264   20555515.7654
  17294116.742   -25773026.31049 -20057856.71849  17294119.6234   17294123.9864
  16995792.974   -30476349.95749 -23733729.35949  16995795.3694   16995799.3774
  19225660.755    -8707002.68249  -6376879.09649  19225662.4324   19225666.6694
  20114953.411    -5378593.73849  -4181926.53049  20114955.7344   20114960.4364
 96  7 11 17 44 59.9890000  0  6  6 16 24  5  4  9
  20458210.683   -15122004.31349 -11754095.46249  20458212.6114   20458219.2314
  20522186.685   -17812003.11749 -13858093.87549  20522187.1824   20522191.8944
  17284925.770   -25821326.29049 -20095493.07049  17284928.5734   17284932.8834
  16979619.961   -30561340.58549 -23799955.82349  16979622.1184   16979626.2544
  19227655.994    -8696513.61149  -6368705.81949  19227658.7224   19227662.8804
  20118186.176    -5361599.39949  -4168684.23249  20118189.1714   20118194.1424
 96  7 11 17 45 29.9890000  0  6  6 16 24  5  4  9
  20429373.438   -15273540.63749 -11872175.66049  20429377.4654   20429382.8484
  20488877.407   -17987031.10049 -13994479.28249  20488879.7484   20488886.7854
  17275819.901   -25869175.58249 -20132778.23549  17275823.1124   17275827.6264
  16963545.131   -30645815.41849 -23865780.37449  16963547.2054   16963551.1974
  19229697.275    -8685783.87249  -6360345.00349  19229700.3334   19229704.3224
  20121445.705    -5344463.41949  -4155331.54849  20121449.7944   20121455.1804
 96  7 11 17 45 59.9890000  0  6  6 16 24  5  4  9
  20400544.692   -15425038.16549 -11990225.65149  20400547.5684   20400554.1194
  20455579.072   -18162021.29649 -14130835.22249  20455579.8864   20455586.6994
  17266792.651   -25916618.31349 -20169746.59849  17266795.1434   17266799.5644
  16947563.207   -30729802.13049 -23931224.57349  16947565.0614   16947568.9914
  19231774.719    -8674867.35949  -6351838.66249  19231777.6774   19231781.9044
  20124725.469    -5327224.17349  -4141898.40849  20124729.8424   20124735.9144
 96  7 11 17 46 29.9890000  0  6  6 16 24  5  4  9
  20371721.618   -15576508.56149 -12108254.49549  20371724.4884   20371728.8234
  20422284.618   -18336984.61549 -14267170.22749  20422285.1184   20422292.8734
  17257838.326   -25963670.77449 -20206410.85349  17257841.3324   17257845.8234
  16931675.267   -30813294.09349 -23996283.25049  16931677.0544   16931680.8644
  19233884.526    -8663780.42149  -6343199.52549  19233887.6534   19233890.8604
  20128027.804    -5309887.76749  -4128389.58749  20128029.6804   20128036.2634
 96  7 11 17 46 59.9880000  0  6  6 16 24  5  4  9
  20342909.189   -15727931.90049 -12226246.66049  20342909.9324   20342914.6244
  20388999.189   -18511899.40049 -14403467.40949  20389001.9274   20389006.8414
  17248962.529   -26010312.93349 -20242755.39549  17248965.5064   17248969.9374
  16915887.021   -30896264.34549 -24060935.40049  16915888.2824   16915892.0194
  19236030.842    -8652502.26649  -6334411.36749  19236034.0254   19236037.4894
  20131349.714    -5292421.62049  -4114779.69449  20131353.3624   20131359.3364
 96  7 11 17 47 29.9880000  0  6  6 16 24  5  4  9
  20314100.486   -15879310.02849 -12344203.59949  20314103.7794   20314107.3634
  20355725.181   -18686762.59649 -14539724.39849  20355725.2934   20355732.1024
  17240165.738   -26056538.23149 -20278775.10449  17240169.1034   17240173.3434
  16900191.767   -30978738.57249 -24125201.03649  16900193.9404   16900197.8254
  19238212.731    -8641040.23649  -6325479.95149  19238214.9264   19238218.7854
  20134703.385    -5274804.05249  -4101051.76649  20134704.8354   20134711.4974
 96  7 11 17 47 59.9880000  0  6  6 16 24  5  4  9
  20285302.618   -16030646.46449 -12462128.04749  20285304.4094   20285310.0484
  20322461.370   -18861550.23149 -14675922.49649  20322463.9814   20322471.2424
  17231452.068   -26102329.36449 -20314456.50849  17231455.1354   17231459.8474
  16884588.472   -31060734.15049 -24189093.69849  16884590.6454   16884594.6504
  19240429.161    -8629382.58049  -6316396.08249  19240433.3484   19240437.5394
  20138081.064    -5257035.51949  -4087206.22549  20138086.7274   20138092.9314
 96  7 11 17 48 29.9880000  0  6  6 16 24  5  4  9
  20256520.805   -16181888.59649 -12579979.02749  20256522.5304   20256529.3864
  20289230.362   -19036188.18549 -14812003.97749  20289231.0024   20289238.7144
  17222831.336   -26147634.16849 -20349758.95549  17222834.0634   17222838.4834
  16869082.798   -31142217.96049 -24252587.58049  16869084.6974   16869088.9184
  19242701.075    -8617452.61449  -6307100.02049  19242703.8284   19242707.6364
  20141505.028    -5239068.16949  -4073205.73849  20141506.5444   20141511.5004
 96  7 11 17 48 59.9880000  0  6  6 16 24  5  4  9
  20227742.216   -16333130.41149 -12697829.75349  20227743.8844   20227747.9874
  20256008.501   -19210759.28649 -14948033.34449  20256011.3374   20256017.1304
  17214285.676   -26192539.40449 -20384750.04349  17214288.6754   17214293.3094
  16853654.020   -31223294.30649 -24315763.95549  16853656.3624   16853660.6244
  19245006.047    -8605342.40749  -6297663.53049  19245008.0184   19245012.3524
  20144940.255    -5221015.53649  -4059138.80949  20144941.7044   20144947.3524
 96  7 11 17 49 29.9880000  0  6  6 16 24  5  4  9
  20198963.068   -16484347.11349 -12815660.90749  20198967.5894   20198972.9484
  20222808.059   -19385238.49949 -15083991.14549  20222809.9194   20222816.4384
  17205822.309   -26237018.44249 -20419409.03649  17205825.0364   17205829.3124
  16838309.936   -31303930.90149 -24378597.66949  16838311.7974   16838315.9204
  19247347.533    -8593036.62449  -6288074.63449  19247349.8594   19247354.4314
  20148392.918    -5202874.04249  -4045002.62749  20148394.5334   20148399.3364
 96  7 11 17 49 59.9880000  0  6  6 16 24  5  4  9
  20170189.845   -16635554.01849 -12933484.42949  20170193.9034   20170198.6354
  20189616.627   -19559657.06149 -15219901.65249  20189618.8674   20189625.4534
  17197433.851   -26281097.96549 -20453756.71849  17197436.8434   17197441.3684
  16823049.908   -31384121.41649 -24441083.78449  16823052.1244   16823056.1454
  19249723.951    -8580542.82749  -6278339.23249  19249727.6924   19249731.7464
  20151852.508    -5184686.49149  -4030830.56249  20151854.5784   20151860.2074
 96  7 11 17 50 29.9880000  0  6  6 16 24  5  4  9
  20141445.234   -16786619.45749 -13051197.71749  20141446.4974   20141452.8624
  20156461.361   -19733894.51249 -15355671.05849  20156462.1084   20156468.2274
  17189144.425   -26324659.26349 -20487700.58849  17189147.2744   17189151.8444
  16807901.848   -31463727.57349 -24503114.56149  16807903.6804   16807907.5674
  19252160.313    -8567747.58949  -6268368.94549  19252162.2304   19252166.8264
  20155342.663    -5166337.99349  -4016533.10049  20155346.1694   20155351.4244
 96  7 11 17 50 59.9880000  0  6  6 16 24  5  4  9
  20112712.374   -16937600.55649 -13168845.29149  20112715.9274   20112720.9134
  20123326.421   -19908014.86149 -15491349.19149  20123327.6074   20123334.0494
  17180944.639   -26367746.83949 -20521275.32349  17180947.6344   17180952.2144
  16792858.191   -31542779.86149 -24564713.74949  16792860.6044   16792864.5124
  19254638.078    -8554724.82249  -6258221.35649  19254640.5054   19254645.0784
  20158853.732    -5147889.56649  -4002157.74649  20158857.7254   20158863.0644
 96  7 11 17 51 29.9880000  0  6  6 16 24  5  4  9
  20083995.930   -17088523.50149 -13286447.55049  20083996.7514   20084001.8594
  20090209.302   -20082043.68049 -15626956.04249  20090212.3964   20090217.9144
  17172829.022   -26410395.63449 -20554508.15249  17172832.1234   17172836.9384
  16777914.973   -31621305.67449 -24625902.69849  16777917.5414   16777921.4994
  19257154.457    -8541503.12449  -6247918.75849  19257156.6084   19257160.3334
  20162379.508    -5129368.15549  -3987725.51649  20162382.2224   20162387.5324
 96  7 11 17 51 59.9880000  0  6  6 16 24  5  4  9
  20055286.747   -17239379.86349 -13403997.92149  20055289.9214   20055295.6754
  20057113.285   -20255962.79849 -15762477.38249  20057114.7214   20057121.1064
  17164797.996   -26452600.73449 -20587395.24249  17164800.9514   17164805.5904
  16763071.531   -31699307.26449 -24686683.16149  16763074.3274   16763078.3854
  19259707.945    -8528078.67449  -6237458.16749  19259711.5164   19259715.0194
  20165921.291    -5110751.72449  -3973219.25749  20165925.0194   20165930.2294
 96  7 11 17 52 29.9880000  0  6  6 16 24  5  4  9
  20026594.664   -17390147.81049 -13521479.39449  20026598.6024   20026603.2004
  20024048.008   -20429733.12549 -15897882.79849  20024049.5974   20024054.6844
  17156855.703   -26494338.06649 -20619917.83449  17156858.7284   17156863.0604
  16748331.124   -31776772.02349 -24747045.31349  16748333.1894   16748337.0754
  19262305.538    -8514438.77149  -6226829.69749  19262306.3954   19262310.6454
  20169488.541    -5091998.41249  -3958606.37049  20169493.1944   20169498.7584
 96  7 11 17 52 59.9880000  0  6  6 16 24  5  4  9
  19997919.314   -17540844.13749 -13638905.04449  19997923.5314   19997927.5534
  19991003.055   -20603369.93249 -16033184.16649  19991006.4654   19991011.9874
  17148995.755   -26535639.07249 -20652100.44249  17148998.9714   17149003.5194
  16733687.441   -31853725.91649 -24807009.39449  16733689.3464   16733693.4154
  19264935.270    -8500615.18449  -6216058.07749  19264937.2634   19264941.3184
  20173082.195    -5073125.44749  -3943900.23549  20173085.3714   20173091.4044
 96  7 11 17 53 29.9880000  0  6  6 16 24  5  4  9
  19969252.326   -17691498.15649 -13756297.72849  19969254.3654   19969259.3714
  19957983.495   -20776902.31949 -16168404.17049  19957984.8914   19957990.5274
  17141211.140   -26576549.54149 -20683978.73149  17141214.3274   17141218.5964
  16719131.117   -31930219.85149 -24866615.05849  16719133.2784   16719137.3684
  19267589.973    -8486658.42249  -6205182.70149  19267592.8814   19267597.3354
  20176690.916    -5054156.37849  -3929119.19749  20176694.7394   20176700.0094
 96  7 11 17 53 59.9880000  0  6  6 16 24  5  4  9
  19940596.633   -17842082.00749 -13873635.76349  19940599.3804   19940603.9094
  19924985.886   -20950297.46849 -16303517.22449  19924988.7254   19924994.4384
  17133506.790   -26617041.38749 -20715530.82349  17133508.9894   17133513.2204
  16704668.084   -32006218.66349 -24925834.92249  16704671.0614   16704674.9574
  19270276.820    -8472544.99549  -6194185.25649  19270278.2544   19270283.1684
  20180324.228    -5035065.83449  -3914243.49349  20180326.4764   20180332.3434
 96  7 11 17 54 29.9880000  0  6  6 16 24  5  4  9
  19911951.317   -17992611.41149 -13990931.36449  19911953.8394   19911959.2514
  19892014.587   -21123570.43149 -16438535.08249  19892016.1164   19892021.0024
  17125877.275   -26657130.40949 -20746769.01949  17125880.1024   17125884.6734
  16690299.482   -32081733.61349 -24984677.74249  16690301.0054   16690305.1754
  19272990.992    -8458279.54449  -6183069.32749  19272994.0184   19272997.6174
  20183973.960    -5015889.36649  -3899300.83349  20183975.8024   20183982.9364
 96  7 11 17 54 59.9880000  0  6  6 16 24  5  4  9
  19883321.845   -18143068.77849 -14108170.82349  19883322.7784   19883328.6004
  19859066.180   -21296709.27149 -16573448.41949  19859067.4524   19859074.0834
  17118328.694   -26696798.86549 -20777679.50649  17118331.7164   17118335.9184
  16676024.982   -32156743.71049 -25043127.17249  16676026.8754   16676031.0774
  19275737.215    -8443852.04249  -6171827.15849  19275739.3874   19275743.0344
  20187638.149    -4996631.47049  -3884294.75849  20187640.8254   20187646.4264
 96  7 11 17 55 29.9880000  0  6  6 16 24  5  4  9
  19854700.993   -18293467.24749 -14225364.39549  19854703.3634   19854707.6014
  19826144.968   -21469710.29349 -16708254.35249  19826147.0854   19826153.5874
  17110860.029   -26736047.54349 -20808262.89249  17110862.9714   17110867.0744
  16661850.449   -32231230.59349 -25101168.90049  16661852.6964   16661856.5374
  19278517.482    -8429240.09349  -6160441.25449  19278519.6804   19278523.5324
  20191317.834    -4977302.00149  -3869232.87349  20191319.6394   20191323.5454
 96  7 11 17 55 59.9880000  0  6  6 16 24  5  4  9
  19826083.586   -18443855.60149 -14342550.08949  19826085.4714   19826088.4324
  19793244.188   -21642610.91349 -16842982.06449  19793246.0214   19793250.7074
  17103463.936   -26774913.37149 -20838547.95549  17103466.8344   17103471.2754
  16647771.665   -32305215.75149 -25158819.67449  16647773.8914   16647777.9264
  19281329.319    -8414452.31249  -6148918.33749  19281333.9264   19281337.6634
  20195001.729    -4957947.81249  -3854151.73949  20195003.0534   20195007.7674
 96  7 11 17 56 29.9880000  0  6  6 16 24  5  4  9
  19797467.198   -18594234.59049 -14459728.46949  19797469.6434   19797472.4094
  19760360.625   -21815413.29249 -16977633.19549  19760362.9064   19760367.8574
  17096139.329   -26813406.48349 -20868542.59149  17096141.7344   17096146.2224
  16633789.723   -32378694.01449 -25216075.47349  16633791.4674   16633795.1844
  19284177.510    -8399495.79049  -6137263.91849  19284179.2444   19284183.1794
  20198689.515    -4938556.73449  -3839041.87149  20198692.5594   20198697.5254
 96  7 11 17 56 59.9880000  0  6  6 16 24  5  4  9
  19768851.509   -18744606.94549 -14576901.69649  19768853.7224   19768858.6014
  19727495.609   -21988119.39249 -17112209.32449  19727495.8174   19727502.8964
  17088881.732   -26851543.63549 -20898259.86149  17088884.4914   17088888.9554
  16619902.296   -32451670.19049 -25272940.03249  16619904.6744   16619908.5554
  19287049.318    -8384394.87349  -6125496.99149  19287053.6204   19287057.3934
  20202386.325    -4919123.09249  -3823898.80849  20202389.7524   20202398.8554
 96  7 11 17 57 29.9870000  0  6  6 16 24  5  4  9
  19740239.919   -18894961.68349 -14694061.19449  19740242.1264   19740247.2324
  19694653.492   -22160707.90249 -17246693.82649  19694654.7404   19694660.3584
  17081691.193   -26889330.61349 -20927704.26449  17081694.0474   17081698.3344
  16606110.222   -32524150.05249 -25329417.85449  16606111.9574   16606116.0224
  19289953.802    -8369145.03749  -6113614.02649  19289955.4264   19289960.0614
  20206098.701    -4899631.78049  -3808710.82049  20206098.9454   20206104.1184
 96  7 11 17 57 59.9870000  0  6  6 16 24  5  4  9
  19711636.210   -19045271.94649 -14811186.02649  19711639.2864   19711643.8714
  19661832.982   -22333172.00949 -17381081.37249  19661835.8314   19661841.1624
  17074566.881   -26926768.92249 -20956876.97249  17074569.5984   17074573.9704
  16592408.331   -32596150.05249 -25385521.75649  16592410.8904   16592414.8684
  19292879.505    -8353764.55249  -6101629.26949  19292881.9024   19292886.6244
  20209817.885    -4880072.18949  -3793469.70649  20209823.4814   20209823.8644
 96  7 11 17 58 29.9870000  0  6  6 16 24  5  4  9
  19683050.431   -19195496.93849 -14928244.43249  19683052.7514   19683057.4844
  19629045.621   -22505478.20949 -17515345.87849  19629045.6994   19629052.6534
  17067511.893   -26963844.43349 -20985766.98049  17067514.3984   17067518.8084
  16578799.930   -32667663.45449 -25441246.48849  16578802.2314   16578806.2204
  19295830.854    -8338258.67949  -6089546.79449  19295833.6514   19295836.9224
  20213555.655    -4860440.07049  -3778172.02249  20213558.5494   20213562.9114
 96  7 11 17 58 59.9870000  0  6  6 16 24  5  4  9
  19654482.938   -19345615.86449 -15045220.17349  19654486.0174   19654490.2134
  19596291.262   -22677600.65749 -17649467.21849  19596292.4734   19596298.6194
  17060530.274   -27000532.47549 -21014355.06949  17060532.8174   17060537.2834
  16565285.182   -32738685.44849 -25496588.31049  16565287.2394   16565291.0054
  19298807.971    -8322605.39749  -6077349.46549  19298811.9564   19298815.3344
  20217302.090    -4840739.81949  -3762821.26849  20217306.0404   20217313.8574
 96  7 11 17 59 29.9870000  0  6  6 16 24  5  4  9
  19625936.883   -19495634.25649 -15162117.58849  19625938.7284   19625942.8354
  19563569.336   -22849540.31549 -17783446.10949  19563574.3974   19563579.6424
  17053623.059   -27036828.65149 -21042637.80449  17053625.9634   17053630.2304
  16551863.985   -32809213.89649 -25551545.55249  16551866.2744   16551870.3624
  19301816.816    -8306799.56549  -6065033.25149  19301819.5174   19301823.1564
  20221064.927    -4820987.61749  -3747429.95049  20221064.2924   20221072.9404
 96  7 11 17 59 59.9870000  0  6  6 16 24  5  4  9
  19597411.020   -19645534.08049 -15278922.59949  19597412.5404   19597418.9444
  19530892.669   -23021285.95349 -17917273.82849  19530891.9674   19530897.1124
  17046796.093   -27072703.09749 -21070591.91649  17046799.3764   17046803.7484
  16538542.098   -32879220.16949 -25606095.89849  16538544.3354   16538548.5444
  19304857.441    -8290816.03849  -6052578.56749  19304860.5114   19304865.2614
  20224833.074    -4801180.44249  -3731995.87149  20224835.6484   20224841.4984
 96  7 11 18  0 29.9870000  0  6  6 16 24  5  4  9
  19568896.297   -19795375.94349 -15395682.46449  19568899.7444   19568903.9504
  19498236.260   -23192874.68849 -18050979.27349  19498240.0704   19498245.4454
  17040046.928   -27108173.10449 -21098230.88049  17040049.6514   17040053.8944
  16525314.898   -32948730.86649 -25660260.08449  16525316.9804   16525321.1304
  19307931.362    -8274668.64349  -6039996.20249  19307933.7144   19307937.9154
  20228608.729    -4781348.28749  -3716542.28949  20228609.2894   20228614.5544
 96  7 11 18  0 59.9870000  0  6  6 16 24  5  4  9
  19540389.770   -19945180.54149 -15512413.27449  19540392.7734   19540397.0614
  19465615.413   -23364303.92749 -18184560.45749  19465617.6574   19465623.2614
  17033371.817   -27143246.66649 -21125560.93149  17033375.3064   17033379.8034
  16512179.959   -33017751.32049 -25714042.26649  16512182.8554   16512186.8594
  19311035.523    -8258358.06149  -6027286.66849  19311037.6224   19311040.8994
  20232386.655    -4761492.12349  -3701069.99549  20232388.5084   20232390.3624
 96  7 11 18  1 29.9870000  0  6  6 16 24  5  4  9
  19511893.351   -20094930.68849 -15629101.65949  19511895.2914   19511900.2994
  19433029.400   -23535543.51049 -18317993.84649  19433031.6854   19433038.0974
  17026779.888   -27177894.14149 -21152558.96149  17026782.3264   17026786.4664
  16499146.802   -33086242.45749 -25767411.99249  16499149.2884   16499153.3544
  19314173.939    -8241862.67249  -6014433.13749  19314176.7074   19314180.8164
  20236174.314    -4741579.23149  -3685553.48249  20236177.4424   20236183.9474
 96  7 11 18  1 59.9870000  0  6  6 16 24  5  4  9
  19483401.633   -20244646.72749 -15745763.47649  19483405.9414   19483411.3864
  19400473.765   -23706613.30849 -18451294.94249  19400477.4544   19400483.5884
  17020263.126   -27212138.95649 -21179243.23149  17020265.6474   17020270.1354
  16486209.768   -33154231.99049 -25820390.85749  16486211.3954   16486215.4494
  19317343.250    -8225205.93249  -6001453.87849  19317346.4944   19317351.1344
  20239971.060    -4721626.08649  -3670005.63249  20239972.9934   20239980.1494
 96  7 11 18  2 29.9870000  0  6  6 16 24  5  4  9
  19454917.763   -20394339.27549 -15862406.98249  19454920.0954   19454924.8984
  19367957.578   -23877507.69849 -18584459.36549  19367957.7574   19367963.9274
  17013820.958   -27245988.84549 -21205619.76849  17013824.1264   17013828.6824
  16473368.057   -33221713.53349 -25872973.88949  16473370.0044   16473374.2364
  19320538.346    -8208406.96949  -5988363.80249  19320542.4604   19320547.0034
  20243777.972    -4701624.28149  -3654419.86749  20243780.4384   20243786.9664
 96  7 11 18  2 59.9870000  0  6  6 16 24  5  4  9
  19426438.235   -20544001.15549 -15979026.59549  19426440.4644   19426444.6724
  19335468.006   -24048236.89149 -18717495.06549  19335468.5084   19335475.7764
  17007451.936   -27279459.78849 -21231701.02349  17007454.7654   17007459.4624
  16460623.858   -33288680.87349 -25925156.24249  16460626.8214   16460630.7434
  19323758.105    -8191496.33849  -5975186.72749  19323760.9784   19323765.3714
  20247587.069    -4681593.15849  -3638811.27449  20247591.0974   20247596.0664
 96  7 11 18  3 29.9870000  0  6  6 16 24  5  4  9
  19397971.764   -20693597.01049 -16095594.76049  19397971.7174   19397978.1964
  19303011.665   -24218798.46049 -18850400.13349  19303011.7294   19303017.6234
  17001158.360   -27312531.52949 -21257471.21249  17001161.4834   17001165.9564
  16447986.332   -33355093.18149 -25976906.10349  16447988.7044   16447992.8604
  19327002.118    -8174457.38249  -5961909.63549  19327003.3884   19327007.6664
  20251407.481    -4661522.34449  -3623171.77149  20251409.6024   20251417.5514
 96  7 11 18  3 59.9870000  0  6  6 16 24  5  4  9
  19369516.049   -20843135.63149 -16212118.30849  19369516.9544   19369521.9424
  19270581.176   -24389216.80249 -18983193.58949  19270583.6044   19270589.2914
  16994933.522   -27345245.35449 -21282962.50749  16994936.6324   16994940.9924
  16435450.377   -33420972.75449 -26028240.84849  16435452.3194   16435456.2484
  19330263.216    -8157314.63149  -5948551.65749  19330264.9234   19330268.8264
  20255229.288    -4641438.39749  -3607522.01049  20255233.0664   20255239.7004
 96  7 11 18  4 29.9870000  0  6  6 16 24  5  4  9
  19341068.362   -20992614.70549 -16328595.47449  19341071.6544   19341077.5244
  19238181.540   -24559479.52049 -19115865.78049  19238183.0694   19238188.8184
  16988774.846   -27377611.37449 -21308182.77849  16988777.3884   16988781.6734
  16423017.007   -33486309.93149 -26079152.94449  16423019.2784   16423023.2014
  19333543.091    -8140072.75749  -5935116.45849  19333546.6144   19333550.5084
  20259053.094    -4621346.92949  -3591866.39349  20259060.9474   20259061.1454
 96  7 11 18  4 59.9870000  0  6  6 16 24  5  4  9
  19312638.591   -21142026.06949 -16445019.87849  19312640.3454   19312645.3434
  19205810.331   -24729586.84449 -19248416.88749  19205812.5474   19205818.6464
  16982680.253   -27409634.34749 -21333135.74549  16982683.4604   16982687.8464
  16410684.698   -33551116.85249 -26129651.86049  16410686.9294   16410690.9534
  19336844.063    -8122726.66449  -5921600.05949  19336846.6674   19336851.9434
  20262875.187    -4601262.70849  -3576216.42449  20262876.2814   20262883.9864
 96  7 11 18  5 29.9870000  0  6  6 16 24  5  4  9
  19284221.528   -21291349.47149 -16561375.73749  19284224.1764   19284229.6944
  19173477.339   -24899495.89149 -19380813.51249  19173479.0334   19173485.4914
  16976656.880   -27441288.27249 -21357801.13849  16976660.0144   16976664.2904
  16398453.959   -33615390.30049 -26179735.07449  16398456.0344   16398459.8264
  19340172.735    -8105240.93349  -5907974.82849  19340174.1654   19340179.0784
  20266703.086    -4581150.20049  -3560544.43849  20266704.2954   20266711.9474
 96  7 11 18  5 59.9870000  0  6  6 16 24  5  4  9
  19255823.279   -21440590.66049 -16677667.54849  19255824.2764   19255829.7984
  19141187.506   -25069185.64149 -19513039.25549  19141187.7354   19141194.9604
  16970705.586   -27472565.95949 -21382173.36549  16970708.4304   16970712.8154
  16386320.096   -33679151.59149 -26229419.21449  16386322.6074   16386326.6314
  19343528.246    -8087609.23749  -5894235.85149  19343530.3314   19343534.0024
  20270538.579    -4560996.27949  -3544840.17349  20270540.6184   20270548.1074
 96  7 11 18  6 29.9870000  0  6  6 16 24  5  4  9
  19227438.428   -21589751.51249 -16793896.74049  19227441.0774   19227445.8114
  19108937.393   -25238654.51249 -19645092.87049  19108939.7134   19108945.5454
  16964828.530   -27503447.48249 -21406236.88949  16964831.4644   16964835.9534
  16374283.950   -33742404.55649 -26278707.24549  16374285.9204   16374290.2764
  19346913.078    -8069825.13449  -5880378.10949  19346914.8854   19346918.0134
  20274378.179    -4540810.97649  -3529111.45649  20274383.0544   20274387.5864
 96  7 11 18  6 59.9870000  0  6  6 16 24  5  4  9
  19199071.968   -21738814.41349 -16910049.61649  19199073.9694   19199080.4544
  19076733.746   -25407896.13649 -19776969.41849  19076734.4194   19076740.7654
  16959031.884   -27533913.26349 -21429976.45749  16959033.9864   16959038.3374
  16362346.768   -33805134.83749 -26327587.98849  16362348.6754   16362353.1514
  19350327.035    -8051874.16849  -5866390.34049  19350330.2734   19350334.9174
  20278227.486    -4520587.95849  -3513353.28249  20278228.6514   20278235.0514
 96  7 11 18  7 29.9870000  0  6  6 16 24  5  4  9
  19170721.684   -21887794.75249 -17026138.16149  19170725.6884   19170728.5684
  19044568.930   -25576915.06749 -19908672.43349  19044571.4674   19044576.9544
  16953308.757   -27563984.67049 -21453408.72449  16953311.6524   16953315.7714
  16350507.153   -33867350.96549 -26376068.09349  16350509.5614   16350513.3694
  19353772.901    -8033769.51949  -5852282.87949  19353774.3244   19353780.4534
  20282079.517    -4500348.85449  -3497582.58649  20282080.9544   20282087.5574
 96  7 11 18  7 59.9860000  0  6  6 16 24  5  4  9
  19142386.925   -22036697.91249 -17142166.55749  19142390.0254   19142395.1874
  19012449.049   -25745708.08449 -20040199.41149  19012451.2714   19012456.4724
  16947659.950   -27593666.58949 -21476537.48649  16947663.4344   16947667.9734
  16338768.454   -33929036.24549 -26424134.54649  16338770.9774   16338775.2044
  19357244.574    -8015519.25149  -5838061.93349  19357248.5884   19357253.4404
  20285930.496    -4480117.17549  -3481817.70649  20285932.7164   20285938.2004
 96  7 11 18  8 29.9860000  0  6  6 16 24  5  4  9
  19114069.570   -22185509.53349 -17258123.64149  19114071.4114   19114076.6404
  18980379.474   -25914245.90949 -20171527.55749  18980379.3624   18980385.2174
  16942090.210   -27622939.76449 -21499347.75349  16942092.9644   16942097.1864
  16327139.463   -33990151.72249 -26471757.00849  16327141.2834   16327145.2844
  19360749.730    -7997111.67549  -5823718.40949  19360751.4214   19360756.4894
  20289787.670    -4459862.39949  -3466034.81149  20289788.3964   20289793.7514
 96  7 11 18  8 59.9860000  0  6  6 16 24  5  4  9
  19085762.294   -22334265.00849 -17374036.94249  19085764.0364   19085769.8024
  18948352.886   -26082537.03349 -20302663.45549  18948354.3774   18948360.3554
  16936590.374   -27651843.11149 -21521869.83949  16936592.8154   16936597.0014
  16315610.982   -34050732.96649 -26518963.18849  16315613.1164   16315617.1244
  19364272.545    -7978586.44149  -5809283.20449  19364276.6664   19364280.8564
  20293644.234    -4439597.19449  -3450243.81249  20293640.5744   20293649.0064
 96  7 11 18  9 29.9860000  0  6  6 16 24  5  4  9
  19057464.048   -22482973.54749 -17489913.69649  19057465.6084   19057470.8184
  18916377.599   -26250563.90249 -20433593.45549  18916379.9304   18916386.1804
  16931158.976   -27680380.88749 -21544107.06449  16931162.2134   16931166.2614
  16304182.700   -34110787.56149 -26565758.98649  16304184.9324   16304189.1434
  19367820.624    -7959949.22149  -5794760.73649  19367823.4944   19367827.9434
  20297503.709    -4419306.06249  -3434432.64949  20297505.8804   20297510.6014
 96  7 11 18  9 59.9860000  0  6  6 16 24  5  4  9
  19029172.959   -22631642.89649 -17605759.88749  19029174.5104   19029180.6574
  18884448.942   -26418355.49749 -20564340.11349  18884450.5164   18884455.8714
  16925794.176   -27708575.35949 -21566076.78249  16925796.8394   16925801.3954
  16292852.005   -34170334.03449 -26612158.84649  16292853.7404   16292857.8534
  19371384.714    -7941223.55249  -5780169.33549  19371387.1874   19371390.7434
  20301369.291    -4398983.38449  -3418596.88749  20301372.1604   20301378.7964
 96  7 11 18 10 29.9860000  0  6  6 16 24  5  4  9
  19000894.934   -22780240.41649 -17721550.12749  19000897.3084   19000902.9294
  18852563.966   -26585908.98849 -20694901.23049  18852565.9544   18852570.8834
  16920492.674   -27736431.84149 -21587783.13149  16920495.9584   16920500.4244
  16281616.256   -34229375.77049 -26658165.40249  16281618.3194   16281622.5994
  19374966.158    -7922398.79549  -5765500.72949  19374968.8284   19374972.9604
  20305243.808    -4378612.42749  -3402723.50249  20305247.7344   20305253.9104
 96  7 11 18 10 59.9860000  0  6  6 16 24  5  4  9
  18972632.974   -22928756.92549 -17837277.24249  18972636.3134   18972640.7424
  18820723.825   -26753231.77649 -20825282.59149  18820725.8064   18820730.7544
  16915255.118   -27763958.36249 -21609232.36849  16915257.9574   16915262.2364
  16270475.184   -34287923.94249 -26703787.36749  16270477.3164   16270481.5514
  19378568.561    -7903471.15049  -5750751.93549  19378570.9574   19378575.6844
  20309124.360    -4358221.36749  -3386834.45949  20309128.1024   20309133.7184
 96  7 11 18 11 29.9860000  0  6  6 16 24  5  4  9
  18944394.112   -23077160.41249 -17952916.27549  18944395.4824   18944401.3254
  18788924.260   -26920318.70549 -20955480.15749  18788929.7074   18788935.1164
  16910080.876   -27791149.07149 -21630419.93749  16910083.2664   16910087.8854
  16259433.286   -34345950.20149 -26749002.64449  16259435.0544   16259439.3394
  19382191.556    -7884429.64549  -5735914.41449  19382194.9874   19382198.1564
  20313009.826    -4337814.83649  -3370933.33349  20313011.7354   20313017.8134
 96  7 11 18 11 59.9860000  0  6  6 16 24  5  4  9
  18916173.371   -23225452.78049 -18068468.72949  18916176.2764   18916181.1274
  18757176.488   -27087179.42349 -21085501.47149  18757177.2534   18757182.3774
  16904970.428   -27818003.03149 -21651345.09849  16904973.4324   16904977.7624
  16248491.282   -34403451.16349 -26793808.60149  16248493.1624   16248497.4514
  19385836.624    -7865274.19349  -5720988.13649  19385839.8644   19385843.2794
  20316890.317    -4317425.69649  -3355045.76549  20316891.2834   20316898.1024
 96  7 11 18 12 29.9860000  0  6  6 16 24  5  4  9
  18887974.357   -23373648.99649 -18183946.25549  18887975.7084   18887980.0594
  18725470.817   -27253789.79149 -21215327.69049  18725471.9874   18725477.0644
  16899928.248   -27844503.30049 -21671994.66849  16899930.7214   16899935.0884
  16237650.613   -34460419.21449 -26838199.30449  16237652.5184   16237656.7214
  19389503.221    -7846004.13349  -5705972.52649  19389506.4164   19389511.1094
  20320759.529    -4297086.24749  -3339196.87649  20320761.7494   20320770.8494
 96  7 11 18 12 59.9860000  0  6  6 16 24  5  4  9
  18859786.362   -23521773.77549 -18299368.10949  18859788.6354   18859793.2164
  18693814.794   -27420138.59549 -21344950.08549  18693817.1334   18693822.4894
  16894954.929   -27870632.13349 -21692354.79749  16894958.3754   16894962.5854
  16226914.202   -34516837.38449 -26882161.52249  16226916.4254   16226920.5944
  19393192.957    -7826619.96649  -5690868.00349  19393195.7774   19393200.0044
  20324621.887    -4276788.04249  -3323380.15549  20324622.8664   20324632.4404
 96  7 11 18 13 29.9860000  0  6  6 16 24  5  4  9
  18831609.008   -23669844.17449 -18414747.60449  18831612.1044   18831615.8044
  18662209.320   -27586229.05149 -21474371.18349  18662210.5354   18662217.4124
  16890053.877   -27896389.40249 -21712425.40049  16890056.7574   16890061.3044
  16216285.145   -34572691.73449 -26925684.40749  16216287.5944   16216291.9824
  19396904.979    -7807113.93449  -5675668.52449  19396906.6354   19396911.5064
  20328476.575    -4256519.19149  -3307586.29849  20328480.5454   20328485.6904
 96  7 11 18 13 59.9860000  0  6  6 16 24  5  4  9
  18803439.337   -23817878.70949 -18530099.14249  18803441.3404   18803445.8034
  18630654.163   -27752057.32249 -21603587.99049  18630655.3164   18630661.0074
  16885222.464   -27921780.13549 -21732210.39849  16885225.4414   16885229.9724
  16205762.029   -34627997.61649 -26968779.91149  16205763.4114   16205767.3954
  19400637.126    -7787495.58949  -5660381.53849  19400639.8624   19400645.0464
  20332324.590    -4236286.01049  -3291820.32349  20332328.1934   20332337.1654
 96  7 11 18 14 29.9860000  0  6  6 16 24  5  4  9
  18775279.369   -23965858.13749 -18645407.77349  18775281.6534   18775287.0334
  18599149.156   -27917615.21849 -21732594.09349  18599151.0254   18599155.9664
  16880459.692   -27946807.12049 -21751711.94449  16880462.8234   16880467.3494
  16195340.710   -34682758.91649 -27011451.05749  16195342.5084   16195346.6074
  19404392.843    -7767763.59549  -5645006.01949  19404395.4394   19404399.1914
  20336176.102    -4216062.39549  -3276061.74049  20336179.1194   20336188.5864
 96  7 11 18 14 59.9860000  0  6  6 16 24  5  4  9
  18747124.527   -24113812.60049 -18760696.92249  18747126.4844   18747131.5724
  18567684.990   -28082965.57549 -21861438.48649  18567685.7614   18567690.4754
  16875753.725   -27971536.63449 -21770981.70749  16875756.9954   16875761.3274
  16185013.092   -34737027.46549 -27053738.25249  16185015.6834   16185019.6484
  19408158.598    -7747973.90049  -5629585.49149  19408161.7534   19408165.7484
  20340017.395    -4195882.91649  -3260337.51649  20340018.1984   20340030.6344
 96  7 11 18 15 29.9860000  0  6  6 16 24  5  4  9
  18718987.276   -24261676.76749 -18875915.71849  18718989.1524   18718994.4324
  18536266.226   -28248061.57849 -21990084.68549  18536268.1034   18536274.7594
  16871113.257   -27995924.88749 -21789985.54949  16871116.1684   16871120.4194
  16174786.421   -34790770.05249 -27095615.59749  16174788.6484   16174792.9624
  19411943.571    -7728089.98449  -5614091.56249  19411944.6194   19411948.9724
  20343855.782    -4175719.78049  -3244625.99649  20343856.8094   20343864.7124
 96  7 11 18 15 59.9860000  0  6  6 16 24  5  4  9
  18690865.402   -24409462.74849 -18991073.59749  18690866.7114   18690870.7384
  18504895.175   -28412924.12749 -22118548.96649  18504896.0814   18504901.0174
  16866531.906   -28019999.96649 -21808745.36049  16866534.7854   16866538.8504
  16164652.179   -34844028.26049 -27137115.51049  16164654.2084   16164658.2924
  19415735.954    -7708148.51649  -5598552.77149  19415739.8904   19415743.7724
  20347683.122    -4155607.05249  -3228953.87449  20347682.5864   20347691.5594
 96  7 11 18 16 29.9860000  0  6  6 16 24  5  4  9
  18662761.269   -24557144.08749 -19106149.92649  18662764.8664   18662768.1034
  18473566.892   -28577539.31349 -22246820.50049  18473571.4444   18473576.7674
  16862014.143   -28043738.74049 -21827243.11349  16862017.3164   16862022.0204
  16154614.015   -34896778.80449 -27178219.84149  16154616.2104   16154620.1354
  19419547.275    -7688126.14549  -5582950.94149  19419549.8164   19419554.7594
  20351504.779    -4135527.79449  -3213307.77549  20351504.2634   20351512.8314
 96  7 11 18 16 59.9860000  0  6  6 16 24  5  4  9
  18634672.754   -24704749.23449 -19221166.88549  18634675.3154   18634679.9594
  18442293.186   -28741900.70549 -22374894.26949  18442293.3994   18442299.6284
  16857559.843   -28067151.26649 -21845486.65049  16857562.2214   16857566.5424
  16144672.729   -34949022.68349 -27218929.36549  16144674.6004   16144678.6234
  19423368.886    -7668037.40149  -5567297.38849  19423372.8164   19423377.0534
  20355313.733    -4115504.99449  -3197705.68049  20355314.9744   20355322.4864
 96  7 11 18 17 29.9860000  0  6  6 16 24  5  4  9
  18606591.069   -24852326.07649 -19336161.80149  18606592.9764   18606596.7654
  18411060.260   -28906026.58749 -22502784.53749  18411061.3564   18411067.2134
  16853159.193   -28090272.01249 -21863502.82849  16853162.3874   16853166.6944
  16134820.798   -35000790.64349 -27259268.04549  16134823.0874   16134827.1734
  19427201.561    -7647904.69549  -5551609.56149  19427203.9384   19427208.3354
  20359106.129    -4095577.84549  -3182178.10449  20359107.7134   20359115.5494
 96  7 11 18 17 59.9850000  0  6  6 16 24  5  4  9
  18578527.939   -24999792.58449 -19451070.73649  18578529.6604   18578535.4204
  18379887.415   -29069837.75049 -22630429.55849  18379889.9884   18379895.1704
  16848827.825   -28113037.35649 -21881242.06149  16848830.6154   16848834.9004
  16125078.015   -35051991.34749 -27299164.70549  16125079.8714   16125083.8854
  19431053.677    -7627652.16749  -5535828.40449  19431056.5164   19431061.7754
  20362893.175    -4075675.39349  -3166669.82149  20362894.9374   20362900.8634
 96  7 11 18 18 29.9850000  0  6  6 16 24  5  4  9
  18550478.404   -25147194.21249 -19565929.12849  18550480.6334   18550485.4934
  18348768.280   -29233368.13349 -22757855.80149  18348770.1394   18348776.2524
  16844558.082   -28135474.88149 -21898725.86349  16844561.0184   16844565.1224
  16115439.027   -35102643.47149 -27338633.90349  16115441.2134   16115445.2404
  19434924.605    -7607312.84249  -5519979.64449  19434927.2344   19434931.8774
  20366670.489    -4055826.25459  -3151202.98759  20366671.7784   20366678.3854
 96  7 11 18 18 59.9850000  0  6  6 16 24  5  4  9
  18522448.989   -25294488.61349 -19680703.96149  18522451.9284   18522456.4114
  18317710.743   -29396571.45849 -22885027.18849  18317713.4004   18317719.6944
  16840355.652   -28157555.63049 -21915931.64449  16840358.8724   16840363.1504
  16105912.969   -35152705.08249 -27377642.96649  16105914.7464   16105918.8624
  19438820.339    -7586851.32449  -5504035.63249  19438820.4654   19438825.5214
  20370444.361    -4035999.75449  -3135753.81449  20370447.0764   20370453.8624
 96  7 11 18 19 29.9850000  0  6  6 16 24  5  4  9
  18494437.286   -25441686.69249 -19795403.73649  18494441.3194   18494445.3144
  18286708.783   -29559495.12449 -23011980.66649  18286710.1204   18286716.8634
  16836215.331   -28179314.03949 -21932886.25549  16836218.2194   16836222.5174
  16096492.695   -35202211.62349 -27416219.49949  16096493.9934   16096497.9284
  19442730.748    -7566297.68149  -5488019.85549  19442733.6964   19442735.8744
  20374204.393    -4016232.03649  -3120350.48949  20374208.6694   20374213.6244
 96  7 11 18 19 59.9850000  0  6  6 16 24  5  4  9
  18466449.967   -25588765.69549 -19910010.73649  18466452.3534   18466457.2784
  18255762.064   -29722121.01249 -23138702.11349  18255763.4224   18255769.7104
  16832141.658   -28200722.84349 -21949568.44349  16832144.2544   16832148.7504
  16087176.807   -35251162.64949 -27454363.17049  16087179.2544   16087183.0644
  19446662.573    -7545646.98849  -5471928.41749  19446661.9414   19446666.9554
  20377956.484    -3996499.64149  -3104974.67149  20377961.1034   20377966.8944
 96  7 11 18 20 29.9850000  0  6  6 16 24  5  4  9
  18438475.514   -25735779.59849 -20024566.99549  18438477.2154   18438481.0874
  18224867.151   -29884475.65649 -23265212.18549  18224868.8134   18224874.6974
  16828126.014   -28221823.69649 -21966010.67049  16828129.0414   16828133.4614
  16077957.842   -35299613.69749 -27492117.24349  16077959.1344   16077963.1554
  19450600.283    -7524940.87849  -5455793.82649  19450602.5844   19450607.3454
  20381703.842    -3976828.73549  -3089646.77949  20381705.3834   20381712.1684
 96  7 11 18 20 59.9850000  0  6  6 16 24  5  4  9
  18410512.276   -25882726.59649 -20139071.11149  18410513.9364   18410518.8724
  18194025.135   -30046548.85249 -23391502.95149  18194027.0914   18194033.3014
  16824167.180   -28242627.46449 -21982221.40249  16824170.3494   16824174.5784
  16068831.686   -35347567.05449 -27529483.50149  16068834.1794   16068838.0954
  19454549.443    -7504183.62949  -5439619.36149  19454550.3564   19454557.7964
  20385435.211    -3957211.46849  -3074360.63549  20385438.3394   20385444.2384
 96  7 11 18 21 29.9850000  0  6  6 16 24  5  4  9
  18382562.034   -26029599.65749 -20253517.61049  18382564.0194   18382569.7204
  18163239.930   -30208326.47349 -23517563.39449  18163242.0884   18163247.4934
  16820267.178   -28263123.38249 -21998192.25149  16820270.1504   16820274.3864
  16059801.198   -35395025.46249 -27566464.08949  16059802.8414   16059806.9714
  19458508.930    -7483383.30949  -5423411.42949  19458511.1324   19458514.2894
  20389161.201    -3937637.28949  -3059108.12449  20389163.8004   20389171.8004
 96  7 11 18 21 59.9850000  0  6  6 16 24  5  4  9
  18354621.968   -26176423.65949 -20367925.89249  18354624.3624   18354629.6624
  18132510.756   -30369810.52149 -23643395.08549  18132512.4344   18132518.0474
  16816423.453   -28283319.35049 -22013929.38049  16816426.9604   16816431.2464
  16050863.941   -35441989.50649 -27603059.45749  16050866.0334   16050870.1104
  19462473.474    -7462543.40649  -5407172.56449  19462478.2744   19462483.2434
  20392876.815    -3918116.33849  -3043897.08549  20392878.9594   20392885.8254
 96  7 11 18 22 29.9850000  0  6  6 16 24  5  4  9
  18326703.873   -26323140.72749 -20482250.85649  18326705.4124   18326710.4494
  18101847.307   -30530952.24949 -23768960.03449  18101848.9404   18101854.2394
  16812645.264   -28303174.55249 -22029400.97749  16812648.4934   16812653.0394
  16042035.071   -35488387.69349 -27639213.89749  16042036.6734   16042040.7114
  19466460.938    -7441599.00849  -5390852.24149  19466462.1744   19466464.7404
  20396590.205    -3898609.51649  -3028697.00249  20396592.7384   20396598.7614
 96  7 11 18 22 59.9850000  0  6  6 16 24  5  4  9
  18298802.586   -26469763.68249 -20596502.47449  18298804.1124   18298808.8854
  18071241.941   -30691777.43549 -23894278.32349  18071244.5234   18071250.0464
  16808926.770   -28322717.51049 -22044629.26249  16808929.8114   16808934.1374
  16033306.895   -35534250.99849 -27674951.54349  16033308.9784   16033313.2814
  19470461.226    -7420572.74249  -5374468.16249  19470462.7334   19470467.3354
  20400287.946    -3879169.14349  -3013548.76849  20400291.1504   20400296.2624
 96  7 11 18 23 29.9850000  0  6  6 16 24  5  4  9
  18270909.628   -26616334.50349 -20710713.47949  18270912.5514   18270916.8334
  18040689.084   -30852340.33549 -24019392.23649  18040690.5504   18040696.3314
  16805260.058   -28341984.56849 -22059642.55849  16805263.0534   16805267.4674
  16024670.432   -35579633.75649 -27710314.73549  16024672.7704   16024677.4174
  19474470.794    -7399497.94149  -5358046.26849  19474473.5854   19474479.0434
  20403961.577    -3859849.00749  -2998494.20649  20403968.7934   20403975.9394
 96  7 11 18 23 59.9850000  0  6  6 16 24  5  4  9
  18243033.658   -26762829.07849 -20824865.06749  18243035.9604   18243040.0544
  18010193.289   -31012590.33049 -24144262.31049  18010195.0724   18010201.5324
  16801651.568   -28360951.34849 -22074421.87249  16801653.9094   16801658.3474
  16016134.229   -35624493.58349 -27745270.44449  16016136.2394   16016140.7154
  19478498.217    -7378341.87249  -5341561.01549  19478499.9324   19478506.3524
  20407624.528    -3840612.60149  -2983504.87749  20407623.9684   20407633.3294
 96  7 11 18 24 29.9850000  0  6  6 16 24  5  4  9
  18215168.386   -26909259.33249 -20938966.54149  18215170.2824   18215175.5444
  17979757.151   -31172529.36149 -24268890.08949  17979759.8934   17979765.8964
  16798094.161   -28379642.60349 -22088986.49149  16798097.0164   16798101.5834
  16007691.753   -35668860.53349 -27779842.10449  16007693.6334   16007698.2514
  19482529.717    -7357145.99149  -5325044.73149  19482533.4634   19482538.5314
  20411268.436    -3821477.80249  -2968594.74649  20411269.6954   20411276.3654
 96  7 11 18 24 59.9850000  0  5  6 16 24  5  4
  18187317.811   -27055612.80449 -21053008.18049  18187320.5504   18187324.6164
  17949386.862   -31332134.05549 -24393257.34849  17949388.8764   17949393.4804
  16794593.855   -28398037.72949 -22103320.36349  16794596.6994   16794601.1214
  15999344.921   -35712722.70049 -27814020.42649  15999347.0354   15999351.2174
  19486572.004    -7335911.53649  -5308498.51349  19486574.6924   19486578.3254
 96  7 11 18 25 29.9850000  0  5  6 16 24  5  4
  18159489.278   -27201856.06749 -21166963.94849  18159491.6744   18159496.1274
  17919085.122   -31491373.91349 -24517340.31949  17919086.6934   17919091.2904
  16791155.022   -28416109.19349 -22117402.02749  16791157.8174   16791162.2434
  15991103.846   -35756033.16349 -27847768.85249  15991105.3104   15991109.5374
  19490624.832    -7314614.67949  -5291903.56049  19490626.4644   19490632.7294
 96  7 11 18 25 59.9850000  0  5  6 16 24  5  4
  18131677.219   -27348012.04349 -21280851.69449  18131678.8184   18131682.9404
  17888847.422   -31650270.84249 -24641156.08449  17888849.4004   17888853.9774
  16787770.606   -28433896.92649 -22131262.60949  16787773.0084   16787777.2874
  15982962.850   -35798812.83749 -27881103.67449  15982964.5974   15982968.8064
  19494682.853    -7293291.24549  -5275287.93549  19494683.6414   19494689.8164
 96  7 11 18 26 29.9850000  0  5  6 16 24  5  4
  18103886.936   -27494047.44649 -21394645.49749  18103889.6874   18103893.4214
  17858675.123   -31808825.32849 -24764704.99449  17858677.0384   17858682.4784
  16784441.656   -28451390.38749 -22144893.88449  16784444.1674   16784448.3714
  15974923.646   -35841057.35049 -27914021.49049  15974926.1164   15974930.2154
  19498749.094    -7271914.43249  -5258630.67649  19498751.3174   19498756.2384
 96  7 11 18 26 59.9850000  0  5  6 16 24  5  4
  18076118.176   -27639977.03949 -21508356.82749  18076120.2114   18076124.5744
  17828562.166   -31967072.44649 -24888014.40749  17828562.9594   17828569.2234
  16781161.940   -28468623.63249 -22158322.39849  16781164.4814   16781169.1214
  15966983.683   -35882785.31449 -27946536.79349  15966985.6964   15966989.4754
  19502825.443    -7250503.28149  -5241946.70249  19502828.1484   19502831.1174
 96  7 11 18 27 29.9850000  0  5  6 16 24  5  4
  18048367.663   -27785803.74349 -21621987.99549  18048370.1344   18048374.5434
  17798508.565   -32125001.09849 -25011075.67349  17798511.1954   17798516.3314
  16777933.958   -28485589.86149 -22171542.84549  16777936.3364   16777940.4134
  15959143.009   -35923989.13549 -27978643.67749  15959144.3694   15959148.6444
  19506909.296    -7229046.09649  -5225226.83149  19506910.5924   19506914.6504
 96  7 11 18 27 59.9850000  0  5  6 16 24  5  4
  18020638.318   -27931520.44249 -21735533.45349  18020640.8334   18020644.9574
  17768520.325   -32282591.38249 -25133873.26549  17768522.1494   17768527.4894
  16774761.777   -28502253.21949 -22184527.29149  16774765.4064   16774769.5954
  15951403.845   -35964654.54649 -28010331.02549  15951406.0574   15951410.2814
  19511002.553    -7207518.02049  -5208451.76649  19511006.0764   19511011.4704
 96  7 11 18 28 29.9840000  0  5  6 16 24  5  4
  17992926.990   -28077144.15449 -21849006.43549  17992930.1124   17992934.1254
  17738595.063   -32439841.53949 -25256405.81249  17738598.5754   17738604.4084
  16771647.054   -28518622.79749 -22197282.81249  16771650.2834   16771654.3784
  15943765.000   -36004794.89649 -28041609.22849  15943767.6804   15943771.8784
  19515113.772    -7185924.53249  -5191625.70549  19515114.2844   19515119.5484
 96  7 11 18 28 59.9840000  0  5  6 16 24  5  4
  17965223.653   -28222724.84649 -21962445.91649  17965226.5854   17965231.7484
  17708733.880   -32596772.42349 -25378689.58449  17708736.3544   17708741.6614
  16768587.525   -28534702.82049 -22209812.70749  16768590.1484   16768594.8244
  15936223.580   -36044426.15749 -28072490.73849  15936226.0924   15936230.4734
  19519232.084    -7164283.34049  -5174762.42149  19519234.9344   19519238.7964
 96  7 11 18 29 29.9840000  0  5  6 16 24  5  4
  17937528.146   -28368271.93849 -22075859.19849  17937529.7584   17937534.6314
  17678933.180   -32753374.87249 -25500717.43549  17678935.0674   17678941.1534
  16765583.372   -28550487.48649 -22222112.45249  16765586.2994   16765591.0454
  15928775.953   -36083566.42849 -28102989.66849  15928777.7524   15928781.9534
  19523357.346    -7142592.46149  -5157860.49049  19523361.1304   19523366.3604
 96  7 11 18 29 59.9840000  0  5  6 16 24  5  4
  17909841.257   -28513766.33449 -22189231.43049  17909843.5964   17909847.8454
  17649196.963   -32909638.96149 -25622481.61949  17649199.1614   17649204.7944
  16762631.571   -28565995.90449 -22234196.93749  16762635.3484   16762639.6924
  15921419.998   -36122222.52549 -28133111.31549  15921421.9274   15921426.0104
  19527492.405    -7120864.52049  -5140929.65849  19527496.7944   19527500.6264
 96  7 11 18 30 29.9840000  0  5  6 16 24  5  4
  17882164.406   -28659210.11749 -22302564.22449  17882166.1024   17882170.8494
  17619526.318   -33065559.24749 -25743977.91149  17619528.3924   17619534.0254
  16759729.154   -28581255.42749 -22246087.48149  16759731.7254   16759736.0594
  15914154.989   -36160401.36549 -28162861.07549  15914156.8324   15914160.8854
  19531628.424    -7099122.97649  -5123988.32149  19531634.7004   19531638.3474
 96  7 11 18 30 59.9840000  0  5  6 16 24  5  4
  17854504.560   -28804561.31249 -22415824.87449  17854506.3894   17854511.9574
  17589925.178   -33221113.79949 -25865189.20649  17589927.2134   17589932.4624
  16756878.951   -28596229.85449 -22257755.87049  16756881.9174   16756886.6414
  15906986.851   -36198066.68149 -28192210.68949  15906989.1404   15906993.6864
  19535772.893    -7077359.58549  -5107029.79749  19535776.1894   19535779.0384
 96  7 11 18 31 29.9840000  0  5  6 16 24  5  4
  17826862.783   -28949817.39849 -22529011.40949  17826865.4614   17826869.4194
  17560392.065   -33376309.66049 -25986121.00249  17560394.8444   17560399.7044
  16754079.965   -28610939.57449 -22269217.99749  16754082.8434   16754087.2534
  15899918.867   -36235213.71449 -28221156.44249  15899920.6424   15899924.8774
  19539913.153    -7055598.94549  -5090073.57149  19539917.6664   19539919.7004
 96  7 11 18 31 59.9840000  0  5  6 16 24  5  4
  17799242.358   -29094963.17149 -22642111.98149  17799245.2134   17799249.8124
  17530931.975   -33531128.17549 -26106758.78549  17530932.8704   17530938.7014
  16751333.286   -28625371.92249 -22280463.99049  16751336.3584   16751341.2154
  15892955.303   -36271807.67649 -28249671.23649  15892956.9954   15892961.0974
  19544055.918    -7033835.67849  -5073115.12849  19544058.9094   19544059.2024
 96  7 11 18 32 29.9840000  0  5  6 16 24  5  4
  17771633.942   -29240048.20349 -22755165.22249  17771636.5844   17771640.8294
  17501531.749   -33685622.59849 -26227144.01549  17501533.7974   17501539.2024
  16748634.444   -28639554.75649 -22291515.56649  16748637.4224   16748642.1364
  15886088.900   -36307889.69149 -28277787.10749  15886090.9884   15886094.9994
  19548192.309    -7012093.96149  -5056173.61149  19548193.9974   19548198.3264
 96  7 11 18 32 59.9840000  0  5  6 16 24  5  4
  17744042.279   -29385043.36149 -22868148.43749  17744044.7714   17744049.4534
  17472198.102   -33839776.09149 -26347263.58049  17472199.7574   17472204.8374
  16745988.517   -28653460.18349 -22302350.97749  16745991.4054   16745996.0124
  15879324.580   -36343435.32049 -28305485.01349  15879326.4594   15879331.1084
  19552334.235    -6990334.42849  -5039218.21649  19552338.5804   19552336.9884
 96  7 11 18 33 29.9840000  0  5  6 16 24  5  4
  17716467.380   -29529948.98149 -22981061.88349  17716470.2174   17716473.7454
  17442932.130   -33993573.24249 -26467105.47549  17442933.1014   17442938.6704
  16743390.995   -28667111.88049 -22312988.67249  16743393.6174   16743398.3944
  15872658.031   -36378466.12649 -28332781.76049  15872660.3274   15872664.8624
  19556480.470    -6968550.57049  -5022243.76649  19556483.5304   19556483.5554
 96  7 11 18 33 59.9840000  0  5  6 16 24  5  4
  17688908.985   -29674770.86549 -23093910.07949  17688911.0634   17688915.9234
  17413731.826   -34147022.00149 -26586675.89849  17413732.6464   17413738.0694
  16740838.868   -28680521.88249 -22323438.04149  16740841.9314   16740846.3214
  15866083.457   -36413019.27749 -28359706.31349  15866085.2004   15866089.5764
  19560632.339    -6946740.77749  -5005249.18749  19560629.0334   19560635.8594
 96  7 11 18 34 29.9840000  0  5  6 16 24  5  4
  17661366.329   -29819505.66249 -23206690.40649  17661368.9394   17661374.0594
  17384596.827   -34300118.35149 -26705971.72049  17384599.3834   17384604.4254
  16738332.089   -28693696.12649 -22333703.69549  16738334.8214   16738339.2314
  15859596.354   -36447109.40949 -28386270.06949  15859598.2504   15859602.4904
  19564785.264    -6924905.82549  -4988235.12249  19564786.4834   19564788.5194
 96  7 11 18 34 59.9840000  0  5  6 16 24  5  4
  17633841.253   -29964154.48449 -23319403.74749  17633843.3964   17633847.5264
  17355534.036   -34452846.78049 -26824980.84549  17355535.9134   17355541.2794
  16735867.044   -28706649.94549 -22343797.58449  16735870.1794   16735874.2674
  15853197.399   -36480735.95649 -28412472.58249  15853199.4584   15853203.6484
  19568937.128    -6903070.86149  -4971220.88449  19568943.5724   19568944.9074
 96  7 11 18 35 29.9840000  0  5  6 16 24  5  4
  17606338.113   -30108680.90349 -23432021.71249  17606341.1204   17606345.5124
  17326551.802   -34605151.32349 -26943659.67449  17326553.8424   17326558.2194
  16733452.036   -28719340.92149 -22353686.67049  16733455.0814   16733459.3354
  15846894.721   -36513860.97949 -28438284.30149  15846895.9804   15846899.8754
  19573101.262    -6881202.06049  -4954180.30349  19573103.0044   19573106.1824
 96  7 11 18 35 59.9840000  0  5  6 16 24  5  4
  17578851.987   -30253123.90949 -23544574.67449  17578853.9354   17578858.0534
  17297644.213   -34757066.60649 -27062035.17249  17297645.7214   17297650.1774
  16731083.174   -28731787.70949 -22363385.47349  16731086.1704   16731090.7744
  15840682.519   -36546502.31949 -28463719.12449  15840684.4344   15840688.5734
  19577264.008    -6859325.76249  -4937133.90249  19577266.2484   19577270.0604
 96  7 11 18 36 29.9840000  0  5  6 16 24  5  4
  17551384.372   -30397464.02749 -23657047.46549  17551386.6494   17551390.9874
  17268814.818   -34908562.98849 -27180084.26049  17268816.1184   17268821.0614
  16728764.871   -28743973.54649 -22372880.94449  16728767.5904   16728771.9104
  15834570.684   -36578621.04749 -28488746.71649  15834572.4994   15834576.7484
  19581430.638    -6837429.61749  -4920072.02849  19581433.5284   19581437.4094
 96  7 11 18 36 59.9840000  0  5  6 16 24  5  4
  17523934.597   -30541712.27149 -23769448.66549  17523937.2974   17523941.9124
  17240060.758   -35059663.21649 -27297824.65049  17240062.7984   17240067.3254
  16726493.018   -28755910.38049 -22382182.38049  16726496.1554   16726500.4794
  15828557.419   -36610221.52849 -28513370.47549  15828559.0614   15828563.2044
  19585600.846    -6815516.55449  -4902996.93459  19585603.5084   19585606.9604
 96  7 11 18 37 29.9840000  0  5  6 16 24  5  4
  17496501.191   -30685884.71849 -23881790.81049  17496502.1404   17496506.9404
  17211380.475   -35210382.77449 -27415268.42249  17211381.8604   17211386.3904
  16724267.098   -28767605.62649 -22391295.57249  16724270.4724   16724275.1704
  15822638.134   -36641326.64749 -28537608.24049  15822640.2424   15822644.2114
  19589773.678    -6793583.530 9
 96  7 11 18 37 59.9840000  0  5  6 16 24  5  4
  17469076.551   -30829998.58749 -23994087.29849  17469078.4244   17469082.9274
  17182768.442   -35360743.12049 -27532432.28049  17182769.1014   17182773.8874
  16722084.388   -28779078.27949 -22400235.31949  16722087.4514   16722091.6924
  15816809.270   -36671957.85949 -28561476.72349  15816811.3194   15816815.3074
  19593944.734    -6771662.990 9  -4868825.22959                  19593952.0994
 96  7 11 18 38 29.9830000  0  5  6 16 24  5  4
  17441668.688   -30974029.39249 -24106319.07149  17441670.1164   17441674.9484
  17154226.175   -35510726.87749 -27649302.70049  17154227.6404   17154233.2044
  16719945.251   -28790319.50649 -22408994.72349  16719948.0574   16719952.5974
  15811072.828   -36702101.02749 -28584964.91749  15811074.9654   15811079.2634
  19598114.635    -6749754.354 9  -4851753.56959                  19598122.9664
 96  7 11 18 38 59.9830000  0  5  6 16 24  5  4
  17414271.871   -31117997.77749 -24218502.19949  17414274.1964   17414278.3774
  17125755.206   -35660342.84849 -27765886.53049  17125757.0054   17125761.8964
  16717850.469   -28801329.66049 -22417574.07349  16717853.2204   16717857.7144
  15805426.553   -36731775.41849 -28608087.83749  15805428.0174   15805432.5594
  19602280.806    -6727856.83459  -4834690.61749  19602283.1994   19602288.0564
 96  7 11 18 39 29.9830000  0  5  6 16 24  5  4
  17386887.349   -31261906.18349 -24330638.58949  17386888.9844   17386893.7804
  17097357.591   -35809579.29049 -27882174.62849  17097357.5364   17097363.2364
  16715799.427   -28812108.40149 -22425973.09849  16715801.6854   16715806.3064
  15799867.527   -36760985.67749 -28630849.09149  15799869.6434   15799873.7864
  19606443.751    -6705985.22249  -4817647.88049  19606446.3964   19606450.1954
 96  7 11 18 39 59.9830000  0  5  6 16 24  5  4
  17359513.584   -31405753.49349 -24442727.37249  17359515.7174   17359520.5684
  17069025.400   -35958454.91649 -27998181.56049  17069027.7624   17069033.3254
  16713785.461   -28822689.92549 -22434218.45249  16713788.0784   16713792.8364
  15794398.048   -36789730.44349 -28653247.63149  15794399.9214   15794403.8664
  19610596.127    -6684164.55549  -4800644.79849  19610598.4354   19610602.1444
 96  7 11 18 40 29.9830000  0  5  6 16 24  5  4
  17332152.574   -31549533.45649 -24554763.68149  17332154.9894   17332159.7914
  17040766.957   -36106960.99249 -28113900.53449  17040768.1854   17040773.4564
  16711809.791   -28833073.64749 -22442309.66649  16711812.3824   16711817.1104
  15789019.659   -36817993.36649 -28675270.69649  15789021.5614   15789025.7574
  19614743.805    -6662365.21549  -4783658.35949  19614746.7434   19614751.2654
 96  7 11 18 40 59.9830000  0  5  6 16 24  5  4
  17304802.842   -31693263.25149 -24666760.90249  17304804.8924   17304809.1044
  17012575.564   -36255104.96249 -28229337.34549  17012577.3384   17012582.6454
  16709868.159   -28843275.19049 -22450258.93149  16709871.3754   16709875.5694
  15783731.556   -36845782.52349 -28696924.59549  15783733.3894   15783737.6194
  19618888.190    -6640597.68249  -4766696.68149  19618888.4604   19618893.5594
 96  7 11 18 41 29.9830000  0  5  6 16 24  5  4
  17277466.751   -31836909.33049 -24778692.89149  17277469.9604   17277473.9094
  16984455.669   -36402878.25149 -28344485.31049  16984457.0364   16984462.1274
  16707961.237   -28853298.36349 -22458069.20749  16707964.0044   16707968.3104
  15778538.548   -36873072.25949 -28718189.34149  15778540.4214   15778544.6394
  19623024.840    -6618862.10749  -4749759.89949  19623024.9104   19623028.6744
 96  7 11 18 41 59.9830000  0  5  6 16 24  5  4
  17250148.067   -31980473.94649 -24890561.38749  17250150.2594   17250154.3984
  16956404.532   -36550284.16949 -28459347.02349  16956406.1434   16956411.8154
  16706085.379   -28863153.15849 -22465748.27749  16706088.6324   16706093.0354
  15773437.694   -36899874.78949 -28739074.43849  15773440.0404   15773444.4904
  19627147.048    -6597164.11349  -4732852.42749  19627154.8914   19627159.1984
 96  7 11 18 42 29.9830000  0  5  6 16 24  5  4
  17222838.870   -32123982.67249 -25002386.34149  17222841.1144   17222845.8854
  16928423.758   -36697328.34749 -28573926.85049  16928424.6214   16928430.2984
  16704243.876   -28872829.26949 -22473288.11749  16704247.2384   16704251.7494
  15768424.577   -36926221.39249 -28759604.27549  15768426.5874   15768430.7474
  19631266.818    -6575518.64749  -4715985.94249  19631273.7054   19631278.1894
 96  7 11 18 42 59.9830000  0  5  6 16 24  5  4
  17195546.010   -32267413.64449 -25114150.71249  17195547.5024   17195551.7594
  16900514.343   -36843990.06149 -28688208.66049  16900515.4334   16900521.4604
  16702438.038   -28882318.91749 -22480682.66049  16702440.9894   16702445.5814
  15763497.135   -36952113.63749 -28779780.06549  15763499.2564   15763503.6754
  19635382.934    -6553930.82249  -4699164.38749  19635381.4024   19635385.1614
 96  7 11 18 43 29.9830000  0  5  6 16 24  5  4
  17168266.295   -32410757.66549 -25225847.31949  17168269.9714   17168274.2954
  16872682.600   -36990253.58749 -28802180.19549  16872683.5214   16872688.6054
  16700668.890   -28891615.98949 -22487927.13549  16700672.0054   16700676.6024
  15758655.330   -36977558.23149 -28799607.03249  15758657.1574   15758661.8234
  19639476.626    -6532400.46249  -4682387.52149  19639478.0324   19639483.2914
 96  7 11 18 43 59.9830000  0  5  6 16 24  5  4
  17141002.965   -32554035.00149 -25337491.96849  17141005.3684   17141009.5304
  16844926.491   -37136106.83649 -28915832.03849  16844927.9254   16844933.1294
  16698940.744   -28900698.92949 -22495004.76049  16698943.5664   16698948.1194
  15753897.747   -37002558.62649 -28819087.87049  15753899.9814   15753904.4804
  19643563.173    -6510918.65249  -4665648.50149  19643566.3444   19643571.1534
 96  7 11 18 44 29.9830000  0  5  6 16 24  5  4
  17113749.871   -32697250.25149 -25449088.23549  17113751.4664   17113756.2094
  16817251.112   -37281541.54949 -29029157.74749  16817252.9644   16817258.2224
  16697252.443   -28909570.94249 -22501918.02549  16697255.3684   16697260.0524
  15749227.118   -37027106.23649 -28838215.89249  15749228.8114   15749232.9264
  19647642.726    -6489482.25949  -4648944.87249  19647645.6984   19647650.0054
 96  7 11 18 44 59.9830000  0  5  6 16 24  5  4
  17086509.790   -32840396.84849 -25560631.00749  17086511.6834   17086516.4974
  16789655.975   -37426554.71049 -29142154.97849  16789657.3874   16789662.9364
  16695601.436   -28918248.02149 -22508679.39149  16695604.1004   16695608.8604
  15744643.442   -37051194.91649 -28856986.30449  15744645.0374   15744648.8454
  19651711.049    -6468090.57549  -4632276.04849  19651715.8864   19651720.9274
 96  7 11 18 45 29.9830000  0  5  6 16 24  5  4
  17059280.064   -32983488.81049 -25672131.20949  17059282.3754   17059287.0864
  16762135.356   -37571169.86549 -29254842.07149  16762138.1074   16762143.8444
  16693985.617   -28926742.10449 -22515298.16649  16693987.9854   16693992.7984
  15740143.765   -37074835.03049 -28875407.18249  15740146.2044   15740150.4974
  19655775.310    -6446751.20349  -4615648.00549  19655777.2824   19655780.9624
 96  7 11 18 45 59.9830000  0  5  6 16 24  5  4
  17032062.572   -33126519.47749 -25783583.65449  17032064.3934   17032069.6404
  16734690.480   -37715401.08449 -29367229.99349  16734691.4964   16734697.3364
  16692401.346   -28935061.58149 -22521780.88349  16692404.7894   16692409.3364
  15735730.105   -37098029.75449 -28893481.00549  15735732.7054   15735737.1264
  19659821.835    -6425453.25749  -4599052.17149  19659829.5134   19659835.5774
 96  7 11 18 46 29.9830000  0  5  6 16 24  5  4
  17004866.710   -33269436.20649 -25894947.31549  17004868.7194   17004872.9914
  16707322.863   -37859216.76949 -29479294.13949  16707324.4244   16707330.3334
  16690854.784   -28943191.60549 -22528115.97649  16690857.6754   16690862.2464
  15731406.586   -37120754.09449 -28911188.29949  15731408.2284   15731412.6784
  19663877.879    -6404166.36649  -4582465.06649  19663880.8674   19663884.9024
 96  7 11 18 46 59.9830000  0  5  6 16 24  5  4
  16977695.375   -33412217.19549 -26006205.19549  16977697.7934   16977702.6654
  16680037.661   -38002604.15749 -29591024.53449  16680038.7024   16680044.8334
  16689345.985   -28951122.65249 -22534296.02149  16689348.6804   16689353.2174
  15727174.511   -37142991.76749 -28928516.36549  15727176.6014   15727181.1874
  19667929.334    -6382879.37449  -4565877.81649  19667931.9294   19667936.6594
 96  7 11 18 47 29.9830000  0  5  6 16 24  5  4
  16950543.231   -33554900.78049 -26117387.18549  16950546.3124   16950551.3584
  16652827.304   -38145591.59349 -29702443.28449  16652829.1774   16652834.9524
  16687870.324   -28958876.13749 -22540337.71449  16687873.4454   16687877.5964
  15723029.720   -37164772.55249 -28945488.42449  15723031.8364   15723036.2794
  19671978.291    -6361620.97349  -4549312.84249  19671977.3854   19671982.6864
 96  7 11 18 47 59.9830000  0  6  6 16 25 24  5  4
  16923408.658   -33697500.77549 -26228504.03649  16923410.6554   16923415.4194
  16625699.011   -38288156.92649 -29813533.12249  16625699.9314   16625705.3974
  19563013.419   -15806568.83059 -12290277.41159  19563019.0604   19563024.1444
  16686430.189   -28966445.95349 -22546236.28149  16686432.9354   16686437.4284
  15718972.893   -37186089.74649 -28962099.24249  15718975.3044   15718979.7164
  19676014.535    -6340391.09349  -4532770.18049  19676017.0704   19676022.2214
 96  7 11 18 48 29.9830000  0  6  6 16 25 24  5  4
  16896304.489   -33839936.92649 -26339493.22349  16896305.8134   16896310.6354
  16598668.285   -38430204.03049 -29924219.14749  16598669.1044   16598674.5014
  19543909.947   -15906971.72949 -12368513.44149  19543913.3534   19543918.2184
  16685040.929   -28973746.30549 -22551924.88349  16685043.4304   16685048.0384
  15715022.139   -37206854.44649 -28978279.54649  15715024.1314   15715028.2674
  19680059.842    -6319122.81949  -4516197.55649  19680064.4214   19680069.6634
 96  7 11 18 48 59.9820000  0  5  6 16 25 24  5
  16869224.801   -33982239.82349 -26450378.56949  16869226.3434   16869230.8384
  16571730.588   -38571757.74449 -30034520.71149  16571732.5544   16571737.8914
  19524911.871   -16006814.53149 -12446313.06249  19524913.3944   19524916.8644
  16683699.119   -28980794.97349 -22557417.36149  16683702.1444   16683706.4164
  15711170.558   -37227097.28949 -28994053.20149  15711172.0784   15711176.2384
 96  7 11 18 49 29.9820000  0  5  6 16 25 24  5
  16842184.421   -34124339.42149 -26561105.50549  16842185.9994   16842190.0494
  16544900.940   -38712753.52049 -30144387.52349  16544901.8254   16544907.0824
  19506031.838   -16106026.39449 -12523620.98449  19506034.5824   19506039.2964
  16682419.449   -28987521.00849 -22562658.43849  16682422.2364   16682427.1424
  15707425.919   -37246770.16149 -29009382.72649  15707428.5034   15707432.7094
 96  7 11 18 49 59.9820000  0  5  6 16 25 24  5
  16815173.452   -34266278.14549 -26671707.08249  16815175.9404   16815180.4804
  16518166.082   -38853245.74049 -30253861.95049  16518167.1654   16518172.3294
  19487259.412   -16204677.55349 -12600492.05549  19487261.2884   19487265.5034
  16681185.189   -28994007.51149 -22567712.85849  16681188.1174   16681192.5894
  15703777.978   -37265942.75249 -29024322.42349  15703779.7014   15703784.3764
 96  7 11 18 50 29.9820000  0  5  6 16 25 24  5
  16788196.259   -34408050.11149 -26782178.72349  16788197.4484   16788202.3414
  16491521.472   -38993255.11049 -30362960.13149  16491524.5474   16491528.9394
  19468588.649   -16302788.69349 -12676942.32349  19468590.9664   19468596.0244
  16679993.193   -29000271.41549 -22572593.82949  16679996.0164   16680000.6824
  15700220.780   -37284637.14349 -29038889.49349  15700222.7194   15700226.5024
 96  7 11 18 50 59.9820000  0  5  6 16 25 24  5
  16761241.622   -34549693.18149 -26892549.92749  16761243.9434   16761248.1394
  16464967.384   -39132803.32649 -30471698.97349  16464968.9774   16464974.3104
  19450016.123   -16400383.46849 -12752990.20249  19450018.7324   19450023.8774
  16678837.678   -29006343.99049 -22577325.72349  16678840.4654   16678845.3164
  15696747.315   -37302888.85049 -29053111.62149  15696749.2374   15696753.4494
 96  7 11 18 51 29.9820000  0  5  6 16 25 24  5
  16734309.843   -34691218.70949 -27002829.53949  16734312.5674   16734316.9884
  16438499.702   -39271895.38449 -30580082.36549  16438500.6804   16438505.4224
  19431539.242   -16497496.42449 -12828662.62149  19431539.9044   19431545.1684
  16677713.571   -29012249.84149 -22581927.69649  16677716.5594   16677721.2094
  15693358.377   -37320697.18649 -29066988.24749  15693360.3604   15693364.7084
 96  7 11 18 51 59.9820000  0  6  6 16 25 24  5 17
  16707397.377   -34832644.19949 -27113031.19949  16707400.0854   16707404.3964
  16412115.928   -39410536.12449 -30688114.08449  16412118.0134   16412122.9614
  19413146.183   -16594132.05049 -12903963.11949  19413150.7694   19413155.2764
  16676621.193   -29017992.47049 -22586402.48149  16676623.9654   16676628.1854
  15690057.130   -37338042.72349 -29080504.26649  15690059.4984   15690064.3794
  19706355.611    -4509624.75159  -1006011.76559  19706356.0244   19706362.3334
 96  7 11 18 52 29.9820000  0  6  6 16 25 24  5 17
  16680498.045   -34974000.67349 -27223179.06949  16680500.9464   16680505.2944
  16385816.920   -39548740.84949 -30795806.05149  16385818.5664   16385823.7754
  19394848.571   -16690296.08849 -12978896.15249  19394852.4714   19394857.4964
  16675558.546   -29023575.65249 -22590753.02149  16675561.4154   16675566.1184
  15686844.091   -37354931.46149 -29093664.33049  15686845.6094   15686850.5994
  19672525.470    -4687399.45249  -1144537.46049  19672526.5044   19672532.2254
 96  7 11 18 52 59.9820000  0  6  6 16 25 24  5 17
  16653614.245   -35115274.89649 -27333262.85749  16653617.2474   16653621.1734
  16359603.773   -39686495.43249 -30903147.25549  16359604.7374   16359610.0754
  19376640.402   -16785980.17149 -13053455.18849  19376642.9324   19376647.8154
  16674526.947   -29028996.47949 -22594977.05449  16674529.9454   16674534.5404
  15683720.008   -37371341.52349 -29106451.40949  15683722.9764   15683727.7884
  19638721.317    -4865039.70749  -1282958.39649  19638721.8654   19638728.0184
 96  7 11 18 53 29.9820000  0  6  6 16 25 24  5 17
  16626746.979   -35256470.38849 -27443285.29749  16626748.6884   16626752.9984
  16333472.415   -39823814.65649 -31010149.21249  16333473.7154   16333479.3044
  19358520.266   -16881193.96649 -13127647.76249  19358524.0664   19358529.7054
  16673523.814   -29034271.58149 -22599087.52649  16673526.1214   16673530.4814
  15680689.655   -37387274.72349 -29118866.90049  15680691.1644   15680695.5114
  19604939.328    -5042567.68449  -1421291.78549  19604939.3144   19604946.1114
 96  7 11 18 53 59.9820000  0  6  6 16 25 24  5 17
  16599890.276   -35397596.82249 -27553253.93149  16599893.0084   16599897.2664
  16307425.297   -39960694.61249 -31116808.89749  16307426.3364   16307431.9974
  19340498.435   -16975920.86549 -13201460.93349  19340499.2704   19340503.6314
  16672546.539   -29039401.34749 -22603084.76249  16672549.9714   16672554.8234
  15677744.791   -37402749.51249 -29130925.19649  15677746.6684   15677750.7614
  19571174.655    -5219988.60049  -1559541.75149  19571178.3934   19571182.7434
 96  7 11 18 54 29.9820000  0  6  6 16 25 24  5 17
  16573050.050   -35538645.34149 -27663161.85449  16573051.7594   16573056.6324
  16281461.800   -40097126.40949 -31223119.36149  16281464.1424   16281469.6554
  19322560.870   -17070166.75349 -13274899.33249  19322563.7174   19322568.0284
  16671598.510   -29044387.02249 -22606969.72049  16671601.1144   16671605.5344
  15674882.650   -37417788.55449 -29142643.94549  15674884.9624   15674888.9934
  19537427.792    -5397313.35649  -1697716.88549  19537433.3804   19537439.0694
 96  7 11 18 54 59.9820000  0  6  6 16 25 24  5 17
  16546226.669   -35679601.29149 -27772997.63249  16546229.2564   16546233.6824
  16255588.627   -40233096.79849 -31329070.28049  16255589.6894   16255595.5414
  19304719.286   -17163928.43949 -13347960.39449  19304720.9314   19304727.1194
  16670677.598   -29049225.94149 -22610740.31549  16670679.7654   16670685.1224
  15672102.637   -37432399.91449 -29154029.43349  15672104.5854   15672108.7674
  19503698.930    -5574561.11249  -1835831.91749  19503703.8044   19503708.1654
 96  7 11 18 55 29.9820000  0  6  6 16 25 24  5 17
  16519421.719   -35820463.60749 -27882760.45249  16519424.3894   16519428.4414
  16229801.367   -40368603.92149 -31434660.21249  16229803.7604   16229809.4054
  19286970.273   -17257201.53449 -13420640.74849  19286973.4744   19286975.7094
  16669787.408   -29053902.73349 -22614384.58349  16669790.3104   16669794.5504
  15669400.226   -37446601.27149 -29165095.44149  15669401.9154   15669406.3404
  19469979.180    -5751752.27549  -1973902.87049  19469984.8514   19469991.4254
 96  7 11 18 55 59.9820000  0  6  6 16 25 24  5 17
  16492639.305   -35961206.53249 -27992430.24049  16492641.9144   16492645.5534
  16204105.949   -40503637.26549 -31539880.97049  16204107.8584   16204113.0914
  19269315.195   -17349975.98449 -13492932.55949  19269317.8484   19269322.0564
  16668933.559   -29058393.21849 -22617883.67249  16668935.8574   16668940.6554
  15666776.318   -37460390.81449 -29175840.55149  15666777.9204   15666782.1974
  19436279.670    -5928871.44749  -2111917.73949  19436279.4674   19436286.6934
 96  7 11 18 56 29.9820000  0  6  6 16 25 24  5 17
  16465880.868   -36101826.68549 -28102004.36249  16465882.5734   16465886.4054
  16178496.928   -40638211.04449 -31644743.62149  16178498.7694   16178504.3044
  19251752.708   -17442268.67649 -13564848.96549  19251756.2554   19251762.1004
  16668111.945   -29062715.01049 -22621251.31049  16668113.7394   16668118.0664
  15664228.560   -37473775.03949 -29186269.83649  15664230.5114   15664235.2794
  19402588.690    -6105919.92849  -2249877.49349  19402588.9444   19402596.0584
 96  7 11 18 56 59.9820000  0  6  6 16 25 24  5 17
  16439145.518   -36242319.41949 -28211479.19249  16439147.4524   16439151.8744
  16152977.453   -40772321.04749 -31749244.88949  16152979.1844   16152984.3644
  19234285.040   -17534067.28449 -13636380.39849  19234286.6494   19234291.1484
  16667321.516   -29066862.24549 -22624482.92649  16667324.7964   16667329.1954
  15661762.130   -37486732.64249 -29196366.68149  15661764.9954   15661769.6564
  19368912.101    -6282880.73549  -2387768.95049  19368914.5884   19368921.7434
 96  7 11 18 57 29.9820000  0  6  6 16 25 24  5 17
  16412435.226   -36382684.49449 -28320854.55049  16412436.8664   16412441.2194
  16127545.834   -40905961.87049 -31853380.56249  16127547.7754   16127552.9864
  19216910.376   -17625371.86249 -13707526.84949  19216912.7314   19216917.7994
  16666565.120   -29070838.98549 -22627581.68549  16666567.4814   16666572.1344
  15659378.469   -37499263.09449 -29206130.68349  15659380.2744   15659385.0524
  19335259.324    -6459741.06349  -2525582.14949  19335260.1104   19335265.9464
 96  7 11 18 57 59.9820000  0  6  6 16 25 24  5 17
  16385747.693   -36522927.18849 -28430134.55049  16385749.7534   16385753.6494
  16102206.719   -41039118.83449 -31957139.20249  16102208.9644   16102214.1064
  19199630.224   -17716181.49049 -13778287.62649  19199631.7694   19199635.1154
  16665834.829   -29074672.87049 -22630569.13749  16665837.8134   16665842.5524
  15657079.014   -37511349.26949 -29215548.49549  15657080.5014   15657085.3534
  19301627.011    -6636479.22649  -2663300.13549  19301628.2824   19301634.1984
 96  7 11 18 58 29.9820000  0  6  6 16 25 24  5 17
  16359080.011   -36663066.88149 -28539334.28149  16359081.7734   16359085.8614
  16076961.446   -41171787.67749 -32060517.48649  16076962.5244   16076968.0864
  19182441.892   -17806501.08649 -13848666.53949  19182444.0494   19182448.9374
  16665129.686   -29078383.11949 -22633460.24549  16665132.1104   16665136.7164
  15654862.375   -37522993.73749 -29224622.12249  15654864.9014   15654869.3414
  19268012.471    -6813094.48249  -2800922.33149  19268018.8534   19268025.0034
 96  7 11 18 58 59.9810000  0  6  6 16 25 24  5 17
  16332434.400   -36803086.27449 -28648440.27449  16332437.0504   16332441.2704
  16051811.488   -41303951.19649 -32163502.00849  16051812.7104   16051818.0174
  19165354.580   -17896306.29149 -13918644.64949  19165356.0724   19165360.7054
  16664449.540   -29081953.92549 -22636242.69049  16664452.2654   16664456.6944
  15652732.837   -37534185.25249 -29233342.79949  15652735.1164   15652739.3864
  19234436.324    -6989573.28249  -2938438.17849  19234435.4214   19234441.7204
 96  7 11 18 59 29.9810000  0  6  6 16 25 24  5 17
  16305812.303   -36942989.10249 -28757455.44249  16305814.3994   16305818.6974
  16026757.029   -41435612.35149 -32266095.06949  16026758.7924   16026763.7984
  19148359.953   -17985603.98549 -13988227.29849  19148361.3044   19148366.7264
  16663793.708   -29085400.10849 -22638928.03249  16663796.2704   16663801.0904
  15650688.311   -37544933.17649 -29241717.82449  15650690.1494   15650694.4594
  19200874.433    -7165932.59549  -3075860.97949  19200876.0144   19200881.4764
 96  7 11 18 59 59.9810000  0  6  6 16 25 24  5 17
  16279216.125   -37082754.37349 -28866363.42149  16279218.0884   16279222.0784
  16001799.094   -41566766.81749 -32368293.31449  16001801.1354   16001805.7284
  19131464.742   -18074387.01849 -14057408.90549  19131467.2654   19131472.4424
  16663164.413   -29088708.89549 -22641506.31349  16663166.9334   16663172.1614
  15648728.578   -37555230.64549 -29249741.84349  15648730.4094   15648735.0024
  19167337.888    -7342160.29849  -3213181.18049  19167339.3514   19167347.0904
 96  7 11 19  0 29.9810000  0  6  6 16 25 24  5 17
  16252645.211   -37222386.62749 -28975167.75349  16252647.1614   16252651.1044
  15976934.006   -41697433.05549 -32470111.11949  15976935.7284   15976940.9784
  19114664.859   -18162665.38749 -14126197.28849  19114668.7374   19114673.3584
  16662563.671   -29091864.30249 -22643965.08449  16662566.5624   16662571.8614
  15646850.880   -37565098.16849 -29257430.84049  15646853.1074   15646857.1674
  19133826.160    -7518274.01049  -3350412.50049  19133825.9904   19133833.6104
 96  7 11 19  0 59.9810000  0  6  6 16 25 24  5 17
  16226097.663   -37361892.53549 -29083873.63449  16226099.7894   16226103.9574
  15952158.033   -41827625.83549 -32571559.99549  15952160.7624   15952166.2004
  19097961.345   -18250453.77449 -14194603.83849  19097963.1554   19097968.1114
  16661990.590   -29094874.38749 -22646310.62249  16661993.7004   16661998.6194
  15645052.774   -37574543.78149 -29264791.07549  15645055.4964   15645059.8464
  19100328.637    -7694304.31449  -3487578.88749  19100329.7084   19100337.0064
 96  7 11 19  1 29.9810000  0  6  6 16 25 24  5 17
  16199572.798   -37501282.88949 -29192489.47449  16199574.6234   16199578.6854
  15927476.299   -41957338.92049 -32672635.08049  15927477.2264   15927482.5314
  19081344.876   -18337770.36549 -14262642.71649  19081347.5654   19081352.9084
  16661446.542   -29097736.70749 -22648541.01349  16661449.0904   16661454.2344
  15643335.898   -37583566.46749 -29271821.75549  15643338.6014   15643342.7774
  19066844.647    -7870249.55249  -3624679.04249  19066848.3054   19066853.7504
 96  7 11 19  1 59.9810000  0  6  6 16 25 24  5 17
  16173067.015   -37640570.32149 -29301025.11249  16173069.2364   16173073.0634
  15902882.776   -42086575.39449 -32773338.78049  15902884.4664   15902889.8964
  19064817.932   -18424618.14249 -14330316.35449  19064819.2654   19064825.0344
  16660931.596   -29100442.51449 -22650649.44049  16660934.4264   16660938.7784
  15641700.477   -37592163.74749 -29278520.94649  15641702.4814   15641706.7924
  19033376.756    -8046108.67349  -3761712.03549  19033382.0144   19033389.5574
 96  7 11 19  2 29.9810000  0  6  6 16 25 24  5 17
  16146577.772   -37779771.63249 -29409493.64149  16146580.1304   16146584.2964
  15878380.463   -42215335.31549 -32873671.14649  15878382.4334   15878387.5104
  19048381.383   -18510996.79949 -14397624.42349  19048384.4134   19048387.9234
  16660442.543   -29103013.30349 -22652652.66849  16660445.4244   16660449.6194
  15640145.138   -37600334.88149 -29284888.07749  15640147.4944   15640152.3344
  18999934.325    -8221886.79549  -3898681.97749  18999934.5794   18999939.4044
 96  7 11 19  2 59.9810000  0  6  6 16 25 24  5 17
  16120102.871   -37918897.06549 -29517903.05049  16120105.3804   16120109.4394
  15853969.043   -42343621.97849 -32973634.73849  15853969.8584   15853975.1414
  19032031.830   -18596919.77049 -14464577.42349  19032032.9034   19032039.4744
  16659974.566   -29105473.48749 -22654569.70049  16659976.9794   16659981.6954
  15638668.917   -37608092.44449 -29290932.94049  15638671.3544   15638675.9544
  18966499.945    -8397573.49149  -4035580.67349  18966501.7094   18966506.0504
 96  7 11 19  3 29.9810000  0  6  6 16 25 24  5 17
  16093659.356   -38057861.08449 -29626186.68349  16093661.7714   16093665.2594
  15829663.732   -42471342.01649 -33073156.81349  15829665.6854   15829670.9354
  19015780.121   -18682308.06649 -14531113.75849  19015785.2284   19015788.4794
  16659540.747   -29107749.48549 -22656343.21449  16659543.7654   16659548.6024
  15637283.861   -37615371.39949 -29296604.87449  15637286.3364   15637290.5204
  18933105.470    -8573057.67849  -4172321.58649  18933107.3294   18933113.1804
 96  7 11 19  3 59.9810000  0  6  6 16 25 24  5 17
  16067262.322   -38196572.79449 -29734273.70949  16067265.3154   16067269.2334
  15805481.247   -42598421.95349 -33172180.11149  15805483.2584   15805488.5594
  18999653.219   -18767067.69049 -14597160.27049  18999655.9774   18999661.3884
  16659154.461   -29109778.01049 -22657923.89549  16659157.4204   16659162.5354
  15636004.029   -37622099.58349 -29301847.64149  15636005.7964   15636010.1014
  18899765.827    -8748254.14149  -4308838.31049  18899770.0974   18899774.4974
 96  7 11 19  4 29.9810000  0  6  6 16 25 24  5 17
  16040838.733   -38335432.51249 -29842476.06649  16040841.1124   16040844.9904
  15781342.085   -42725269.93049 -33271022.66349  15781344.8264   15781350.1014
  18983564.620   -18851605.61649 -14663034.01049  18983567.3434   18983572.9464
  16658737.814   -29111967.38549 -22659629.91149  16658741.3384   16658746.1414
  15634748.970   -37628692.07149 -29306984.65649  15634751.2854   15634755.7654
  18866410.863    -8923557.57449  -4445438.37249  18866410.5874   18866416.3814
 96  7 11 19  4 59.9810000  0  6  6 16 25 24  5 17
  16014435.827   -38474180.22149 -29950591.13949  16014437.9884   16014442.3974
  15757299.577   -42851623.45049 -33369479.91649  15757300.5604   15757305.7254
  18967568.300   -18935672.41549 -14728540.62149  18967570.1624   18967575.1744
  16658341.495   -29114053.87949 -22661255.76449  16658344.3114   16658348.9644
  15633568.138   -37634899.02149 -29311821.25149  15633570.0034   15633574.6814
  18833072.882    -9098725.70849  -4581932.94449  18833076.7724   18833083.2244
 96  7 11 19  5 29.9810000  0  6  6 16 25 24  5 17
  15988054.914   -38612812.00249 -30058615.87849  15988057.4324   15988061.8344
  15733348.507   -42977482.98149 -33467552.24149  15733350.4174   15733355.3014
  18951661.259   -19019267.83249 -14793679.94349  18951663.7534   18951669.4364
  16657964.480   -29116037.13749 -22662801.16649  16657966.6934   16657971.5464
  15632461.473   -37640716.17849 -29316354.11549  15632463.1464   15632467.7774
  18799760.716    -9273787.56149  -4718344.73649  18799763.2214   18799770.8894
 96  7 11 19  5 59.9810000  0  6  6 16 25 24  5 17
  15961696.546   -38751328.14449 -30166550.51449  15961698.7114   15961702.7884
  15709491.340   -43102858.40949 -33565247.35349  15709492.0934   15709497.3664
  18935843.972   -19102393.24849 -14858453.00149  18935844.7434   18935849.7914
  16657607.614   -29117912.17849 -22664262.24649  16657610.2004   16657615.0874
  15631428.203   -37646141.61349 -29320581.73749  15631430.6584   15631435.1664
  18766462.626    -9448755.83249  -4854683.57549  18766468.1224   18766475.3454
 96  7 11 19  6 29.9810000  0  6  6 16 25 24  5 17
  15935355.301   -38889750.04349 -30274411.70549  15935357.6804   15935362.0794
  15685722.231   -43227757.15749 -33662571.03049  15685724.3704   15685729.8554
  18920108.702   -19185072.50249 -14922878.44249  18920111.9994   18920115.8954
  16657270.769   -29119683.87949 -22665642.80749  16657273.2844   16657277.5914
  15630468.084   -37651190.98549 -29324516.33049  15630470.0514   15630474.6664
  18733181.812    -9623661.60549  -4990973.69449  18733185.1214   18733191.5084
 96  7 11 19  6 59.9810000  0  6  6 16 25 24  5 17
  15909034.572   -39028070.73849 -30382194.04749  15909036.0984   15909040.5934
  15662045.618   -43352181.27049 -33759524.86049  15662047.2134   15662052.9744
  18904459.421   -19267309.81949 -14986959.48749  18904462.3864   18904466.0304
  16656951.591   -29121358.17349 -22666947.45549  16656954.4034   16656958.6874
  15629576.356   -37655875.07349 -29328166.28649  15629578.7214   15629583.7044
  18699908.436    -9798522.17549  -5127228.57549  18699908.6994   18699914.9184
 96  7 11 19  7 29.9810000  0  6  6 16 25 24  5 17
  15882734.804   -39166270.30649 -30489881.99949  15882737.9034   15882741.9174
  15638460.327   -43476125.37449 -33856104.65749  15638461.3634   15638466.8604
  18888897.228   -19349090.88649 -15050685.02149  18888899.1204   18888903.5064
  16656653.667   -29122923.11849 -22668166.90549  16656656.6174   16656661.1114
  15628756.797   -37660187.42149 -29331526.57849  15628758.3064   15628762.7874
  18666645.677    -9973298.84449  -5263418.07549  18666650.1364   18666656.2604
 96  7 11 19  7 59.9810000  0  6  6 16 25 24  5 17
  15856457.482   -39304361.48749 -30597485.50149  15856459.7984   15856463.9544
  15614964.127   -43599593.28349 -33952313.39649  15614966.1284   15614971.7524
  18873421.005   -19430417.12049 -15114056.13049  18873422.7874   18873427.4174
  16656374.653   -29124388.34949 -22669308.65749  16656377.5234   16656382.5444
  15628004.342   -37664139.87349 -29334606.44449  15628006.1714   15628010.3254
  18633404.721   -10147983.94749  -5399536.25549  18633408.1844   18633414.6374
 96  7 11 19  8 29.9810000  0  6  6 16 25 24  5 17
  15830197.738   -39442361.25149 -30705017.76649  15830199.5924   15830203.7234
  15591560.649   -43722581.45249 -34048148.31449  15591562.5644   15591567.3734
  18858033.697   -19511291.65449 -15177075.28749  18858033.2974   18858039.0344
  16656112.730   -29125764.06649 -22670380.65349  16656115.8544   16656120.8474
  15627319.897   -37667737.83349 -29337410.07049  15627321.4004   15627325.9334
  18600178.554   -10322584.52249  -5535588.54349  18600183.6464   18600190.5054
 96  7 11 19  8 59.9800000  0  6  6 16 25 24  5 17
  15803956.581   -39580256.56849 -30812468.64149  15803958.8084   15803963.0684
  15568255.207   -43845055.77749 -34143582.83349  15568256.0724   15568261.2934
  18842733.400   -19591690.82949 -15239724.03149  18842735.4524   18842738.8204
  16655871.181   -29127031.74949 -22671368.47549  16655875.1734   16655879.6994
  15626705.924   -37670959.79149 -29339920.70649  15626708.4304   15626712.6784
  18566982.711   -10497050.49349  -5671536.00749  18566984.4554   18566990.2924
 96  7 11 19  9 29.9800000  0  6  6 16 25 24  5 17
  15777735.017   -39718050.31549 -30919840.37949  15777737.5984   15777741.7314
  15545050.735   -43966992.53149 -34238598.46849  15545052.4484   15545057.7204
  18827527.672   -19671596.66649 -15301988.36149  18827528.7424   18827533.9984
  16655652.934   -29128177.51649 -22672261.29749  16655656.8584   16655661.6664
  15626170.832   -37673772.51549 -29342112.45549  15626173.1604   15626177.0634
  18533812.347   -10671358.11649  -5807360.04349  18533814.5814   18533820.5044
 96  7 11 19  9 59.9800000  0  6  6 16 25 24  5 17
  15751531.699   -39855751.13949 -31027139.69649  15751534.1864   15751538.1944
  15521949.792   -44088391.33249 -34333194.90949  15521951.3134   15521955.9364
  18812413.426   -19751010.06149 -15363868.95249  18812416.4734   18812422.5034
  16655455.946   -29129217.41649 -22673071.61749  16655458.9484   16655463.6754
  15625712.464   -37676180.53549 -29343988.83949  15625714.7254   15625718.8974
  18500668.516   -10845527.73649  -5943076.56149  18500671.2324   18500677.5254
 96  7 11 19 10 29.9800000  0  6  6 16 25 24  5 17
  15725347.325   -39993353.87649 -31134362.59149  15725348.8934   15725353.3174
  15498949.826   -44209255.85549 -34427375.03449  15498951.4754   15498956.4164
  18797392.170   -19829943.25749 -15425375.35449  18797396.3114   18797401.2464
  16655277.087   -29130158.67149 -22673805.09049  16655279.9284   16655284.8774
  15625329.703   -37678192.32249 -29345556.47949  15625331.5844   15625336.3994
  18467551.302   -11019564.54249  -6078689.57749  18467553.4194   18467559.5504
 96  7 11 19 10 59.9800000  0  6  6 16 25 24  5 17
  15699186.026   -40130828.46449 -31241485.62249  15699188.4494   15699192.4224
  15476050.550   -44329596.28149 -34521146.77049  15476051.6334   15476056.3364
  18782467.037   -19908397.27749 -15486508.39649  18782467.1484   18782472.0444
  16655116.004   -29131005.74749 -22674465.16849  16655118.3784   16655123.5014
  15625020.449   -37679814.38049 -29346820.42949  15625023.1414   15625027.6414
  18434455.345   -11193475.87149  -6214204.80249  18434457.9044   18434464.3994
 96  7 11 19 11 29.9800000  0  6  6 16 25 24  5 17
  15673053.191   -40268156.93649 -31348494.79949  15673055.5394   15673059.9564
  15453245.478   -44449435.16049 -34614527.68949  15453246.8574   15453252.0564
  18767622.624   -19986391.77149 -15547283.35749  18767626.1164   18767629.1464
  16654967.370   -29131783.74049 -22675071.42249  16654970.2954   16654975.0074
  15624780.740   -37681077.67349 -29347804.82449  15624782.7244   15624787.3454
  18401379.830   -11367296.95949  -6349649.75849  18401381.2534   18401387.0954
 96  7 11 19 11 59.9800000  0  6  6 16 25 24  5 17
  15646954.129   -40405306.21249 -31455364.34549  15646956.9894   15646961.2024
  15430538.828   -44568756.35949 -34707505.22049  15430541.1094   15430545.9354
  18752872.542   -20063912.42049 -15607689.08049  18752873.2534   18752879.4714
  16654835.242   -29132475.76249 -22675610.68749  16654839.1254   16654843.4004
  15624607.436   -37681989.02149 -29348514.98649  15624609.9564   15624614.1194
  18368321.073   -11541012.22749  -6485012.24149  18368324.3304   18368330.0364
 96  7 11 19 12 29.9800000  0  6  6 16 25 24  5 17
  15620888.995   -40542279.54249 -31562096.79949  15620891.7774   15620895.8814
  15407930.618   -44687564.57649 -34800083.03349  15407932.4534   15407937.3204
  18738207.904   -20140964.46649 -15667729.67259  18738211.5164   18738215.3084
  16654721.466   -29133077.43049 -22676079.55249  16654724.1294   16654729.1514
  15624500.096   -37682556.54749 -29348957.23649  15624501.9374   15624506.3304
  18335288.443   -11714602.58349  -6620277.37449  18335290.3414   18335296.8574
 96  7 11 19 12 59.9800000  0  6  6 16 25 24  5 17
  15594856.813   -40679080.84549 -31668695.19449  15594859.6064   15594863.8554
  15385420.658   -44805858.46549 -34892260.06249  15385422.0114   15385426.4914
  18723636.677   -20217535.82149 -15727395.67949  18723640.9484   18723645.2014
  16654625.617   -29133580.39949 -22676471.49849  16654628.6344   16654633.6234
  15624456.362   -37682777.85049 -29349129.69749  15624459.3804   15624463.9974
  18302281.628   -11888057.22249  -6755436.80449  18302283.9514   18302289.2444
 96  7 11 19 13 29.9800000  0  6  6 16 25 24  5 17
  15568853.195   -40815736.65949 -31775180.22749  15568854.8644   15568859.2084
  15363009.082   -44923626.46249 -34984027.30349  15363011.1554   15363016.3554
  18709160.001   -20293624.51049 -15786685.59949  18709161.6904   18709165.9954
  16654547.470   -29133989.41349 -22676790.22449  16654551.1894   16654555.3914
  15624483.587   -37682639.75949 -29349022.10649  15624485.5114   15624490.4914
  18269301.665   -12061355.78949  -6890474.55749  18269306.2044   18269312.1194
 96  7 11 19 13 59.9800000  0  6  6 16 25 24  5 17
  15542870.867   -40952270.68149 -31881570.35449  15542873.1204   15542877.0694
  15340697.489   -45040873.66149 -35075388.73449  15340699.2344   15340704.6054
  18694775.046   -20369219.17449 -15845590.54449  18694775.9334   18694780.1614
  16654490.156   -29134291.58749 -22677025.70349  16654494.0274   16654498.2514
  15624584.465   -37682110.45549 -29348609.68349  15624586.2004   15624591.3664
  18236354.692   -12234491.73249  -7025385.59849  18236359.8494   18236364.9264
 96  7 11 19 14 29.9800000  0  6  6 16 25 24  5 17
  15516907.725   -41088707.71849 -31987884.91349  15516909.8634   15516914.1194
  15318481.781   -45157622.47849 -35166361.81849  15318482.9604   15318488.1224
  18680476.837   -20444348.41849 -15904132.81849  18680480.8124   18680484.5094
  16654450.036   -29134505.27049 -22677192.23549  16654452.7024   16654457.7094
  15624761.242   -37681184.52149 -29347888.19349  15624762.6594   15624767.0824
  18203438.490   -12407497.64849  -7160195.40649  18203438.2534   18203441.9744
 96  7 11 19 14 59.9800000  0  6  6 16 25 24  5 17
  15490967.533   -41225020.22049 -32094102.42649  15490970.2034   15490974.7044
  15296366.423   -45273834.43949 -35256916.57149  15296368.6554   15296373.6994
  18666269.302   -20519007.45949 -15962308.74149  18666271.7104   18666276.3934
  16654427.662   -29134622.56749 -22677283.65749  16654430.5904   16654435.0794
  15625015.102   -37679847.76349 -29346846.58349  15625017.0754   15625021.9494
  18170536.433   -12580371.97949  -7294902.56449  18170540.4554   18170546.8184
 96  7 11 19 15 29.9800000  0  6  6 16 25 24  5 17
  15465055.662   -41361192.61649 -32200210.77149  15465057.6744   15465062.1314
  15274360.284   -45389484.10249 -35347033.17349  15274361.7284   15274366.9394
  18652151.742   -20593197.01349 -16020118.80449  18652155.3904   18652161.5574
  16654425.848   -29134630.67449 -22677289.99849  16654428.2624   16654433.5414
  15625350.040   -37678090.82349 -29345477.55449  15625351.3224   15625355.6894
  18137668.082   -12753104.67449  -7429499.38549  18137669.6054   18137676.1484
 96  7 11 19 15 59.9800000  0  6  6 16 25 24  5 17
  15439170.939   -41497212.82549 -32306200.52049  15439173.6934   15439177.8794
  15252458.218   -45504574.55949 -35436714.02349  15252460.6784   15252465.3794
  18638121.277   -20666931.57049 -16077574.33649  18638124.5804   18638127.1784
  16654445.239   -29134534.41249 -22677215.01049  16654447.2904   16654452.4944
  15625757.397   -37675946.29549 -29343806.50449  15625760.0154   15625764.1004
  18104820.705   -12925716.48749  -7564002.05449  18104822.7694   18104828.2244
 96  7 11 19 16 29.9800000  0  6  6 16 25 24  5 17
  15413318.000   -41633076.97749 -32412068.67449  15413319.9804   15413323.7744
  15230666.480   -45619092.77849 -35525948.97549  15230668.1644   15230673.0134
  18624172.992   -20740231.95849 -16134691.57649  18624175.0974   18624180.6164
  16654476.733   -29134356.34349 -22677076.29349  16654481.4134   16654486.0804
  15626229.895   -37673459.05549 -29341868.41049  15626232.8484   15626237.5244
  18071998.405   -13098196.31649  -7698401.82749  18072001.1514   18072006.8704
 96  7 11 19 16 59.9800000  0  6  6 16 25 24  5 17
  15387493.361   -41768783.84749 -32517814.26949  15387495.9484   15387500.2344
  15208981.899   -45733042.70849 -35614741.10149  15208984.3394   15208989.3724
  18610309.327   -20813082.35649 -16191458.15849  18610313.1494   18610317.5944
  16654526.207   -29134109.99949 -22676884.35949  16654528.0884   16654532.4774
  15626766.679   -37670646.07849 -29339676.49749  15626768.3074   15626772.6184
  18039204.330   -13270533.19049  -7832690.23549  18039205.8504   18039213.3664
 96  7 11 19 17 29.9800000  0  6  6 16 25 24  5 17
  15361697.189   -41904342.02049 -32623443.99749  15361700.1494   15361704.2414
  15187403.141   -45846446.20149 -35703107.43549  15187404.4854   15187409.2384
  18596535.545   -20885463.20049 -16247858.83249  18596539.1114   18596544.3774
  16654582.629   -29133802.32949 -22676644.62649  16654586.7134   16654591.7564
  15627361.624   -37667509.95849 -29337232.77849  15627365.3574   15627369.3544
  18006436.158   -13442730.48149  -7966869.89249  18006439.5524   18006445.2344
 96  7 11 19 17 59.9800000  0  6  6 16 25 24  5 17
  15335931.533   -42039741.90549 -32728950.38249  15335934.1664   15335938.1834
  15165925.793   -45959305.17649 -35791049.47049  15165927.9014   15165932.8474
  18582854.816   -20957348.20349 -16303873.17049  18582858.9614   18582865.5474
  16654654.251   -29133431.69049 -22676355.82649  16654657.7494   16654662.4334
  15628026.425   -37664022.59049 -29334515.37149  15628028.8004   15628033.2394
  17973699.152   -13614766.58749  -8100923.92149  17973701.4944   17973707.8894
 96  7 11 19 18 29.9800000  0  6  6 16 25 24  5 17
  15310189.025   -42175020.49949 -32834362.26249  15310191.4634   15310195.7614
  15144546.572   -46071655.61449 -35878595.24449  15144548.3454   15144553.2734
  18569270.673   -21028743.26549 -16359505.73649  18569271.6764   18569277.7854
  16654731.945   -29133020.01449 -22676035.06449  16654735.3924   16654740.2014
  15628755.529   -37660195.18249 -29331532.99649  15628757.6044   15628761.8654
  17940993.052   -13786644.88749  -8234855.02749  17940994.4184   17940999.9044
 96  7 11 19 18 59.9790000  0  6  6 16 25 24  5 17
  15284471.895   -42310163.50749 -32939668.47949  15284474.4144   15284478.4234
  15123266.107   -46183484.97949 -35965734.98349  15123268.0654   15123272.8984
  18555782.428   -21099626.86449 -16414739.70949  18555782.9344   18555790.7234
  16654823.006   -29132552.03649 -22675670.41949  16654824.6634   16654829.7464
  15629551.534   -37656008.96149 -29328271.01649  15629554.0094   15629558.3914
  17908313.960   -13958367.11949  -8368664.50949  17908315.7394   17908322.5204
 96  7 11 19 19 29.9790000  0  6  6 16 25 24  5 17
  15258781.205   -42445171.09749 -33044869.18149  15258783.2784   15258787.7394
  15102088.614   -46294778.59749 -36052457.26249  15102089.7074   15102094.2734
  18542387.374   -21170013.93049 -16469586.79349  18542390.2624   18542393.4154
  16654927.190   -29132003.48049 -22675242.99549  16654929.1764   16654933.5414
  15630415.856   -37651465.36749 -29324730.57349  15630418.4084   15630423.1354
  17875665.279   -14129940.96749  -8502358.34049  17875667.8674   17875672.7094
 96  7 11 19 19 59.9790000  0  6  6 16 25 24  5 17
  15233120.620   -42580017.46149 -33149944.25849  15233122.9434   15233126.9644
  15081016.116   -46405511.00549 -36138742.22649  15081017.8594   15081022.4904
  18529084.901   -21239919.34849 -16524058.58049  18529088.3414   18529092.3874
  16655046.945   -29131367.41449 -22674747.36949  16655050.4224   16655055.0004
  15631349.377   -37646567.04849 -29320913.72949  15631350.3914   15631355.2854
  17843050.217   -14301340.97049  -8635916.72749  17843050.2644   17843054.8664
 96  7 11 19 20 29.9790000  0  6  6 16 25 24  5 17
  15207492.655   -42714693.09849 -33254886.29749  15207495.0464   15207499.4234
  15060051.805   -46515674.88849 -36224584.19349  15060054.1574   15060059.2434
  18515865.496   -21309376.26949 -16578180.87449  18515868.7774   18515875.3834
  16655182.599   -29130653.40549 -22674191.02349  16655185.6634   16655191.6394
  15632339.809   -37641351.84849 -29316849.96249  15632342.8064   15632347.6564
  17810459.917   -14472595.01449  -8769361.38149  17810461.3174   17810466.6664
 96  7 11 19 20 59.9790000  0  6  6 16 25 24  5 17
  15181901.374   -42849174.55749 -33359677.03249  15181903.9814   15181908.3724
  15039200.824   -46625247.16349 -36309965.16049  15039203.4744   15039208.3824
  18502734.211   -21378396.12349 -16631962.57549  18502736.1424   18502742.4954
  16655335.362   -29129848.07249 -22673563.50649  16655339.2884   16655344.1474
  15633396.724   -37635804.77649 -29312527.58449  15633398.2894   15633403.0974
  17777893.205   -14643715.83649  -8902702.22949  17777898.3304   17777903.8024
 96  7 11 19 21 29.9790000  0  6  6 16 25 24  5 17
  15156346.836   -42983462.66249 -33464317.11049  15156350.0204   15156354.0684
  15018462.095   -46734235.51849 -36394891.13049  15018463.4954   15018468.5174
  18489678.838   -21446991.13749 -16685413.28749  18489682.9184   18489687.9694
  16655505.283   -29128952.74249 -22672865.86149  16655509.3054   16655514.2494
  15634518.302   -37629914.60749 -29307937.86749  15634519.0704   15634524.2184
  17745360.331   -14814694.75149  -9035932.50449  17745362.5464   17745369.0104
 96  7 11 19 21 59.9790000  0  6  6 16 25 24  5 17
  15130827.195   -43117575.61649 -33568820.69249  15130829.5004   15130833.3614
  14997828.790   -46842662.47149 -36479379.63849  14997830.6434   14997835.5234
  18476707.681   -21515162.49049 -16738533.85049  18476710.0644   18476716.9594
  16655690.842   -29127985.16149 -22672111.91849  16655693.8744   16655698.2334
  15635702.933   -37623680.93149 -29303080.47949  15635705.4364   15635710.3144
  17712847.480   -14985543.81649  -9169061.58949  17712850.2004   17712853.3464
 96  7 11 19 22 29.9790000  0  6  6 16 25 24  5 17
  15105336.887   -43251526.38349 -33673197.90649  15105339.0304   15105343.1784
  14977300.755   -46950537.80249 -36563438.31849  14977302.7124   14977307.5884
  18463819.870   -21582892.14049 -16791310.25049  18463823.0854   18463828.2334
  16655890.931   -29126934.40349 -22671293.16649  16655893.3834   16655898.6264
  15636957.910   -37617091.60849 -29297945.96749  15636959.3764   15636964.0274
  17680361.385   -15156271.32549  -9302095.96949  17680363.2744   17680368.8684
 96  7 11 19 22 59.9790000  0  6  6 16 25 24  5 17
  15079873.456   -43385339.38849 -33777467.75949  15079875.1164   15079879.4224
  14956874.756   -47057870.18349 -36647073.91649  14956877.6774   14956882.7194
  18451018.130   -21650171.07849 -16843735.44649  18451019.2014   18451024.2184
  16656106.811   -29125803.12949 -22670411.66149  16656109.3754   16656114.0824
  15638279.960   -37610146.12249 -29292533.92449  15638282.0904   15638285.7084
  17647895.465   -15326867.89749  -9435028.29149  17647898.6614   17647902.7274
 96  7 11 19 23 29.9790000  0  6  6 16 25 24  5 17
  15054435.155   -43519014.96449 -33881630.53449  15054437.5934   15054441.7144
  14936555.725   -47164655.81449 -36730283.47349  14936557.3414   14936562.2744
  18438301.586   -21716993.92049 -16895805.21249  18438303.9204   18438308.3904
  16656335.630   -29124595.03849 -22669470.33349  16656338.7764   16656344.1314
  15639665.214   -37602862.75549 -29286858.61049  15639667.1254   15639671.8234
  17615459.733   -15497318.70049  -9567847.03949  17615463.5624   17615469.0714
 96  7 11 19 23 59.9790000  0  6  6 16 25 24  5 17
  15029026.101   -43652540.59949 -33985676.46649  15029028.4664   15029032.7464
  14916337.896   -47270896.00249 -36813068.00449  14916340.4014   14916345.2584
  18425672.270   -21783356.13049 -16947516.03849  18425675.0344   18425680.5894
  16656580.575   -29123311.16049 -22668469.91349  16656583.3164   16656588.0574
  15641111.676   -37595255.44449 -29280930.87249  15641114.8464   15641119.0024
  17583056.551   -15667616.38349  -9700546.49149  17583056.2234   17583061.5744
 96  7 11 19 24 29.9790000  0  6  6 16 25 24  5 17
  15003644.767   -43785921.17749 -34089609.37049  15003647.3744   15003651.3894
  14896224.366   -47376594.49949 -36895430.45349  14896226.4404   14896231.3984
  18413128.379   -21849274.32249 -16998880.90249  18413131.8894   18413136.2674
  16656835.190   -29121971.18249 -22667425.79749  16656837.7324   16656843.4334
  15642621.305   -37587336.08749 -29274759.97149  15642621.9834   15642626.3584
  17550678.403   -15837755.02649  -9833122.00249  17550680.5534   17550686.3134
 96  7 11 19 24 59.9790000  0  6  6 16 25 24  5 17
  14978292.011   -43919152.42549 -34193425.90949  14978294.3744   14978298.1774
  14876213.929   -47481750.00249 -36977369.77849  14876216.1874   14876220.8734
  18400668.102   -21914760.37149 -17049909.02049  18400669.6844   18400675.1024
  16657099.956   -29120581.03749 -22666342.59649  16657102.0264   16657107.9234
  15644184.270   -37579110.09049 -29268350.13249  15644187.2984   15644191.5634
  17518332.760   -16007726.63249  -9965567.29649  17518336.2834   17518341.5454
 96  7 11 19 25 29.9790000  0  6  6 16 25 24  5 17
  14952969.063   -44052225.02549 -34297118.83049  14952971.4664   14952975.2944
  14856305.131   -47586369.81949 -37058891.69249  14856307.9064   14856312.4954
  18388289.344   -21979809.18649 -17100596.43649  18388292.3844   18388297.1264
  16657373.480   -29119140.07249 -22665219.79349  16657376.8374   16657382.6094
  15645811.196   -37570564.30649 -29261691.10749  15645813.3474   15645818.1654
  17486020.374   -16177536.13049 -10097886.36449  17486023.2724   17486026.7414
 96  7 11 19 25 59.9790000  0  6  6 16 25 24  5 17
  14927677.413   -44185134.15949 -34400684.37249  14927679.6194   14927683.4674
  14836499.256   -47690457.84449 -37139999.22049  14836500.2614   14836505.2264
  18375997.513   -22044402.15449 -17150928.60849  18375999.7694   18376005.0534
  16657655.204   -29117650.68949 -22664059.27549  16657660.3684   16657665.2774
  15647500.642   -37561683.30249 -29254770.87449  15647503.8964   15647508.1924
  17453737.313   -16347180.58449 -10230076.77349  17453739.5244   17453746.8084
 96  7 11 19 26 29.9790000  0  6  6 16 25 24  5 17
  14902415.248   -44317885.27349 -34504126.78149  14902418.0364   14902421.7964
  14816797.032   -47793990.52449 -37220674.00949  14816798.5124   14816803.6984
  18363794.226   -22108535.66849 -17200902.84849  18363796.2614   18363800.6664
  16657952.532   -29116110.09349 -22662858.82349  16657953.7834   16657958.7954
  15649253.451   -37552475.39349 -29247595.91249  15649256.2404   15649260.1984
  17421481.455   -16516671.26149 -10362147.37949  17421486.2984   17421492.0454
 96  7 11 19 26 59.9790000  0  5  6 16 24  5 17
  14877184.361   -44450474.21649 -34607442.83049  14877187.0764   14877191.0264
  14797200.267   -47896972.23449 -37300919.47749  14797202.3154   14797207.0374
  16658252.939   -29114515.20049 -22661616.09249  16658257.4644   16658262.6024
  15651066.972   -37542952.30649 -29240175.35649  15651068.3774   15651072.3474
  17389257.266   -16686023.07949 -10494109.79049  17389260.2624   17389266.8094
 96  7 11 19 27 29.9790000  0  5  6 16 24  5 17
  14851986.844   -44582888.65549 -34710622.89849  14851989.4194   14851993.3194
  14777710.325   -47999387.97649 -37380723.92949  14777712.7634   14777717.6784
  16658565.808   -29112873.37449 -22660336.77549  16658569.5394   16658574.8824
  15652937.928   -37533120.06649 -29232513.89849  15652939.0364   15652943.7454
  17357056.368   -16855235.86149 -10625963.84949  17357060.4034   17357065.0744
 96  7 11 19 27 59.9790000  0  5  6 16 24  5 17
  14826824.516   -44715118.59049 -34813659.19849  14826826.8324   14826830.7194
  14758332.594   -48101221.53249 -37460074.73649  14758334.4034   14758339.2474
  16658887.853   -29111184.61149 -22659020.88349  16658891.6464   16658896.7214
  15654862.609   -37523000.15349 -29224628.27649  15654865.0024   15654869.5234
  17324883.695   -17024297.30649 -10757700.00449  17324887.7674   17324893.1404
 96  7 11 19 28 29.9790000  0  5  6 16 24  5 17
  14801697.094   -44847162.01649 -34916550.16649  14801699.9414   14801703.8454
  14739068.284   -48202458.80049 -37538960.89949  14739069.6784   14739074.6634
  16659219.427   -29109440.44449 -22657661.82849  16659222.4734   16659228.6474
  15656843.414   -37512593.35649 -29216519.12649  15656845.5674   15656849.6234
  17292744.286   -17193201.05449 -10889313.25049  17292746.9024   17292752.0384
 96  7 11 19 28 59.9780000  0  5  6 16 24  5 17
  14776606.502   -44979014.27449 -35019292.17049  14776609.0264   14776613.1364
  14719913.635   -48303111.54649 -37617391.59749  14719916.0594   14719921.4064
  16659559.709   -29107648.56349 -22656265.58549  16659564.3424   16659569.3164
  15658881.248   -37501889.07249 -29208178.14649  15658882.3724   15658886.8074
  17260639.183   -17361926.15249 -11020787.33049  17260638.8594   17260645.0774
 96  7 11 19 29 29.9780000  0  5  6 16 24  5 17
  14751549.208   -45110687.25449 -35121894.47549  14751552.4684   14751556.5274
  14700871.277   -48403183.19749 -37695369.48749  14700873.1704   14700877.9714
  16659908.231   -29105814.00449 -22654836.08949  16659912.7934   16659918.7074
  15660970.241   -37490904.62049 -29199618.87049  15660972.8774   15660977.3134
  17228562.469   -17530481.46549 -11152129.10449  17228564.1174   17228569.7324
 96  7 11 19 29 59.9780000  0  5  6 16 24  5 17
  14726528.628   -45242177.58849 -35224354.45849  14726530.8464   14726534.5654
  14681940.666   -48502663.57549 -37772886.65149  14681942.9114   14681947.5754
  16660270.865   -29103914.72549 -22653356.14749  16660274.5234   16660279.1944
  15663117.111   -37479622.37849 -29190827.53449  15663119.6664   15663123.7224
  17196520.617   -17698846.54049 -11283322.63649  17196526.0694   17196531.6734
 96  7 11 19 30 29.9780000  0  5  6 16 24  5 17
  14701538.688   -45373498.47349 -35326682.40849  14701541.0534   14701545.3764
  14663120.554   -48601567.24449 -37849954.42949  14663122.0664   14663126.7904
  16660642.644   -29101969.81449 -22651840.65949  16660644.3524   16660650.5954
  15665321.963   -37468032.79649 -29181796.72749  15665325.3004   15665329.2644
  17164518.825   -17867026.79449 -11414372.13549  17164521.8244   17164527.4884
 96  7 11 19 30 59.9780000  0  5  6 16 24  5 17
  14676583.020   -45504641.35949 -35428871.65549  14676585.4674   14676589.4984
  14644407.551   -48699899.22249 -37926576.73549  14644410.0774   14644414.5194
  16661019.752   -29099979.32849 -22650289.65249  16661023.2834   16661028.6544
  15667587.327   -37456135.75849 -29172526.33849  15667588.9534   15667593.3824
  17132551.090   -18035022.42249 -11545277.75849  17132552.7984   17132559.0244
 96  7 11 19 31 29.9780000  0  5  6 16 24  5 17
  14651658.044   -45635621.95249 -35530934.44449  14651660.6744   14651664.6824
  14625801.165   -48797678.86449 -38002768.64949  14625803.0944   14625808.0084
  16661404.036   -29097955.56749 -22648712.71449  16661408.3794   16661413.1564
  15669906.228   -37443954.38349 -29163034.40449  15669907.2914   15669911.8714
  17100610.065   -18202869.27949 -11676067.53449  17100614.1184   17100619.1364
 96  7 11 19 31 59.9780000  0  5  6 16 24  5 17
  14626760.138   -45766461.68449 -35632887.46949  14626762.5814   14626766.8054
  14607293.012   -48894940.31649 -38078556.78049  14607295.0144   14607299.8044
  16661792.483   -29095922.15649 -22647128.25049  16661795.1854   16661801.0104
  15672275.184   -37431494.81249 -29153325.67449  15672277.9784   15672282.9124
  17068694.742   -18370587.74349 -11806757.14249  17068697.3484   17068703.7594
 96  7 11 19 32 29.9780000  0  5  6 16 24  5 17
  14601902.902   -45897086.65249 -35734673.14649  14601905.4364   14601909.5734
  14588895.730   -48991614.45149 -38153887.26949  14588898.5604   14588903.4154
  16662188.901   -29093830.97749 -22645498.79349  16662192.9674   16662199.0444
  15674708.938   -37418706.14949 -29143360.53649  15674711.5084   15674716.0894
  17036814.900   -18538122.01049 -11937303.35549  17036816.8684   17036822.3594
 96  7 11 19 32 59.9780000  0  5  6 16 24  5 17
  14577084.062   -46027511.78449 -35836303.10549  14577086.5794   14577090.5444
  14570609.938   -49087716.94549 -38228772.32249  14570610.4404   14570615.5794
  16662597.676   -29091691.38149 -22643831.61449  16662600.6574   16662606.3564
  15677197.224   -37405629.25849 -29133170.78649  15677200.1244   15677204.3974
  17004962.794   -18705501.78049 -12067729.06549  17004964.4324   17004971.2684
 96  7 11 19 33 29.9780000  0  5  6 16 24  5 17
  14552302.805   -46157738.93149 -35937778.79149  14552305.4704   14552309.0224
  14552431.292   -49183238.71949 -38303204.86349  14552433.5254   14552438.3284
  16663013.848   -29089507.04349 -22642129.56749  16663016.5284   16663021.3934
  15679740.496   -37392264.93949 -29122757.07049  15679743.0534   15679747.7394
  16973143.348   -18872720.25249 -12198029.16249  16973146.0634   16973150.5824
 96  7 11 19 33 59.9780000  0  5  6 16 24  5 17
  14527558.263   -46287774.08249 -36039104.86349  14527560.5094   14527564.0184
  14534366.375   -49278173.76549 -38377180.21449  14534367.8394   14534372.7514
  16663435.480   -29087291.12049 -22640402.89249  16663437.4774   16663443.0814
  15682339.014   -37378617.44749 -29112122.70349  15682340.6664   15682345.0284
  16941355.051   -19039764.50449 -12328193.39349  16941357.9814   16941363.7364
 96  7 11 19 34 29.9780000  0  5  6 16 24  5 17
  14502850.251   -46417616.58649 -36140280.82349  14502852.3694   14502856.1514
  14516413.655   -49372515.44949 -38450693.19949  14516415.6144   14516420.2554
  16663863.361   -29085039.76649 -22638648.63649  16663866.0064   16663871.2544
  15684986.368   -37364694.86949 -29101273.97949  15684989.5604   15684994.8184
  16909601.451   -19206634.13449 -12458221.69249  16909601.8674   16909609.2214
 96  7 11 19 34 59.9780000  0  5  6 16 24  5 17
  14478178.198   -46547264.50549 -36241305.16449  14478180.8884   14478184.7404
  14498569.900   -49466285.03949 -38523760.40649  14498571.5344   14498576.2244
  16664299.871   -29082745.36249 -22636860.78949  16664302.0744   16664307.3704
  15687691.306   -37350487.30049 -29090203.18749  15687693.8734   15687698.2354
  16877879.744   -19373319.52649 -12588106.29549  16877882.8924   16877889.1264
 96  7 11 19 35 29.9780000  0  5  6 16 24  5 17
  14453543.938   -46676717.11349 -36342177.31049  14453546.8414   14453550.9484
  14480833.105   -49559490.33449 -38596387.89449  14480834.9394   14480839.8844
  16664742.754   -29080413.84049 -22635044.04149  16664746.0114   16664752.4194
  15690449.156   -37335992.80249 -29078908.79549  15690452.3674   15690456.1874
  16846197.307   -19539820.79549 -12717847.58349  16846199.8514   16846206.4764
 96  7 11 19 35 59.9780000  0  5  6 16 24  5 17
  14428950.961   -46805956.21749 -36442883.10049  14428953.6604   14428957.5844
  14463204.531   -49652130.10349 -38668574.71749  14463206.5264   14463211.0904
  16665192.931   -29078042.16149 -22633196.01049  16665198.0264   16665203.4484
  15693261.931   -37321221.33649 -29067398.59749  15693262.5044   15693267.6284
  16814547.573   -19706137.24849 -12847444.72749  16814550.8624   16814555.4634
 96  7 11 19 36 29.9780000  0  5  6 16 24  5 17
  14404395.884   -46934996.05549 -36543433.61249  14404397.9924   14404402.1814
  14445677.158   -49744236.84249 -38740346.18949  14445679.4134   14445683.9204
  16665648.050   -29075661.30449 -22631340.77549  16665652.2134   16665656.9344
  15696118.109   -37306207.98449 -29055699.91349  15696119.0584   15696124.4924
  16782927.482   -19872303.79749 -12976925.19049  16782930.0654   16782936.4674
 96  7 11 19 36 59.9780000  0  5  6 16 24  5 17
  14379876.227   -47063844.74249 -36643835.18049  14379879.1904   14379883.0804
  14428252.275   -49835809.13849 -38811701.22049  14428253.8664   14428258.1854
  16666099.934   -29073287.52149 -22629491.09749  16666103.4634   16666107.1404
  15699018.709   -37290954.60049 -29043814.20149  15699022.4534   15699027.0444
  16751334.061   -20038333.55949 -13106299.01249  16751335.8494   16751341.0174
 96  7 11 19 37 29.9780000  0  5  6 16 24  5 17
  14355407.906   -47192423.71949 -36744026.57449  14355411.4364   14355415.3644
  14410946.543   -49926741.59849 -38882557.66649  14410949.4204   14410954.2034
  16666567.710   -29070830.56249 -22627576.63049  16666570.6024   16666575.6894
  15701981.105   -37275390.79349 -29031686.59549  15701984.1264   15701988.3944
  16719780.766   -20204143.52949 -13235501.53449  16719784.5914   16719790.1404
 96  7 11 19 37 59.9780000  0  5  6 16 24  5 17
  14330979.453   -47320799.01349 -36844059.25949  14330982.2374   14330986.2954
  14393755.300   -50017094.96249 -38952962.87849  14393755.9334   14393760.7754
  16667037.630   -29068355.28549 -22625647.86649  16667042.2174   16667045.5754
  15704992.953   -37259569.97049 -29019358.71649  15704994.6504   15704999.4814
  16688260.406   -20369790.60249 -13364577.17349  16688260.9244   16688266.3094
 96  7 11 19 38 29.9770000  0  5  6 16 24  5 17
  14306573.918   -47449051.38849 -36943996.16049  14306576.3534   14306580.6374
  14376659.448   -50106925.16349 -39022960.42849  14376661.6714   14376666.6224
  16667501.719   -29065922.59049 -22623752.25949  16667504.4104   16667508.9224
  15708042.326   -37243545.82149 -29006872.40249  15708044.3324   15708048.1194
  16656757.498   -20535327.37249 -13493566.82949  16656761.1624   16656767.5204
 96  7 11 19 38 59.9770000  0  5  6 16 24  5 17
  14282178.472   -47577249.33649 -37043890.65249  14282181.2334   14282185.3164
  14359656.964   -50196276.36949 -39092584.73649  14359658.6064   14359663.5584
  16667951.667   -29063564.80049 -22621915.06749  16667955.1914   16667956.4404
  15711120.902   -37227371.35949 -28994268.96249  15711121.9214   15711126.8254
  16625266.809   -20700813.66049 -13622517.14149  16625270.1034   16625275.4974
 96  7 11 19 39 29.9770000  0  5  6 16 24  5 17
  14257821.489   -47705245.69849 -37143628.07249  14257824.2914   14257828.5404
  14342770.398   -50285011.73149 -39161729.17149  14342772.8714   14342777.9084
  16668409.944   -29061151.59749 -22620034.65249  16668411.9734   16668416.8244
  15714247.917   -37210933.35849 -28981460.17649  15714250.2594   15714254.7464
  16593812.573   -20866109.66049 -13751319.20149  16593815.5804   16593820.7164
 96  7 11 19 39 59.9770000  0  5  6 16 24  5 17
  14233500.198   -47833057.86549 -37243221.95949  14233502.5134   14233506.4794
  14325998.565   -50373155.14849 -39230412.34049  14325999.8974   14326004.6944
  16668874.087   -29058717.46049 -22618137.95349  16668876.5064   16668880.0384
  15717423.482   -37194249.62749 -28968459.90649  15717424.9124   15717429.2954
  16562386.599   -21031242.84549 -13879994.34549  16562391.9424   16562396.6724
 96  7 11 19 40 29.9770000  0  5  6 16 24  5 17
  14209204.557   -47960729.70149 -37342706.49849  14209207.4294   14209211.2414
  14309329.792   -50460744.15149 -39298663.50849  14309332.4674   14309337.3164
  16669331.764   -29056299.24749 -22616253.69049  16669336.2954   16669340.9724
  15720635.507   -37177364.26749 -28955302.53649  15720638.1474   15720642.8834
  16530988.014   -21196257.65249 -14008577.27349  16530990.8924   16530995.1734
 96  7 11 19 40 59.9770000  0  5  6 16 24  5 17
  14184941.515   -48088234.44449 -37442060.83249  14184944.2594   14184948.0164
  14292767.275   -50547781.78349 -39366485.02549  14292769.5804   14292774.1684
  16669791.343   -29053896.99249 -22614381.81549  16669792.8814   16669797.7774
  15723888.135   -37160270.95849 -28941983.10349  15723891.0234   15723895.1464
  16499607.128   -21361149.83649 -14137064.66049  16499611.5694   16499618.5014
 96  7 11 19 41 29.9770000  0  5  6 16 24  5 17
  14160722.555   -48215507.98449 -37541235.01649  14160724.9334   14160728.5254
  14276315.997   -50634232.57549 -39433849.27349  14276318.4424   14276323.1724
  16670251.012   -29051476.76249 -22612496.00749  16670253.4204   16670258.5054
  15727194.532   -37142905.75449 -28928451.81949  15727194.9114   15727200.7444
  16468269.613   -21525848.61649 -14265401.35949  16468271.6394   16468275.7024
 96  7 11 19 41 59.9770000  0  5  6 16 24  5 17
  14136501.795   -48342788.16449 -37640414.36749  14136503.7804   14136507.6694
  14259931.690   -50720334.18449 -39500941.42849  14259933.6614   14259938.6514
  16670671.776   -29049261.99649 -22610770.24849  16670675.8434   16670679.8914
  15730507.775   -37125481.29449 -28914874.35549  15730511.1064   15730516.0634
  16436924.738   -21690567.85749 -14393753.97449  16436927.0564   16436932.7754
 96  7 11 19 42 29.9770000  0  5  6 16 24  5 17
  14112332.457   -48469799.44449 -37739384.19549  14112334.7624   14112338.3684
  14243663.862   -50805822.40649 -39567555.62349  14243666.1114   14243670.7514
  16671103.692   -29046984.06649 -22608995.28749  16671108.2414   16671113.7714
  15733885.297   -37107740.94649 -28901050.75849  15733887.1144   15733891.9054
  16405625.165   -21855037.24049 -14521911.95649  16405629.0614   16405633.3594
 96  7 11 19 42 59.9770000  0  5  6 16 24  5 17
  14088215.914   -48596531.52149 -37838136.45349  14088218.5644   14088222.2834
  14227511.569   -50890704.66649 -39633697.63849  14227513.5244   14227518.1924
  16671551.319   -29044656.21549 -22607181.38149  16671551.9224   16671557.1224
  15737315.159   -37089718.40849 -28887007.23949  15737316.8844   15737321.4854
  16374375.050   -22019261.67049 -14649878.98249  16374377.3504   16374382.6194
 96  7 11 19 43 29.9770000  0  5  6 16 24  5 17
  14064136.947   -48723066.38049 -37936735.03449  14064139.6474   14064143.2214
  14211460.618   -50975053.83149 -39699424.24949  14211462.3224   14211467.0874
  16671988.329   -29042348.30549 -22605383.07249  16671989.8424   16671995.5214
  15740777.899   -37071506.64049 -28872816.29149  15740781.9584   15740787.2294
  16343155.364   -22183320.36149 -14777716.92249  16343157.7654   16343163.8004
 96  7 11 19 43 59.9770000  0  5  6 16 24  5 17
  14040107.865   -48849339.29649 -38035129.51449  14040110.6584   14040114.3104
  14195524.674   -51058796.94849 -39764678.62249  14195526.6034   14195531.2494
  16672438.331   -29039985.16549 -22603541.69449  16672441.1484   16672446.2914
  15744291.259   -37053050.47049 -28858434.90749  15744293.9214   15744298.9284
  16311978.001   -22347160.37249 -14905384.45349  16311979.2254   16311984.0194
 96  7 11 19 44 29.9770000  0  5  6 16 24  5 17
  14016137.336   -48975304.58449 -38133284.27749  14016140.0904   14016144.0654
  14179713.294   -51141886.40349 -39829423.64149  14179715.2564   14179720.0174
  16672904.372   -29037526.57249 -22601625.94849  16672907.8614   16672913.7124
  15747853.171   -37034332.35249 -28843849.39749  15747855.3324   15747861.4874
  16280848.801   -22510742.42749 -15032850.97749  16280851.4234   16280856.8824
 96  7 11 19 44 59.9770000  0  5  6 16 24  5 17
  13992222.164   -49100981.49949 -38231214.33749  13992224.6584   13992228.6304
  14164023.925   -51224332.67949 -39893667.48549  14164025.9744   14164030.5894
  16673389.666   -29034986.47749 -22599646.67449  16673391.4354   16673397.7684
  15751460.768   -37015362.28749 -28829067.58449  15751466.2984   15751470.3064
  16249767.237   -22674073.20349 -15160121.69749  16249770.7704   16249775.5474
 96  7 11 19 45 29.9770000  0  5  6 16 24  5 17
  13968359.851   -49226380.34149 -38328927.71449  13968361.9334   13968365.8154
  14148458.923   -51306129.07349 -39957404.92749  14148460.8524   14148465.4594
  16673887.703   -29032368.55849 -22597606.76149  16673890.0994   16673896.5474
  15755127.938   -36996115.25349 -28814069.94249  15755129.1554   15755133.8244
  16218734.760   -22837152.41249 -15287196.38449  16218737.6544   16218743.8094
 96  7 11 19 45 59.9770000  0  5  6 16 24  5 17
  13944536.239   -49351572.28749 -38426479.87449  13944538.8484   13944542.7424
  14133008.238   -51387325.57649 -40020674.92249  14133009.3884   14133014.4864
  16674384.014   -29029756.43149 -22595571.39649  16674387.3084   16674392.5214
  15758825.794   -36976667.52249 -28798915.91849  15758830.2354   15758834.8574
  16187735.331   -23000057.50849 -15414135.42349  16187738.2474   16187743.4504
 96  7 11 19 46 29.9770000  0  5  6 16 24  5 17
  13920756.664   -49476537.62349 -38523855.45849  13920758.6714   13920762.5424
  14117675.462   -51467895.47049 -40083456.65849  14117677.5014   14117682.4904
  16674883.611   -29027134.22749 -22593528.16649  16674886.7534   16674891.8274
  15762570.031   -36957003.78749 -28783593.57649  15762570.9264   15762577.5334
  16156771.263   -23162776.60149 -15540929.50149  16156773.4334   16156778.7294
 96  7 11 19 46 59.9770000  0  5  6 16 24  5 17
  13897023.625   -49601252.80249 -38621036.10649  13897026.1534   13897030.1184
  14102463.490   -51547834.19749 -40145746.56749  14102465.7054   14102470.6344
  16675385.607   -29024490.55649 -22591468.19649  16675388.9654   16675395.3154
  15766357.387   -36937089.36449 -28768075.86749  15766361.3054   15766365.7154
  16125841.903   -23325308.81349 -15667577.95749  16125844.9254   16125850.4954
 96  7 11 19 47 29.9770000  0  5  6 16 24  5 17
  13873331.252   -49725757.38249 -38718052.65749  13873333.8524   13873337.7194
  14087362.515   -51627190.70849 -40207582.80549  14087364.8114   14087369.2894
  16675887.759   -29021865.17549 -22589422.47749  16675888.8374   16675893.9044
  15770189.817   -36916965.46649 -28752394.96649  15770191.3094   15770195.7324
  16094942.381   -23487686.30049 -15794105.84149  16094945.0364   16094950.6504
 96  7 11 19 47 59.9770000  0  5  6 16 24  5 17
  13849684.493   -49850020.32849 -38814880.92749  13849687.1504   13849691.1134
  14072373.567   -51705961.47249 -40268962.62749  14072375.2754   14072380.0254
  16676387.464   -29019223.29949 -22587363.90249  16676391.8364   16676397.3884
  15774061.391   -36896612.15549 -28736535.28649  15774064.2414   15774068.6014
  16064080.355   -23649874.63149 -15920486.35049  16064082.2564   16064086.8344
 96  7 11 19 48 29.9760000  0  5  6 16 24  5 17
  13826083.673   -49974043.17949 -38911522.10549  13826086.6824   13826090.4014
  14057489.244   -51784179.77749 -40329911.95349  14057490.7804   14057495.7094
  16676896.003   -29016563.12749 -22585291.08449  16676896.7044   16676903.6154
  15777980.593   -36876019.06249 -28720488.76449  15777982.7574   15777987.6944
  16033255.163   -23811860.13949 -16046708.79549  16033256.7984   16033262.3824
 96  7 11 19 48 59.9760000  0  5  6 16 24  5 17
  13802535.783   -50097790.21849 -39007948.36449  13802538.5264   13802542.0044
  14042714.879   -51861816.12849 -40390407.80949  14042716.9514   14042721.6504
  16677410.959   -29013840.63449 -22583169.70349  16677415.9984   16677421.2944
  15781952.925   -36855143.79749 -28704222.35649  15781955.4014   15781959.7194
  16002476.115   -23973600.45749 -16172740.20049  16002478.3344   16002483.4614
 96  7 11 19 49 29.9760000  0  5  6 16 24  5 17
  13779032.892   -50221297.41449 -39104187.73349  13779035.6184   13779039.3634
  14028047.840   -51938890.10649 -40450465.45549  14028050.4274   14028055.5834
  16677937.263   -29011084.94849 -22581022.46449  16677939.9464   16677945.6464
  15785969.005   -36834041.29949 -28687778.88849  15785970.7874   15785975.3724
  15971739.849   -24135119.96649 -16298599.55249  15971742.6374   15971746.6814
 96  7 11 19 49 59.9760000  0  5  6 16 24  5 17
  13755572.967   -50344578.57349 -39200250.97349  13755576.0964   13755580.0074
  14013488.601   -52015406.02449 -40510088.25049  14013489.9134   14013494.6304
  16678463.625   -29008311.52349 -22578861.38949  16678467.6694   16678473.1294
  15790023.852   -36812733.85149 -28671175.74449  15790025.8704   15790030.9534
  15941039.996   -24296451.22749 -16424312.20749  15941042.3534   15941047.8034
 96  7 11 19 50 29.9760000  0  5  6 16 24  5 17
  13732158.497   -50467621.29949 -39296128.42049  13732161.7634   13732165.6724
  13999038.110   -52091338.78549 -40569256.63849  13999040.3924   13999045.2244
  16678998.372   -29005515.86649 -22576683.01949  16678999.5364   16679006.8754
  15794116.745   -36791229.09249 -28654418.83049  15794118.0374   15794122.8794
  15910375.899   -24457589.03049 -16549874.13749  15910378.5464   15910384.4294
 96  7 11 19 50 59.9760000  0  5  6 16 24  5 17
  13708794.752   -50590403.65049 -39391802.98049  13708797.2014   13708800.7934
  13984704.848   -52166662.94649 -40627950.79549  13984706.2764   13984711.2324
  16679535.372   -29002683.43749 -22574476.03849  16679537.5244   16679545.2384
  15798245.930   -36769524.56049 -28637506.26249  15798248.4774   15798252.6314
  15879751.056   -24618523.99349 -16675277.99549  15879754.1624   15879759.2914
 96  7 11 19 51 29.9760000  0  5  6 16 24  5 17
  13685484.103   -50712900.76449 -39487255.27549  13685486.6384   13685490.6904
  13970491.944   -52241352.15249 -40686150.18349  13970493.7894   13970498.4514
  16680087.835   -28999792.19149 -22572223.11349  16680090.7354   16680093.3974
  15802421.377   -36747586.33049 -28620411.59949  15802423.3084   15802428.1304
  15849170.799   -24779223.36749 -16800498.29449  15849174.4604   15849177.7924
 96  7 11 19 51 59.9760000  0  5  6 16 24  5 17
  13662235.211   -50835075.03949 -39582456.00949  13662237.7974   13662241.7764
  13956404.432   -52315378.57649 -40743833.11649  13956406.7724   13956411.5364
  16680652.285   -28996825.01149 -22569911.07149  16680652.5234   16680657.8234
  15806647.243   -36725377.20749 -28603105.81949  15806649.2074   15806654.1704
  15818643.115   -24939652.87049 -16925508.25849  15818645.3164   15818650.7714
 96  7 11 19 52 29.9760000  0  5  6 16 24  5 17
  13639048.287   -50956924.38249 -39677403.55549  13639050.5774   13639054.5464
  13942445.460   -52388739.13349 -40800997.19249  13942446.9464   13942451.8354
  16681228.088   -28993784.30249 -22567541.76949  16681232.5704   16681239.8764
  15810924.766   -36702892.06749 -28585584.98249  15810928.2684   15810932.6694
  15788167.550   -25099794.60049 -17050293.99949  15788170.4184   15788176.5764
 96  7 11 19 52 59.9760000  0  5  6 16 24  5 17
  13615923.497   -51078444.67649 -39772094.68949  13615925.9284   13615929.8954
  13928613.738   -52461428.57049 -40857638.31249  13928614.6944   13928619.4834
  16681821.779   -28990668.36649 -22565113.81749  16681825.6234   16681832.0684
  15815258.569   -36680112.81449 -28567834.96249  15815262.5974   15815268.2814
  15757751.359   -25259639.59149 -17174848.50849  15757753.2124   15757758.6314
 96  7 11 19 53 29.9760000  0  5  6 16 24  5 17
  13592859.549   -51199645.43649 -39866536.84749  13592861.9714   13592866.1084
  13914906.434   -52533455.95349 -40913763.55549  13914908.4834   13914912.9924
  16682426.121   -28987491.62149 -22562638.49249  16682431.2554   16682435.4414
  15819649.491   -36657053.41549 -28549866.65549  15819650.8564   15819656.1414
  15727389.169   -25419192.42549 -17299175.40549  15727391.8154   15727397.5244
 96  7 11 19 53 59.9760000  0  5  6 16 24  5 17
  13569861.452   -51320502.20249 -39960710.95149  13569863.8884   13569867.8054
  13901328.230   -52604809.61749 -40969363.81549  13901330.2404   13901335.0884
  16683044.419   -28984243.52349 -22560107.52349  16683048.9974   16683051.4544
  15824088.027   -36633717.19849 -28531682.61949  15824092.2114   15824096.6524
  15697083.838   -25578446.53649 -17423269.49049  15697087.4204   15697092.7094
 96  7 11 19 54 29.9760000  0  5  6 16 24  5 17
  13546909.638   -51441113.97749 -40054694.15249  13546912.2614   13546916.1484
  13887858.362   -52675594.89349 -41024521.17149  13887860.2674   13887864.6704
  16683658.288   -28981017.22649 -22557593.53149  16683662.7874   16683668.0414
  15828561.991   -36610211.56349 -28513366.57849  15828565.0184   15828568.2544
  15666816.334   -25737498.77349 -17547206.27849  15666819.5684   15666826.1334
 96  7 11 19 54 59.9760000  0  5  6 16 24  5 17
  13524000.524   -51561502.90449 -40148503.71149  13524002.9964   13524006.7124
  13874489.640   -52745849.93449 -41079265.36149  13874490.9594   13874495.6914
  16684264.058   -28977840.29449 -22555118.05849  16684268.4584   16684272.2234
  15833059.820   -36586580.91949 -28494953.15249  15833060.9424   15833065.7514
  15636582.006   -25896394.99349 -17671021.49849  15636583.7894   15636587.7444
 96  7 11 19 55 29.9760000  0  5  6 16 24  5 17
  13501156.218   -51681548.47249 -40242045.72049  13501158.9214   13501162.9774
  13861245.900   -52815442.26949 -41133493.15649  13861248.1204   13861252.8574
  16684881.694   -28974601.99249 -22552594.73649  16684884.0684   16684891.1004
  15837600.451   -36562718.02849 -28476358.75049  15837602.9634   15837607.1674
  15606393.242   -26055025.16449 -17794629.42249  15606396.5884   15606402.2034
 96  7 11 19 55 59.9760000  0  5  6 16 24  5 17
  13478376.377   -51801259.27149 -40335326.86749  13478379.0224   13478382.5404
  13848127.617   -52884380.19049 -41187211.01049  13848129.4024   13848134.1774
  16685506.150   -28971315.84049 -22550034.18349  16685508.4154   16685515.9544
  15842179.724   -36538649.79849 -28457604.34249  15842182.9294   15842187.0314
  15576253.788   -26213410.01749 -17918046.16849  15576257.3554   15576262.1194
 96  7 11 19 56 29.9760000  0  5  6 16 24  5 17
  13455661.749   -51920624.56149 -40428338.78249  13455664.5034   13455668.3414
  13835139.017   -52952633.98549 -41240395.78949  13835141.2504   13835146.1014
  16686142.507   -28967961.08249 -22547420.14249  16686147.4364   16686153.7674
  15846804.203   -36514350.66549 -28438670.00149  15846807.2624   15846811.5404
  15546167.053   -26371528.83249 -18041255.60449  15546168.5224   15546173.8704
 96  7 11 19 56 59.9760000  0  5  6 16 24  5 17
  13433013.056   -52039646.67549 -40521083.28949  13433015.2604   13433019.0684
  13822281.173   -53020204.58949 -41293048.21049  13822283.1054   13822287.9334
  16686796.336   -28964536.31759 -22544751.50159  16686799.3054   16686805.8614
  15851476.451   -36489805.00149 -28419543.55149  15851478.3984   15851482.4284
  15516125.889   -26529381.99549 -18164258.06549  15516129.2844   15516134.1424
 96  7 11 19 57 29.9760000  0  5  6 16 24  5 17
  13410419.860   -52158372.87249 -40613597.20449  13410422.2424   13410426.0454
  13809543.025   -53087147.41149 -41345211.44549  13809544.4414   13809549.1964
  16687449.326   -28961090.34049 -22542066.37949  16687454.5774   16687461.0414
  15856186.985   -36465050.19249 -28400254.12149  15856188.3034   15856193.0364
  15486131.018   -26687006.82149 -18287082.57849  15486134.0134   15486140.0854
 96  7 11 19 57 59.9760000  0  5  6 16 24  5 17
  13387877.333   -52276836.06749 -40705906.18849  13387879.5974   13387883.3764
  13796910.141   -53153527.00649 -41396935.80849  13796912.5524   13796917.6434
  16688105.943   -28957647.52349 -22539383.69849  16688110.2894   16688116.3804
  15860930.033   -36440119.32849 -28380827.51549  15860931.7844   15860937.7464
  15456173.909   -26844428.93049 -18409749.14649  15456178.3904   15456183.0564
 96  7 11 19 58 29.9750000  0  5  6 16 24  5 17
  13365382.584   -52395042.66949 -40798015.22249  13365385.6954   13365389.6324
  13784382.224   -53219367.65849 -41448240.20549  13784383.8444   13784388.2784
  16688760.979   -28954212.83059 -22536707.38149  16688764.9104   16688769.3954
  15865707.479   -36415006.61949 -28361259.21249  15865710.7434   15865715.7184
  15426257.913   -27001645.61649 -18532255.63649  15426260.4444   15426265.3014
 96  7 11 19 58 59.9750000  0  5  6 16 24  5 17
  13342937.007   -52512998.41649 -40889928.78949  13342939.4944   13342943.4084
  13771950.811   -53284690.46249 -41499141.09149  13771952.9984   13771957.8654
  16689411.310   -28950794.50149 -22534043.76949  16689414.0024   16689418.5114
  15870516.969   -36389739.67049 -28341570.73849  15870519.0504   15870523.9344
  15396376.823   -27158676.03049 -18654616.98249  15396379.4444   15396383.3434
 96  7 11 19 59 29.9750000  0  5  6 16 24  5 17
  13320555.012   -52630616.26949 -40981579.06249  13320557.6594   13320561.5424
  13759634.403   -53349415.16749 -41549575.92149  13759636.5934   13759641.1474
  16690071.782   -28947323.97949 -22531339.49949  16690073.9724   16690080.6074
  15875361.669   -36364279.37349 -28321731.59849  15875364.2234   15875368.7644
  15366543.321   -27315447.58849 -18776776.62449  15366546.5814   15366551.1344
 96  7 11 19 59 59.9750000  0  5  6 16 24  5 17
  13298236.674   -52747899.45449 -41072968.55749  13298239.2004   13298242.9864
  13747433.925   -53413528.22349 -41599534.14449  13747436.0224   13747440.4934
  16690740.461   -28943801.66549 -22528594.87449  16690744.9324   16690750.7164
  15880242.845   -36338641.47549 -28301754.08049  15880242.9484   15880247.2574
  15336758.964   -27471959.15049 -18898733.68549  15336762.2814   15336767.2424
 96  7 11 20  0 29.9750000  0  5  6 16 24  5 17
  13275973.378   -52864893.23749 -41164132.54649  13275976.0634   13275979.7914
  13735344.725   -53477056.37649 -41649036.60149  13735346.9634   13735351.7654
  16691414.686   -28940262.46449 -22525837.10549  16691419.6264   16691424.2624
  15885147.129   -36312869.65449 -28281672.20949  15885146.5564   15885153.0114
  15307018.335   -27628255.64849 -19020523.14449  15307021.6064   15307025.8544
 96  7 11 20  0 59.9750000  0  5  6 16 24  5 17
  13253770.226   -52981573.58449 -41255052.29249  13253772.5244   13253776.3214
  13723374.105   -53539963.38149 -41698055.04249  13723376.2054   13723380.8034
  16692098.585   -28936682.82049 -22523047.84549  16692100.6164   16692105.1144
  15890078.142   -36286939.49949 -28261466.95349  15890081.1284   15890087.4724
  15277322.631   -27784307.33049 -19142121.84149  15277325.4754   15277331.2434
 96  7 11 20  1 29.9750000  0  5  6 16 24  5 17
  13231621.216   -53097966.67149 -41345748.20549  13231623.5614   13231627.2474
  13711516.742   -53602276.67749 -41746610.85549  13711518.1604   13711522.6084
  16692782.665   -28933079.92449 -22520240.43649  16692785.7904   16692789.9054
  15895046.568   -36260842.50449 -28241131.68849  15895047.1434   15895053.3434
  15247669.762   -27940129.27449 -19263541.52749  15247672.5724   15247677.9484
 96  7 11 20  1 59.9750000  0  5  6 16 24  5 17
  13209522.230   -53214092.43149 -41436235.80649  13209525.3354   13209529.4134
  13699768.609   -53664011.34649 -41794715.79249  13699770.7114   13699775.4674
  16693471.665   -28929457.34549 -22517417.66149  16693474.0464   16693480.8614
  15900047.657   -36234559.65349 -28220651.59749  15900048.2544   15900054.1784
  15218063.351   -28095716.65949 -19384778.43249  15218066.6284   15218071.2784
 96  7 11 20  2 29.9750000  0  5  6 16 24  5 17
  13187479.741   -53329929.88849 -41526498.75649  13187482.5544   13187486.7864
  13688134.766   -53725147.31549 -41842354.21849  13688137.0974   13688141.8194
  16694167.259   -28925798.57349 -22514566.67449  16694171.0434   16694176.4884
  15905088.614   -36208058.15549 -28200001.12949  15905092.4144   15905097.9684
  15188505.568   -28251048.81949 -19505816.44949  15188507.0284   15188512.1634
 96  7 11 20  2 59.9750000  0  5  6 16 24  5 17
  13165492.236   -53445475.56049 -41616534.33549  13165494.8414   13165498.8514
  13676614.169   -53785686.30049 -41889527.44749  13676616.6804   13676621.7134
  16694865.902   -28922136.01249 -22511712.79149  16694867.2124   16694873.4804
  15910173.173   -36181348.04449 -28179188.09849  15910175.7544   15910179.6494
  15158993.173   -28406136.68849 -19626664.12049  15158995.1654   15159000.7714
 96  7 11 20  3 29.9750000  0  5  6 16 24  5 17
  13143562.218   -53560719.15649 -41706334.54249  13143564.5694   13143568.6584
  13665207.951   -53845625.19749 -41936233.08749  13665210.9374   13665215.6374
  16695559.283   -28918469.34549 -22508855.75549  16695564.7944   16695571.3304
  15915293.684   -36154438.87149 -28158219.96649  15915295.3804   15915300.2844
  15129524.806   -28560985.44849 -19747325.47949  15129528.3934   15129534.0884
 96  7 11 20  3 59.9750000  0  5  6 16 24  5 17
  13121689.006   -53675662.36049 -41795900.66749  13121691.6974   13121695.7354
  13653918.125   -53904960.52449 -41982468.40049  13653919.8804   13653924.4074
  16696254.686   -28914821.17649 -22506013.09549  16696260.4864   16696266.0204
  15920445.648   -36127366.92549 -28137125.00649  15920447.2744   15920452.6384
  15100103.970   -28715604.82649 -19867808.09949  15100105.2374   15100110.6694
 96  7 11 20  4 29.9750000  0  5  6 16 24  5 17
  13099873.643   -53790304.50949 -41885232.20649  13099876.1744   13099880.0134
  13642737.394   -53963714.05849 -42028250.37549  13642739.2804   13642744.2244
  16696943.329   -28911222.23649 -22503208.77349  16696945.2034   16696951.0224
  15925620.434   -36100178.23749 -28115939.07149  15925621.0914   15925626.3824
  15070718.078   -28870018.23849 -19988130.21849  15070721.3284   15070726.2604
 96  7 11 20  4 59.9750000  0  5  6 16 24  5 17
  13078112.448   -53904663.14449 -41974342.83349  13078114.4964   13078118.3574
  13631658.857   -54021931.07149 -42073614.28649  13631660.8744   13631665.6114
  16697609.003   -28907704.71649 -22500467.85649  16697615.2804   16697619.7044
  15930805.132   -36072922.63149 -28094700.99449  15930808.3854   15930813.5664
  15041368.560   -29024251.70649 -20108312.11749  15041371.4674   15041376.8804
 96  7 11 20  5 29.9750000  0  5  6 16 24  5 17
  13056407.720   -54018721.43949 -42063219.42249  13056409.7434   13056413.8874
  13620685.088   -54079602.41749 -42118552.99749  13620686.4774   13620691.0364
  16698271.286   -28904230.18749 -22497760.51949  16698275.9814   16698281.1174
  15936007.857   -36045587.26449 -28073400.77349  15936009.4294   15936015.0014
  15012060.102   -29178269.04149 -20228325.60849  15012063.3514   15012067.2884
 96  7 11 20  5 59.9750000  0  5  6 16 24  5 17
  13034766.891   -54132442.08949 -42151832.92049  13034769.4404   13034773.0544
  13609819.494   -54136694.96849 -42163040.70949  13609821.7924   13609826.6494
  16698932.629   -28900762.47049 -22495058.45349  16698934.9414   16698941.2434
  15941229.708   -36018140.87449 -28052014.04349  15941232.5784   15941238.4664
  14982800.056   -29332025.20749 -20348135.59149  14982803.7124   14982809.2854
 96  7 11 20  6 29.9750000  0  5  6 16 24  5 17
  13013199.290   -54245780.18549 -42240148.32949  13013201.8904   13013205.6674
  13599073.914   -54193168.19249 -42207045.82949  13599075.7084   13599079.7574
  16699599.283   -28897233.29949 -22492308.48849  16699605.7114   16699613.2064
  15946485.012   -35990522.92649 -28030493.62549  15946488.3814   15946493.9864
  14953600.731   -29485475.51449 -20467707.23349  14953603.4214   14953608.4774
 96  7 11 20  6 59.9750000  0  5  6 16 24  5 17
  12991705.269   -54358734.12849 -42328164.38949  12991707.6224   12991711.3624
  13588451.614   -54248988.33349 -42250542.05249  13588453.3134   13588457.8204
  16700291.739   -28893606.15849 -22489482.22049  16700297.3764   16700302.1994
  15951780.473   -35962705.06149 -28008817.41449  15951781.8464   15951787.2264
  14924459.908   -29638609.12649 -20587032.11449  14924463.2304   14924468.8144
 96  7 11 20  7 29.9750000  0  5  6 16 24  5 17
  12970272.002   -54471365.79149 -42415929.32249  12970274.5164   12970278.2714
  13577945.892   -54304197.22149 -42293561.96649  13577947.5544   13577952.0204
  16700992.825   -28889925.77749 -22486614.44049  16700997.6424   16701003.3384
  15957108.506   -35934728.81549 -27987017.79149  15957105.7824   15957110.3714
  14895367.881   -29791491.89749 -20706161.52449  14895370.6964   14895376.3094
 96  7 11 20  7 59.9740000  0  5  6 16 24  5 17
  12948905.421   -54583647.31049 -42503421.41449  12948908.0144   12948911.5994
  13567561.411   -54358764.44949 -42336081.89149  13567564.0224   13567568.1134
  16701706.931   -28886172.55249 -22483689.93149  16701711.8114   16701717.8444
  15962463.133   -35906565.86149 -27965072.68849  15962465.1034   15962469.6074
  14866324.322   -29944114.22949 -20825088.00549  14866327.3414   14866332.7644
 96  7 11 20  8 29.9740000  0  5  6 16 24  5 17
  12927600.066   -54695606.98749 -42590662.71649  12927602.9024   12927606.6674
  13557296.173   -54412712.32549 -42378119.19549  13557297.6904   13557301.8934
  16702432.794   -28882373.60649 -22480729.77949  16702434.4294   16702441.6414
  15967851.966   -35878231.07249 -27942993.68149  15967856.6174   15967861.9744
  14837323.072   -30096518.19649 -20943844.32849  14837325.8264   14837331.3144
 96  7 11 20  8 59.9740000  0  6  6 16 24  5 17 23
  12906353.589   -54807260.31549 -42677665.30849  12906355.8364   12906359.7224
  13547141.953   -54466067.53349 -42419694.68249  13547144.6814   13547149.1314
  16703155.837   -28878566.74649 -22477763.44849  16703159.7584   16703166.0964
  15973274.926   -35849748.72049 -27920799.70149  15973276.9604   15973283.0504
  14808361.802   -30248718.27749 -21062441.78649  14808363.0864   14808368.2704
  17165196.386    -4713920.76659  -3179257.19459  17165199.0424   17165202.2574
 96  7 11 20  9 29.9740000  0  6  6 16 24  5 17 23
  12885167.388   -54918592.08049 -42764417.32749  12885170.2454   12885174.0324
  13537098.629   -54518849.16149 -42460823.22649  13537100.8884   13537105.5234
  16703881.026   -28874764.40949 -22474800.64249  16703883.5094   16703889.4144
  15978722.583   -35821118.92549 -27898490.81749  15978725.0964   15978729.1204
  14779437.032   -30400710.51349 -21180877.26049  14779439.9814   14779444.9044
  17129378.616    -4902137.32549  -3325919.33449  17129380.7104   17129391.1564
 96  7 11 20  9 59.9740000  0  6  6 16 24  5 17 23
  12864041.992   -55029610.80549 -42850925.42249  12864044.1344   12864047.8864
  13527157.666   -54571089.53049 -42501530.00849  13527159.5144   13527164.2744
  16704597.296   -28871000.37149 -22471867.62349  16704598.6774   16704604.9784
  15984193.723   -35792378.29949 -27876095.60449  15984194.1144   15984198.0584
  14750550.986   -30552509.96649 -21299162.52549  14750553.2714   14750558.2744
  17093568.865    -5090324.97349  -3472559.00649  17093569.1274   17093576.8544
 96  7 11 20 10 29.9740000  0  6  6 16 24  5 17 23
  12842988.372   -55140245.24349 -42937134.06949  12842991.1264   12842995.0164
  13517331.353   -54622725.45949 -42541765.80449  13517333.5124   13517338.0874
  16705316.891   -28867207.99449 -22468912.60049  16705320.5804   16705326.9684
  15989694.094   -35763467.53649 -27853567.80049  15989695.2744   15989700.7374
  14721714.361   -30704043.43149 -21417240.53149  14721717.9574   14721722.2654
  17057777.719    -5278415.81149  -3619123.22549  17057776.0474   17057782.8664
 96  7 11 20 10 59.9740000  0  6  6 16 24  5 17 23
  12822000.410   -55250542.50949 -43023079.99149  12822002.3654   12822006.2014
  13507610.046   -54673810.42749 -42581572.27649  13507612.1894   13507617.0994
  16706038.484   -28863432.67249 -22465970.82649  16706039.1684   16706046.0764
  15995218.332   -35734445.98849 -27830953.69049  15995217.9764   15995223.5074
  14692920.729   -30855352.62649 -21535143.77749  14692924.4714   14692929.5424
  17021988.159    -5466472.98549  -3765661.18649  17021989.6674   17021999.5434
 96  7 11 20 11 29.9740000  0  6  6 16 24  5 17 23
  12801079.395   -55360478.96949 -43108744.76149  12801081.8404   12801085.5914
  13497998.694   -54724321.13449 -42620931.27449  13498000.2954   13498004.8404
  16706754.373   -28859667.10349 -22463036.70749  16706755.4974   16706762.5384
  16000764.235   -35705304.30249 -27808245.95949  16000763.7284   16000768.6184
  14664175.361   -31006413.67249 -21652853.65349  14664178.0274   14664183.6784
  16986209.333    -5654491.80949  -3912169.28949  16986211.6064   16986219.5314
 96  7 11 20 11 59.9740000  0  6  6 16 24  5 17 23
  12780213.367   -55470131.06249 -43194187.94749  12780216.1354   12780219.5354
  13488484.642   -54774317.76249 -42659889.68549  13488486.6874   13488491.3844
  16707450.495   -28855991.09649 -22460172.34849  16707454.7254   16707461.3424
  16006315.196   -35676111.18249 -27785498.14649  16006319.4014   16006323.6904
  14635466.196   -31157285.42349 -21770416.03049  14635468.4624   14635474.2234
  16950429.839    -5842514.72649  -4058680.56149  16950431.6424   16950438.1084
 96  7 11 20 12 29.9740000  0  6  6 16 24  5 17 23
  12759401.923   -55579494.00149 -43279405.83049  12759404.8374   12759408.7054
  13479072.239   -54823782.25049 -42698433.45549  13479073.6094   13479078.1634
  16708138.962   -28852382.03649 -22457360.22249  16708142.2484   16708148.7314
  16011885.360   -35646833.50549 -27762684.44249  16011890.2874   16011896.5274
  14606798.403   -31307937.35949 -21887807.13149  14606800.4874   14606806.0764
  16914654.560    -6030514.06049  -4205173.46249  16914656.0374   16914663.8874
 96  7 11 20 12 59.9740000  0  6  6 16 24  5 17 23
  12738648.160   -55688557.99949 -43364390.76249  12738650.6124   12738654.2944
  13469762.124   -54872705.50849 -42736555.47249  13469764.1604   13469768.7844
  16708815.004   -28848826.12259                                  16708816.6394
  16017479.557   -35617458.81749 -27739795.13349  16017480.6044   16017485.5704
  14578176.762   -31458341.44349 -22005005.10749  14578179.3094   14578184.7054
  16878888.837    -6218476.52749  -4351637.63449  16878888.9874   16878895.9024
 96  7 11 20 13 29.9740000  0  6  6 16 24  5 17 23
  12717969.085   -55797226.01449 -43449067.13749  12717971.5704   12717975.3994
  13460571.836   -54920997.44449 -42774185.55649  13460574.0214   13460578.8914
  16709501.695   -28845227.374 9
  16023103.051   -35587900.25149 -27716762.54349  16023105.5244   16023110.2114
  14549619.654   -31608404.54649 -22121937.37449  14549622.9774   14549628.0754
  16843147.378    -6406294.77449  -4497989.45749  16843148.0304   16843154.9854
 96  7 11 20 13 59.9740000  0  6  6 16 24  5 17 23
  12697320.490   -55905736.56949 -43533620.81649  12697322.7184   12697326.4954
  13451458.820   -54968892.20249 -42811506.14449  13451460.1904   13451464.5774
  16710155.390   -28841788.159 9
  16028714.548   -35558405.34549 -27693779.57449  16028716.9974   16028722.1384
  14521084.699   -31758359.48849 -22238785.34849  14521087.7284   14521093.1864
  16807393.301    -6594186.59549  -4644398.63649  16807393.5964   16807401.2654
 96  7 11 20 14 29.9740000  0  6  6 16 24  5 17 23
  12676724.801   -56013966.80449 -43617956.05849  12676727.2034   12676731.0814
  13442442.444   -55016269.25149 -42848423.32249  13442444.7914   13442449.3514
  16710805.628   -28838369.77159 -22446441.39659  16710809.3704   16710815.1174
  16034340.510   -35528872.25549 -27670766.85449  16034337.9134   16034342.9974
  14492591.778   -31908094.81049 -22355462.19549  14492594.0894   14492599.3124
  16771646.486    -6782035.64949  -4790774.42749  16771647.0604   16771654.7904
 96  7 11 20 14 59.9740000  0  6  6 16 24  5 17 23
  12656193.984   -56121857.69349 -43702026.88249  12656196.3674   12656200.3254
  13433535.801   -55063077.74449 -42884897.47149  13433537.3824   13433541.9884
  16711461.858   -28834920.65449 -22443753.85049  16711463.6634   16711471.2994
  16039968.192   -35499277.68149 -27647706.22349  16039970.5354   16039974.6954
  14464144.493   -32057579.79149 -22471943.97049  14464147.6694   14464153.7054
  16735917.218    -6969791.06949  -4937077.25349  16735918.5924   16735924.9964
 96  7 11 20 15 29.9740000  0  6  6 16 24  5 17 23
  12635727.200   -56229411.87449 -43785835.33649  12635729.4884   12635733.2814
  13424736.152   -55109316.11249 -42920927.37449  13424738.1514   13424743.2114
  16712123.205   -28831444.82649 -22441045.44549  16712126.2924   16712133.0324
  16045606.373   -35469632.76949 -27624606.37049  16045611.7144   16045616.7214
  14435743.255   -32206830.75349 -22588243.39849  14435746.2864   14435752.1984
  16700204.469    -7157460.57049  -5083313.13749  16700206.1034   16700212.4764
 96  7 11 20 15 59.9740000  0  6  6 16 24  5 17 23
  12615320.188   -56336649.49649 -43869397.11649  12615322.7164   12615326.6364
  13416043.869   -55154998.49349 -42956524.03949  13416045.3594   13416050.2074
  16712784.580   -28827967.07849 -22438335.58049  16712788.5764   16712794.5334
  16051257.859   -35439944.92849 -27601473.06049  16051261.4564   16051266.6034
  14407384.306   -32355863.79649 -22704373.02549  14407385.9224   14407391.7764
  16664503.967    -7345058.44449  -5229493.16249  16664505.9884   16664515.0474
 96  7 11 20 16 29.9740000  0  6  6 16 24  5 17 23
  12594975.982   -56443560.67549 -43952704.52649  12594978.1674   12594981.9994
  13407453.008   -55200139.16649 -42991698.58949  13407455.7054   13407460.1474
  16713440.056   -28824512.31649 -22435643.69249  16713445.5774   16713452.0694
  16056919.451   -35410199.44749 -27578294.82949  16056921.5614   16056926.2754
  14379062.345   -32504691.78749 -22820342.85349  14379065.0394   14379070.0944
  16628818.097    -7532594.42149  -5375625.03149  16628821.7344   16628826.6864
 96  7 11 20 16 59.9740000  0  6  6 16 24  5 17 23
  12574695.907   -56550128.46649 -44035744.35949  12574698.9924   12574702.8534
  13398965.002   -55244746.68949 -43026457.70049  13398967.0234   13398971.7144
  16714097.166   -28821082.15349 -22432970.91149  16714098.1394   16714103.5524
  16062594.884   -35380382.42449 -27555060.86149  16062596.4064   16062599.5344
  14350782.854   -32653303.76649 -22936144.37049  14350785.5254   14350790.6264
  16593140.517    -7720078.14149  -5521716.13449  16593143.3704   16593148.4534
 96  7 11 20 17 29.9740000  0  6  6 16 24  5 17 23
  12554479.140   -56656370.89149 -44118530.65749  12554481.6164   12554485.5194
  13390573.592   -55288845.93049 -43060820.74549  13390574.8824   13390579.7174
  16714738.269   -28817701.83949 -22430336.98449  16714741.2384   16714748.7644
  16068282.197   -35350492.66349 -27531770.23449  16068284.0664   16068289.0174
  14322540.417   -32801715.31549 -23051789.70549  14322544.0984   14322548.8884
  16557471.301    -7907523.71849  -5667777.50949  16557469.9814   16557478.9814
 96  7 11 20 17 59.9730000  0  6  6 16 24  5 17 23
  12534327.405   -56762270.69649 -44201049.97049  12534329.4854   12534333.3854
  13382277.197   -55332438.59249 -43094789.04949  13382279.6654   13382284.4244
  16715370.278   -28814376.29849 -22427745.76749  16715375.2034   16715380.5224
  16073986.856   -35320513.74449 -27508410.11149  16073989.1034   16073993.8274
  14294339.651   -32949912.05349 -23167267.65749  14294342.5534   14294347.6114
  16521812.782    -8094917.67249  -5813798.65149  16521814.1594   16521822.4414
 96  7 11 20 18 29.9730000  0  7  6 16 24  5 26 17 23
  12514243.493   -56867811.25949 -44283289.36149  12514246.0064   12514249.7904
  13374081.521   -55375512.88249 -43128353.43349  13374083.1244   13374087.6114
  16715998.358   -28811084.07849 -22425180.41149  16716001.2364   16716006.8954
  16079711.247   -35290427.01849 -27484965.99249  16079713.7104   16079719.0874
  16604322.715   -10342547.75459  -8037944.94659  16604323.9064   16604330.2864
  14266179.783   -33097895.36949 -23282579.29949  14266182.4074   14266187.2764
  16486157.175    -8282272.56349  -5959789.43649  16486160.7684   16486168.2124
 96  7 11 20 18 59.9730000  0  7  6 16 24  5 26 17 23
  12494224.134   -56973014.23449 -44365265.69949  12494226.5984   12494230.3414
  13365984.514   -55418060.13449 -43161507.13849  13365986.5924   13365991.0834
  16716616.679   -28807832.71149 -22422646.90749  16716620.3634   16716625.5354
  16085452.625   -35260249.12849 -27461450.83549  16085455.3734   16085460.9184
  16572779.823   -10508301.83549  -8167103.88749  16572781.7114   16572785.9744
  14238058.959   -33245670.97549 -23397729.09949  14238061.2754   14238066.2724
  16450513.415    -8469577.67549  -6105741.35449  16450516.2874   16450525.4034
 96  7 11 20 19 29.9730000  0  7  6 16 24  5 26 17 23
  12474268.034   -57077884.17149 -44446982.52449  12474270.5974   12474274.4134
  13357991.047   -55460063.27949 -43194236.86349  13357993.5254   13357998.2294
  16717225.313   -28804634.26549 -22420154.62849  16717229.1214   16717236.1044
  16091215.254   -35229977.18349 -27437862.39249  16091215.9974   16091223.3664
  16541240.004   -10674047.84349  -8296256.50949  16541241.9934   16541247.6744
  14209976.719   -33393243.57549 -23512720.70549  14209979.4804   14209984.2414
  16414887.568    -8656804.33049  -6251632.16249  16414890.4234   16414899.0714
 96  7 11 20 19 59.9730000  0  7  6 16 24  5 26 17 23
  12454372.878   -57182429.12449 -44528446.11149  12454376.0224   12454380.0304
  13350101.332   -55501532.72949 -43226550.71949  13350102.3404   13350106.6614
  16717821.087   -28801498.66049 -22417711.34449  16717825.3974   16717831.8324
  16096985.580   -35199642.04249 -27414224.69649  16096989.4284   16096995.2274
  16509701.980   -10839777.26449  -8425396.20049  16509704.0414   16509709.9344
  14181934.809   -33540613.03249 -23627554.02349  14181936.0054   14181940.3094
  16379274.310    -8843956.48949  -6397464.92949  16379273.2004   16379284.7574
 96  7 11 20 20 29.9730000  0  7  6 16 24  5 26 17 23
  12434539.149   -57286666.17449 -44609669.77449  12434540.3634   12434544.5134
  13342309.643   -55542474.09849 -43258453.08549  13342311.2514   13342316.0724
  16718408.045   -28798424.11549 -22415315.62149  16718410.1854   16718416.1884
  16102763.975   -35169281.28449 -27390567.02649  16102767.1164   16102773.0144
  16478168.353   -11005475.97849  -8554511.98749  16478171.9374   16478179.1204
  14153926.014   -33687790.36249 -23742237.62449  14153928.6704   14153934.0934
  16343673.330    -9031025.05249  -6543232.53249  16343677.0354   16343684.4164
 96  7 11 20 20 59.9730000  0  7  6 16 24  5 26 17 23
  12414754.800   -57390623.78049 -44690675.69649  12414758.0524   12414761.9254
  13334613.662   -55582911.64749 -43289962.86849  13334616.1314   13334621.0684
  16718978.330   -28795446.14449 -22412995.09849  16718977.2074   16718983.2164
  16108538.308   -35138944.25849 -27366927.85049  16108540.0534   16108545.6864
  16446643.614   -11171151.68349  -8683609.81749  16446644.7764   16446652.0334
  14125955.031   -33834783.19749 -23856777.45949  14125957.1234   14125962.0934
  16308093.707    -9218013.47049  -6688937.73149  16308094.1674   16308102.7124
 96  7 11 20 21 29.9730000  0  7  6 16 24  5 26 17 23
  12395030.640   -57494280.24749 -44771446.96749  12395032.7574   12395036.4354
  13327011.388   -55622866.98449 -43321096.90049  13327013.1234   13327017.8594
  16719522.109   -28792564.84449 -22410749.96549  16719526.1384   16719531.9634
  16114302.599   -35108654.16349 -27343325.24749  16114303.0524   16114309.5814
  16415121.027   -11336791.68149  -8812679.85549  16415124.8184   16415130.8894
  14098021.400   -33981572.18249 -23971158.46849  14098024.6254   14098029.3434
  16272523.941    -9404934.54849  -6834590.42449  16272522.4854   16272531.4334
 96  7 11 20 21 59.9730000  0  7  6 16 24  5 26 17 23
  12375360.291   -57597645.88849 -44851991.61849  12375362.9224   12375366.8584
  13319493.101   -55662373.88649 -43351881.50149  13319495.2434   13319499.8554
  16720051.119   -28789767.48849 -22408570.27549  16720057.9844   16720063.1294
  16120050.169   -35078435.41649 -27319778.25049  16120053.9744   16120060.0684
  16383604.196   -11502411.48949  -8941734.14649  16383608.2304   16383614.7914
  14070125.252   -34128163.62949 -24085385.53449  14070128.7384   14070133.1944
  16236960.968    -9591813.34149  -6980210.17549  16236964.3544   16236970.2194
 96  7 11 20 22 29.9730000  0  7  6 16 24  5 26 17 23
  12355756.688   -57700668.51649 -44932268.99249  12355758.6184   12355762.1144
  13312072.200   -55701367.05349 -43382265.79849  13312075.0234   13312079.6314
  16720583.980   -28786993.21449 -22406408.58949  16720586.3154   16720592.3754
  16125802.464   -35048217.01449 -27296231.52849  16125804.6764   16125809.2004
  16352104.756   -11667950.20949  -9070725.30749  16352107.5564   16352111.7064
  14042276.597   -34274510.98649 -24199422.41849  14042279.5664   14042284.4764
  16201417.425    -9778596.42849  -7125755.39349  16201417.1334   16201425.4624
 96  7 11 20 22 59.9730000  0  7  6 16 24  5 26 17 23
  12336232.836   -57803263.74049 -45012213.32249  12336235.3994   12336238.8954
  13304762.593   -55739784.00549 -43412201.09349  13304764.5344   13304769.1894
  16721121.055   -28784165.29249 -22404204.97549  16721124.5194   16721131.4694
  16131569.624   -35017905.28649 -27272612.09349  16131572.2694   16131579.0544
  16320632.714   -11833337.29349  -9199598.22849  16320634.8864   16320641.9664
  14014488.109   -34420540.31149 -24313211.47949  14014491.2024   14014496.1174
  16165903.775    -9965211.71349  -7271169.81749  16165907.6944   16165914.1874
 96  7 11 20 23 29.9730000  0  7  6 16 24  5 26 17 23
  12316776.296   -57905506.34749 -45091882.87349  12316779.1414   12316782.8124
  13297546.980   -55777704.55649 -43441749.57549  13297548.5774   13297553.6534
  16721658.486   -28781331.95449 -22401997.20549  16721662.8274   16721670.4024
  16137346.422   -34987547.09649 -27248956.46849  16137350.2094   16137356.1264
  16289177.110   -11998638.35949  -9328404.15649  16289179.0284   16289184.5264
  13986743.948   -34566339.56149 -24426821.25349  13986746.3044   13986751.7464
  16130413.416   -10151721.13549  -7416501.77649  16130415.8834   16130421.7834
 96  7 11 20 23 59.9730000  0  6  6 16  5 26 17 23
  12297382.870   -58007422.32949 -45171297.92149  12297385.2304   12297389.2094
  13290426.483   -55815119.80049 -43470904.31849  13290428.6944   13290433.4444
  16143135.290   -34957129.21149 -27225254.32349  16143138.3664   16143144.4954
  16257736.864   -12163867.88349  -9457154.30549  16257736.9294   16257743.2004
  13959037.954   -34711935.13849 -24540272.32649  13959040.5984   13959045.3434
  16094946.120   -10338111.77449  -7561741.17449  16094947.2874   16094951.5764
 96  7 11 20 24 29.9730000  0  6  6 16  5 26 17 23
  12278055.282   -58108989.31549 -45250441.02349  12278057.5354   12278061.5504
  13283408.429   -55852003.38049 -43499644.77249  13283409.8964   13283414.6144
  16148933.987   -34926645.38949 -27201500.81249  16148939.6864   16148944.8424
  16226307.259   -12329020.77549  -9585844.75449  16226311.0684   16226315.0264
  13931372.846   -34857316.93649 -24653556.82649  13931375.7034   13931380.0774
  16059502.517   -10524363.35249  -7706872.18949  16059502.7304   16059510.4004
 96  7 11 20 24 59.9730000  0  6  6 16  5 26 17 23
  12258796.366   -58210193.86149 -45329301.70049  12258799.1834   12258802.9664
  13276488.996   -55888364.89849 -43527978.42449  13276490.5434   13276494.9904
  16154750.754   -34896106.12349 -27177704.09249  16154751.0554   16154756.4374
  16194892.816   -12494107.00349  -9714483.30349  16194894.6244   16194900.3384
  13903751.204   -35002469.98849 -24766663.07149  13903753.8224   13903759.0794
  16024084.071   -10710478.01349  -7851896.51449  16024087.3534   16024093.2704
 96  7 11 20 25 29.9730000  0  6  6 16  5 26 17 23
  12239604.258   -58311048.61749 -45407889.81149  12239607.1044   12239610.9594
  13269667.447   -55924207.45549 -43555907.69249  13269669.9184   13269674.8174
  16160566.667   -34865529.23749 -27153878.03649  16160569.7504   16160574.7334
  16163486.086   -12659146.31649  -9843085.25649  16163489.3374   16163493.9104
  13876171.337   -35147401.74049 -24879596.87649  13876173.6314   13876179.1394
  15988688.596   -10896487.84849  -7996839.15649  15988690.7154   15988696.7454
 96  7 11 20 25 59.9730000  0  6  6 16  5 26 17 23
  12220476.624   -58411569.18249 -45486217.51549  12220478.8484   12220482.5134
  13262941.941   -55959554.28049 -43583450.67749  13262943.7944   13262948.6794
  16166385.407   -34834955.06749 -27130054.10849  16166388.5144   16166393.5824
  16132082.540   -12824168.56749  -9971673.91849  16132085.2374   16132090.8354
  13848632.149   -35292126.54849 -24992369.43549  13848633.5994   13848639.2034
  15953302.092   -11082444.70749  -8141740.52749  15953304.2404   15953310.6314
 96  7 11 20 26 29.9730000  0  6  6 16  5 26 17 23
  12201419.858   -58511710.78049 -45564249.92749  12201422.2284   12201426.1884
  13256313.399   -55994384.88149 -43610591.41449  13256315.3814   13256320.1424
  16172209.952   -34804359.08249 -27106213.13049  16172210.3414   16172216.6044
  16100695.286   -12989123.07149 -10100209.81549  16100696.4594   16100701.1184
  13821138.083   -35436602.92749 -25104948.40749  13821140.3474   13821145.2584
  15917928.691   -11268330.54849  -8286586.59449  15917932.4584   15917939.8324
 96  7 11 20 26 59.9730000  0  6  6 16  5 26 17 23
  12182441.304   -58611444.24749 -45641964.31749  12182443.6764   12182447.6004
  13249791.825   -56028657.94049 -43637297.70149  13249793.2874   13249798.4404
  16178047.774   -34773682.73649 -27082309.55449  16178047.9494   16178054.2034
  16069327.529   -13153947.74749 -10228644.55549  16069331.0354   16069337.0434
  13793698.417   -35580793.40749 -25217304.60049  13793701.6244   13793707.4774
  15882577.723   -11454097.25349  -8431339.74949  15882581.6124   15882588.8374
 96  7 11 20 27 29.9720000  0  6  6 16  5 26 17 23
  12163534.948   -58710795.32649 -45719380.74149  12163537.8294   12163541.5594
  13243370.419   -56062396.47049 -43663587.47249  13243373.3974   13243378.3814
  16183895.996   -34742954.46049 -27058365.51849  16183894.6624   16183901.1174
  16037986.706   -13318645.14549 -10356980.13449  16037989.2694   16037994.1594
  13766311.370   -35724721.93349 -25329456.68449  13766313.4664   13766318.3844
  15847248.861   -11639749.66749  -8576003.90549  15847252.4144   15847258.5044
 96  7 11 20 27 59.9720000  0  6  6 16  5 26 17 23
  12144703.157   -58809760.05749 -45796496.12249  12144705.2114   12144709.1234
  13237054.224   -56095590.10249 -43689452.64749  13237056.9494   13237061.4154
  16189747.394   -34712175.69049 -27034382.13749  16189752.5494   16189757.8274
  16006669.078   -13483206.63449 -10485209.76649  16006674.6664   16006680.6604
  13738969.534   -35868398.35249 -25441412.30849  13738972.9674   13738978.2104
  15811947.649   -11825267.065 9  -8720562.85949                  15811956.0354
 96  7 11 20 28 29.9720000  0  6  6 16  5 26 17 23
  12125945.811   -58908330.96849 -45873304.63049  12125947.8314   12125951.4694
  13230842.944   -56128232.85049 -43714888.56149  13230845.4734   13230849.8844
  16195617.222   -34681350.53649 -27010362.64049  16195617.5954   16195624.2244
  15975383.648   -13647625.59649 -10613328.38049  15975386.6754   15975392.8754
  13711678.858   -36011812.24249 -25553163.36949  13711681.9234   13711686.7614
  15776679.802   -12010613.295 9  -8864988.45849                  15776684.9094
 96  7 11 20 28 59.9720000  0  6  6 16  5 26 17 23
  12107253.614   -59006559.49749 -45949846.33949  12107255.8794   12107259.7144
  13224727.430   -56160373.39949 -43739933.14549  13224729.1394   13224733.2604
  16201482.024   -34650538.39949 -26986353.32149  16201481.5954   16201487.9894
  15944110.197   -13811972.28449 -10741390.68049  15944112.0984   15944117.1494
  13684429.913   -36155009.63349 -25664745.72949  13684432.2534   13684437.1194
  15741432.899   -12195828.51559  -9009311.96849  15741434.3734   15741439.3134
 96  7 11 20 29 29.9720000  0  6  6 16  5 26 17 23
  12088632.377   -59104411.99449 -46026095.03449  12088635.2184   12088638.8894
  13218706.548   -56192005.99849 -43764581.92549  13218709.6694   13218714.5404
  16207340.029   -34619734.31249 -26962350.27849  16207343.1604   16207349.6114
  15912854.672   -13976226.58849 -10869381.00349  15912857.4394   15912860.2554
  13657226.403   -36297962.42249 -25776137.48649  13657228.9244   13657234.5054
  15706217.504   -12380891.36949  -9153516.77349  15706219.0674   15706225.6784
 96  7 11 20 29 59.9720000  0  7  6 16  5 26 17 22 23
  12070082.837   -59201890.58449 -46102052.38349  12070085.3654   12070089.1964
  13212782.814   -56223143.83549 -43788845.19449  13212784.4514   13212788.9794
  16213202.099   -34588943.25249 -26938357.36349  16213202.5764   16213210.0794
  15881614.525   -14140395.74649 -10997304.99549  15881616.6284   15881621.2034
  13630068.517   -36440681.59849 -25887347.21249  13630070.8284   13630075.7614
  16374214.220    -9267162.52059  -7180673.32759  16374218.2544   16374221.9014
  15671026.700   -12565809.19549  -9297608.53849  15671029.6614   15671035.5134
 96  7 11 20 30 29.9720000  0  7  6 16  5 26 17 22 23
  12051601.334   -59299011.22249 -46177730.80249  12051604.0884   12051607.8274
  13206944.095   -56253819.20149 -43812748.08649  13206946.8684   13206951.6774
  16219057.082   -34558175.78649 -26914382.82849  16219058.2414   16219063.8124
  15850387.979   -14304483.64249 -11125165.65349  15850391.4034   15850396.4444
  13602953.629   -36583169.22449 -25998376.50849  13602956.4994   13602961.0604
  16343357.724    -9429324.37749  -7307033.15049  16343359.9154   16343365.7204
  15635863.993   -12750600.21149  -9441601.44249  15635865.0414   15635870.0954
 96  7 11 20 30 59.9720000  0  7  6 16  5 26 17 22 23
  12033198.640   -59395717.82949 -46253086.60249  12033201.3024   12033205.1304
  13201202.794   -56283995.64449 -43836262.21449  13201204.3614   13201209.0624
  16224917.215   -34527374.93049 -26890382.27949  16224919.6214   16224925.5754
  15819191.093   -14468423.30949 -11252910.78449  15819194.6234   15819200.8764
  13575889.272   -36725394.73149 -26109201.55849  13575891.4784   13575897.0504
  16312559.932    -9591163.18349  -7433141.20749  16312562.7714   16312569.1544
  15600726.271   -12935225.67749  -9585465.36649  15600734.9464   15600739.0314
 96  7 11 20 31 29.9720000  0  7  6 16  5 26 17 22 23
  12014877.249   -59491999.33749 -46328111.15449  12014879.4904   12014883.4044
  13195555.440   -56313667.97849 -43859383.52849  13195557.9004   13195562.7534
  16230784.739   -34496529.87549 -26866347.27849  16230789.1454   16230794.9084
  15788025.846   -14632192.06549 -11380522.78649  15788028.5024   15788035.9344
  13548873.701   -36867357.38949 -26219821.78449  13548876.8264   13548881.7984
  16281824.000    -9752678.80249  -7558997.48549  16281828.0964   16281832.6534
  15565627.657   -13119683.65849  -9729198.79449  15565632.2554   15565637.9114
 96  7 11 20 31 59.9720000  0  7  6 16  5 26 17 22 23
  11996631.378   -59587883.29749 -46402825.93349  11996633.5104   11996637.4154
  13190005.026   -56342846.31349 -43882119.90949  13190005.9334   13190010.2964
  16236660.363   -34465665.27049 -26842297.05149  16236662.6404   16236668.6514
  15756887.565   -14795820.75549 -11508025.62349  15756893.1934   15756897.3604
  13521904.361   -37009085.77849 -26330259.47349  13521906.7084   13521911.7894
  16251145.838    -9913893.18749  -7684619.00249  16251148.9484   16251154.5484
  15530553.033   -13304003.99149  -9872824.95949  15530555.0614   15530561.0864
 96  7 11 20 32 29.9720000  0  7  6 16  5 26 17 22 23
  11978465.374   -59683342.63749 -46477209.83949  11978468.0284   11978472.1984
  13184549.298   -56371504.97949 -43904451.34949  13184551.9874   13184556.6784
  16242544.877   -34434762.78449 -26818217.30949  16242542.6324   16242549.5074
  15725782.423   -14959289.72849 -11635403.97049  15725785.1504   15725791.1694
  13494983.743   -37150555.86249 -26440495.87749  13494985.9364   13494991.0214
  16220530.989   -10074776.48049  -7809982.56749  16220533.7154   16220540.6464
  15495508.419   -13488173.70649 -10016333.71849  15495508.0944   15495516.1834
 96  7 11 20 32 59.9720000  0  7  6 16  5 26 17 22 23
  11960383.682   -59778364.37049 -46551252.75349  11960386.1654   11960390.0724
  13179200.752   -56399613.64449 -43926354.21949  13179203.3454   13179208.0604
  16248430.595   -34403808.21549 -26794096.97449  16248433.4014   16248439.7994
  15694705.666   -15122586.46249 -11762648.13549  15694710.3324   15694716.2774
  13468114.405   -37291750.71649 -26550517.82349  13468117.5564   13468122.4034
  16189988.637   -10235291.58549  -7935059.21449  16189989.4074   16189996.1234
  15460493.861   -13672178.69649 -10159714.15449  15460494.8604   15460501.8974
 96  7 11 20 33 29.9720000  0  7  6 16  5 26 17 22 23
  11942376.797   -59872991.04249 -46624987.82649  11942379.2654   11942383.4524
  13173949.941   -56427210.06449 -43947857.93949  13173951.7054   13173956.7614
  16254323.300   -34372845.91749 -26769970.63049  16254325.9134   16254332.2814
  15663661.385   -15285741.88449 -11889782.15749  15663663.3194   15663668.1104
  13441297.372   -37432677.53949 -26660330.90849  13441300.0744   13441305.0274
  16159511.996   -10395427.36449  -8059840.29649  16159516.4844   16159521.6714
  15425502.772   -13856044.12449 -10302985.83749  15425506.2374   15425511.9324
 96  7 11 20 33 59.9720000  0  7  6 16  5 26 17 22 23
  11924444.676   -59967223.91649 -46698416.04549  11924447.4014   11924451.5744
  13168792.914   -56454306.76249 -43968972.26349  13168795.5724   13168800.2764
  16260215.929   -34341876.90549 -26745839.04049  16260217.9714   16260225.6554
  15632641.721   -15448746.17749 -12016798.46249  15632643.0934   15632649.7674
  13414533.103   -37573323.87949 -26769925.42749  13414536.1154   13414540.9694
  16129119.112   -10555157.49949  -8184305.27949  16129120.4624   16129126.2524
  15390547.604   -14039754.38749 -10446136.64149  15390547.4774   15390553.9564
 96  7 11 20 34 29.9720000  0  7  6 16  5 26 17 22 23
  11906587.777   -60061063.10549 -46771537.49549  11906590.3084   11906594.2714
  13163727.129   -56480924.93949 -43989713.71349  13163730.1484   13163735.3204
  16266108.810   -34310905.57649 -26721705.66749  16266111.6064   16266119.0994
  15601655.542   -15611589.78649 -12143689.54649  15601655.1404   15601662.5704
  13387822.521   -37713689.35649 -26879301.09749  13387824.9004   13387830.2434
  16098801.649   -10714476.72059  -8308450.07559  16098803.6414   16098809.1074
  15355616.830   -14223297.45149 -10589157.14349  15355618.3114   15355627.4134
 96  7 11 20 34 59.9720000  0  7  6 16  5 26 17 22 23
  11888800.854   -60154537.97049 -46844375.06949  11888802.9294   11888806.7914
  13158745.027   -56507108.05649 -44010116.16649  13158747.5734   13158752.3854
  16271995.327   -34279973.69849 -26697603.03749  16271998.1254   16272005.2554
  15570693.760   -15774291.14249 -12270469.75449  15570695.6824   15570699.6824
  13361158.943   -37853808.92049 -26988485.15649  13361161.5824   13361166.4934
  16068554.874   -10873428.91459                                  16068556.1834
  15320719.290   -14406678.93549 -10732051.76349  15320724.2814   15320730.0214
 96  7 11 20 35 29.9720000  0  7  6 16  5 26 17 22 23
  11871090.464   -60247603.19049 -46916893.42849  11871093.2694   11871097.0434
  13153849.717   -56532842.91949 -44030169.31249  13153850.5864   13153855.1584
  16277876.963   -34249059.13449 -26673513.87849  16277881.5314   16277888.5914
  15539763.148   -15936823.69849 -12397118.40649  15539765.2964   15539771.3124
  13334546.319   -37993662.09149 -27097461.62549  13334548.6074   13334553.6434
  16038375.889   -11032011.76359  -8555879.88059  16038377.6074   16038384.3064
  15285861.752   -14589858.53949 -10874789.07249  15285864.9324   15285873.0414
 96  7 11 20 35 59.9720000  0  7  6 16  5 26 17 22 23
  11853478.626   -60340154.98049 -46989011.71649  11853481.0834   11853484.9004
  13149058.440   -56558011.32149 -44049781.06449  13149060.9114   13149065.9484
  16283776.471   -34218067.35249 -26649364.55949  16283778.9904   16283785.3614
  15508883.620   -16099092.07349 -12523561.21849  15508887.5824   15508893.8914
  13307998.721   -38133166.49749 -27206166.33049  13308001.7444   13308006.3424
  16008282.081   -11190154.27559  -8679107.79859  16008283.8294   16008290.5384
  15251061.151   -14772738.43249 -11017292.82149  15251066.0114   15251072.3104
 96  7 11 20 36 29.9720000  0  6  6 16 26 17 22 23
  11835955.601   -60432238.27449 -47060764.93849  11835958.0664   11835962.0864
  13144370.794   -56582646.72049 -44068977.49049  13144373.3584   13144378.1614
  15478043.535   -16261164.63049 -12649851.47249  15478045.2384   15478052.4164
  13281505.022   -38272392.03649 -27314653.72949  13281507.7984   13281513.0464
  15978259.089   -11347926.69359  -8802047.26659  15978262.0694   15978267.0474
  15216309.011   -14955377.02349 -11159608.51949  15216308.5264   15216315.6804
 96  7 11 20 36 59.9720000  0  6  6 16 26 17 22 23
  11818506.436   -60523931.48149 -47132214.19749  11818509.8244   11818513.4304
  13139774.292   -56606810.58549 -44087806.48649  13139774.9154   13139779.9354
  15447223.710   -16423115.82949 -12776047.12349  15447228.3014   15447233.0064
  13255051.298   -38411406.05549 -27422976.32649  13255053.8304   13255059.0264
  15948294.900   -11505395.29559  -8924750.04359  15948295.4814   15948300.5834
  15181585.522   -15137841.68049 -11301788.72349  15181587.4644   15181593.0124
 96  7 11 20 37 29.9710000  0  6  6 16 26 17 22 23
  11801130.538   -60615244.64549 -47203367.32149  11801132.9524   11801137.1234
  13135266.183   -56630495.67249 -44106262.40949  13135268.0174   13135272.8224
  15416431.173   -16584938.99849 -12902143.00249  15416434.8124   15416438.7304
  13228641.565   -38550189.03549 -27531118.88049  13228644.8244   13228648.9994
  15918390.809   -11662536.22659  -9047197.45859  15918392.7504   15918401.2504
  15146894.221   -15320136.63949 -11443836.66649  15146897.5144   15146903.7114
 96  7 11 20 37 59.9710000  0  6  6 16 26 17 22 23
  11783821.331   -60706205.53349 -47274245.93649  11783823.8304   11783827.5244
  13130845.612   -56653724.00849 -44124362.41749  13130847.4384   13130852.2364
  15385658.051   -16746658.24849 -13028157.94049  15385661.0224   15385665.4924
  13202270.612   -38688767.35049 -27639101.94549  13202274.0844   13202278.5924
  15888549.606   -11819359.93749  -9169397.71549  15888548.0714   15888556.5554
  15112233.017   -15502297.88449 -11585780.46749  15112234.8134   15112238.9744
 96  7 11 20 38 29.9710000  0  6  6 16 26 17 22 23
  11766586.336   -60796774.22649 -47344818.94749  11766589.1274   11766593.1234
  13126515.862   -56676478.03749 -44142092.84049  13126517.9774   13126522.5514
  15354909.628   -16908228.88549 -13154057.08749  15354913.2604   15354919.6384
  13175948.257   -38827092.77449 -27746887.96849  13175951.4814   13175956.3944
  15858778.841   -11975804.19449  -9291302.29449  15858779.7114   15858785.3744
  15077601.207   -15684281.36649 -11727585.71849  15077604.6704   15077609.6194
 96  7 11 20 38 59.9710000  0  6  6 16 26 17 22 23
  11749432.709   -60886919.55149 -47415062.06149  11749435.0094   11749438.9584
  13122278.532   -56698747.21049 -44159445.45649  13122280.0074   13122284.6214
  15324206.508   -17069586.42849 -13279790.15649  15324209.0014   15324214.2394
  13149681.614   -38965128.36149 -27854448.14149  13149684.2244   13149688.8424
  15829086.570   -12131820.18449  -9412873.13949  15829090.3924   15829095.5384
  15043007.469   -15866068.00749 -11869237.62449  15043010.5474   15043016.3934
 96  7 11 20 39 29.9710000  0  6  6 16 26 17 22 23
  11732361.644   -60976626.19949 -47484963.34749  11732364.5794   11732368.6124
  13118133.062   -56720527.26349 -44176416.94049  13118135.8604   13118140.1714
  15293543.641   -17230726.65649 -13405353.92049  15293546.0574   15293550.5234
  13123465.877   -39102890.35749 -27961795.12049  13123469.0864   13123473.8534
  15799482.269   -12287416.53249  -9534117.01049  15799481.5324   15799488.6774
  15008449.601   -16047681.66049 -12010754.72249  15008451.2194   15008457.2374
 96  7 11 20 39 59.9710000  0  6  6 16 26 17 22 23
  11715370.112   -61065920.40049 -47554543.25549  11715372.6204   11715376.3174
  13114075.991   -56741849.77149 -44193031.89249  13114077.9564   13114082.9054
  15262912.590   -17391681.25449 -13530773.04449  15262915.6754   15262921.8824
  13097292.147   -39240434.69349 -28068972.49949  13097294.8364   13097300.1714
  15769944.665   -12442636.30549  -9655067.44849  15769945.4524   15769949.5794
  14973912.225   -16229159.31349 -12152165.83849  14973916.0634   14973921.9854
